[[{"header":{"parameterUnit":"m.s-1","parameterCategory":1,"la1":30.6,"la2":29.2853,"lo1":-89.7004,"lo2":-87.6739,"dy":0.0162,"dx":0.0183,"nx":112,"ny":82,"refTime":"2023-03-13T00:00:00:Z","depth":0,"parameterNumber":2,"parameterNumberName":"U-component_of_WINDS"},"data":[0.0,0.0,0.0,0.0,0.0,0.0,0.0,0.0,0.0,0.0,0.0,0.0,0.0,0.0,0.0,0.0,0.0,0.0,0.0,0.0,0.0,0.0,0.0,0.0,0.0,0.0,0.0,0.0,0.0,0.0,0.0,0.0,0.0,0.0,0.0,0.0,0.0,0.0,0.0,0.0,0.0,0.0,0.0,0.0,0.0,0.0,0.0,0.0,0.0,0.0,0.0,0.0,0.0,0.0,0.0,0.0,0.0,0.0,0.0,0.0,0.0,0.0,0.0,0.0,0.0,0.0,0.0,0.0,0.0,0.0,0.0,0.0,0.0,0.0,0.0,0.0,0.0,0.0,0.0,0.0,0.0,0.0,0.0,0.0,0.0,0.0,0.0,0.0,0.0,0.0,-1.1118,-1.1267,-1.1369,-1.1484,-1.1613,-1.1626,-1.1626,-1.1626,0.0,0.0,0.0,0.0,0.0,0.0,0.0,0.0,0.0,0.0,0.0,0.0,0.0,0.0,0.0,0.0,0.0,0.0,0.0,0.0,0.0,0.0,0.0,0.0,0.0,0.0,0.0,0.0,0.0,0.0,0.0,0.0,0.0,0.0,0.0,0.0,0.0,0.0,0.0,0.0,0.0,0.0,0.0,0.0,0.0,0.0,0.0,0.0,0.0,0.0,0.0,0.0,0.0,0.0,0.0,0.0,0.0,0.0,0.0,0.0,0.0,0.0,0.0,0.0,0.0,0.0,0.0,0.0,0.0,0.0,0.0,0.0,0.0,0.0,0.0,0.0,0.0,0.0,0.0,0.0,0.0,0.0,0.0,0.0,0.0,0.0,0.0,0.0,0.0,0.0,0.0,0.0,0.0,0.0,0.0,0.0,0.0,0.0,0.0,0.0,0.0,0.0,0.0,0.0,-1.1585,-1.1545,-1.1572,-1.1599,-1.1647,-1.1647,-1.1647,-1.1647,0.0,0.0,0.0,0.0,0.0,0.0,0.0,0.0,0.0,0.0,0.0,0.0,0.0,0.0,0.0,0.0,0.0,0.0,0.0,0.0,0.0,0.0,0.0,0.0,0.0,0.0,0.0,0.0,0.0,0.0,0.0,0.0,0.0,0.0,0.0,0.0,0.0,0.0,0.0,0.0,0.0,0.0,0.0,0.0,0.0,0.0,0.0,0.0,0.0,0.0,0.0,0.0,0.0,0.0,0.0,0.0,0.0,0.0,0.0,0.0,0.0,0.0,0.0,0.0,0.0,0.0,0.0,0.0,0.0,0.0,0.0,0.0,0.0,0.0,0.0,0.0,0.0,0.0,0.0,0.0,0.0,0.0,0.0,0.0,0.0,0.0,0.0,0.0,0.0,0.0,0.0,0.0,0.0,0.0,0.0,0.0,0.0,0.0,0.0,0.0,0.0,0.0,0.0,-1.1592,-1.1586,-1.1613,-1.1619,-1.166,-1.1616,-1.163,-1.1065,-0.9781,-1.0982,0.0,0.0,0.0,0.0,0.0,0.0,0.0,0.0,0.0,0.0,0.0,0.0,0.0,0.0,0.0,0.0,0.0,0.0,0.0,0.0,0.0,0.0,0.0,0.0,0.0,0.0,0.0,0.0,0.0,0.0,0.0,0.0,0.0,0.0,0.0,0.0,0.0,0.0,0.0,0.0,0.0,0.0,0.0,0.0,0.0,0.0,0.0,0.0,0.0,0.0,0.0,0.0,0.0,0.0,0.0,0.0,0.0,0.0,0.0,0.0,0.0,0.0,0.0,0.0,0.0,0.0,0.0,0.0,0.0,0.0,0.0,0.0,0.0,0.0,0.0,0.0,0.0,0.0,0.0,0.0,0.0,0.0,0.0,0.0,0.0,0.0,0.0,0.0,0.0,0.0,0.0,0.0,0.0,0.0,0.0,0.0,0.0,0.0,0.0,0.0,0.0,0.0,-1.1018,-1.1687,-1.1674,-1.1708,-1.1643,-1.163,-1.1649,-1.0482,-0.7827,-1.0427,0.0,0.0,0.0,0.0,0.0,0.0,0.0,0.0,0.0,0.0,0.0,0.0,0.0,0.0,0.0,0.0,0.0,0.0,0.0,0.0,0.0,0.0,0.0,0.0,0.0,0.0,0.0,0.0,0.0,0.0,0.0,0.0,0.0,0.0,0.0,0.0,0.0,0.0,0.0,0.0,0.0,0.0,0.0,0.0,0.0,0.0,0.0,0.0,0.0,0.0,0.0,0.0,0.0,0.0,0.0,0.0,0.0,0.0,0.0,0.0,0.0,0.0,0.0,0.0,0.0,0.0,0.0,0.0,0.0,0.0,0.0,0.0,0.0,0.0,0.0,0.0,0.0,0.0,0.0,0.0,0.0,0.0,0.0,0.0,0.0,0.0,0.0,0.0,0.0,0.0,0.0,0.0,0.0,0.0,0.0,0.0,0.0,0.0,0.0,0.0,0.0,0.0,-0.9523,-1.1816,-1.1816,-1.1824,-1.1782,-1.1665,-1.154,-1.0161,-0.6634,-1.0295,0.0,0.0,0.0,0.0,0.0,0.0,0.0,0.0,0.0,0.0,0.0,0.0,0.0,0.0,0.0,0.0,0.0,0.0,0.0,0.0,0.0,0.0,0.0,0.0,0.0,0.0,0.0,0.0,0.0,0.0,0.0,0.0,0.0,0.0,0.0,0.0,0.0,0.0,0.0,0.0,0.0,0.0,0.0,0.0,0.0,0.0,0.0,0.0,0.0,0.0,0.0,0.0,0.0,0.0,0.0,0.0,0.0,0.0,0.0,0.0,0.0,0.0,0.0,0.0,0.0,0.0,0.0,0.0,0.0,0.0,0.0,0.0,0.0,0.0,0.0,0.0,0.0,0.0,0.0,0.0,0.0,0.0,0.0,0.0,0.0,0.0,0.0,0.0,0.0,0.0,0.0,0.0,0.0,0.0,0.0,0.0,0.0,0.0,0.0,0.0,0.0,0.0,-1.0951,-1.1891,-1.1965,-1.1904,-1.0769,-0.8241,-1.0134,-1.0201,-0.67,0.0,0.0,0.0,0.0,0.0,0.0,0.0,0.0,0.0,0.0,0.0,0.0,0.0,0.0,0.0,0.0,0.0,0.0,0.0,0.0,0.0,0.0,0.0,0.0,0.0,0.0,0.0,0.0,0.0,0.0,0.0,0.0,0.0,0.0,0.0,0.0,0.0,0.0,0.0,0.0,0.0,0.0,0.0,0.0,0.0,0.0,0.0,0.0,0.0,0.0,0.0,0.0,0.0,0.0,0.0,0.0,0.0,0.0,0.0,0.0,0.0,0.0,0.0,0.0,0.0,0.0,0.0,0.0,0.0,0.0,0.0,0.0,0.0,0.0,0.0,0.0,0.0,0.0,0.0,0.0,0.0,0.0,0.0,0.0,0.0,0.0,0.0,0.0,0.0,0.0,0.0,0.0,0.0,0.0,0.0,0.0,0.0,0.0,0.0,0.0,0.0,0.0,-1.1898,-1.2127,-1.2047,-1.2135,-1.2065,-1.0932,-0.8092,-0.7963,-0.7554,-0.6712,0.0,0.0,0.0,0.0,0.0,0.0,0.0,0.0,0.0,0.0,0.0,0.0,0.0,0.0,0.0,0.0,0.0,0.0,0.0,0.0,0.0,0.0,0.0,0.0,0.0,0.0,0.0,0.0,0.0,0.0,0.0,0.0,0.0,0.0,0.0,0.0,0.0,0.0,0.0,0.0,0.0,0.0,0.0,0.0,0.0,0.0,0.0,0.0,0.0,0.0,0.0,0.0,0.0,0.0,0.0,0.0,0.0,0.0,0.0,0.0,0.0,0.0,0.0,0.0,0.0,0.0,0.0,0.0,0.0,0.0,0.0,0.0,0.0,0.0,0.0,0.0,0.0,0.0,0.0,0.0,0.0,0.0,0.0,0.0,0.0,0.0,0.0,0.0,0.0,0.0,0.0,0.0,0.0,0.0,0.0,0.0,0.0,0.0,0.0,0.0,0.0,0.0,-1.1616,-1.2292,-1.2298,-1.2172,-1.234,-1.2521,-1.2529,-0.4798,-0.1924,0.0,0.0,0.0,0.0,0.0,0.0,0.0,0.0,0.0,0.0,0.0,0.0,0.0,0.0,0.0,0.0,0.0,0.0,0.0,0.0,0.0,0.0,0.0,0.0,0.0,0.0,0.0,0.0,0.0,0.0,0.0,0.0,0.0,0.0,0.0,0.0,0.0,0.0,0.0,0.0,0.0,0.0,0.0,0.0,0.0,0.0,0.0,0.0,0.0,0.0,0.0,0.0,0.0,0.0,0.0,0.0,0.0,0.0,0.0,0.0,0.0,0.0,0.0,0.0,0.0,0.0,0.0,0.0,0.0,0.0,0.0,0.0,0.0,0.0,0.0,0.0,0.0,0.0,0.0,0.0,0.0,0.0,0.0,0.0,0.0,0.0,0.0,0.0,0.0,0.0,0.0,0.0,0.0,0.0,0.0,0.0,0.0,0.0,0.0,0.0,0.0,0.0,0.0,-1.1868,-1.2257,-1.2379,-1.246,-0.9819,-0.9263,-1.2192,-0.4857,-0.1949,-0.6387,0.0,0.0,0.0,0.0,0.0,0.0,0.0,0.0,0.0,0.0,0.0,0.0,0.0,0.0,0.0,0.0,0.0,0.0,0.0,0.0,0.0,0.0,0.0,0.0,0.0,0.0,0.0,0.0,0.0,0.0,0.0,0.0,0.0,0.0,0.0,0.0,0.0,0.0,0.0,0.0,0.0,0.0,0.0,0.0,0.0,0.0,0.0,0.0,0.0,0.0,0.0,0.0,0.0,0.0,0.0,0.0,0.0,0.0,0.0,0.0,0.0,0.0,0.0,0.0,0.0,0.0,0.0,0.0,0.0,0.0,0.0,0.0,0.0,0.0,0.0,0.0,0.0,0.0,0.0,0.0,0.0,0.0,0.0,0.0,0.0,0.0,0.0,0.0,0.0,0.0,0.0,0.0,0.0,0.0,0.0,0.0,0.0,0.0,0.0,0.0,0.0,0.0,-1.2406,-1.2608,-1.2414,-1.2529,-0.8828,-0.6612,-0.737,-0.2949,-0.1151,-0.3813,0.0,0.0,0.0,0.0,0.0,0.0,0.0,0.0,0.0,0.0,0.0,0.0,0.0,0.0,0.0,0.0,0.0,0.0,0.0,0.0,0.0,0.0,0.0,0.0,0.0,0.0,0.0,0.0,0.0,0.0,0.0,0.0,0.0,0.0,0.0,0.0,0.0,0.0,0.0,0.0,0.0,0.0,0.0,0.0,0.0,0.0,0.0,0.0,0.0,0.0,0.0,0.0,0.0,0.0,0.0,0.0,0.0,0.0,0.0,0.0,0.0,0.0,0.0,0.0,0.0,0.0,0.0,0.0,0.0,0.0,0.0,0.0,0.0,0.0,0.0,0.0,0.0,0.0,0.0,0.0,0.0,0.0,0.0,0.0,0.0,0.0,0.0,0.0,0.0,0.0,0.0,0.0,0.0,0.0,0.0,0.0,0.0,0.0,0.0,0.0,0.0,0.0,-1.2922,-1.2862,-1.2668,-1.2546,-0.8774,-0.4564,-0.0331,-0.0,-0.0,-0.0,0.0,0.0,0.0,0.0,0.0,0.0,0.0,0.0,0.0,0.0,0.0,0.0,0.0,0.0,0.0,0.0,0.0,0.0,0.0,0.0,0.0,0.0,0.0,0.0,0.0,0.0,0.0,0.0,0.0,0.0,0.0,0.0,0.0,0.0,0.0,0.0,0.0,0.0,0.0,0.0,0.0,0.0,0.0,0.0,0.0,0.0,0.0,0.0,0.0,0.0,0.0,0.0,0.0,0.0,0.0,0.0,0.0,0.0,0.0,0.0,3.901,3.989,0.0,0.0,0.0,0.0,0.0,0.0,0.0,0.0,0.0,0.0,0.0,0.0,0.0,0.0,0.0,0.0,0.0,0.0,0.0,0.0,0.0,0.0,0.0,0.0,0.0,0.0,0.0,0.0,0.0,0.0,0.0,0.0,0.0,0.0,0.0,0.0,0.0,0.0,0.0,0.0,-1.2403,-1.284,-1.299,-1.2867,-0.888,-0.4619,-0.0335,-0.0,-0.0,-0.0,-0.5195,0.0,0.0,0.0,0.0,0.0,0.0,0.0,0.0,0.0,0.0,0.0,0.0,0.0,0.0,0.0,0.0,0.0,0.0,0.0,0.0,0.0,0.0,0.0,0.0,0.0,0.0,0.0,0.0,0.0,0.0,0.0,0.0,0.0,0.0,0.0,0.0,0.0,0.0,0.0,0.0,0.0,0.0,0.0,0.0,0.0,0.0,0.0,0.0,0.0,0.0,0.0,0.0,0.0,0.0,0.0,0.0,0.0,0.0,0.0,3.8275,3.8547,0.0,0.0,0.0,0.0,0.0,0.0,0.0,0.0,0.0,0.0,0.0,0.0,0.0,0.0,0.0,0.0,0.0,0.0,0.0,0.0,0.0,0.0,0.0,0.0,0.0,0.0,0.0,0.0,0.0,0.0,0.0,0.0,0.0,0.0,0.0,0.0,0.0,0.0,0.0,0.0,-1.2475,-1.3037,-1.3146,-1.3191,-0.9155,-0.4664,-0.0337,-0.4042,-0.6398,-0.6392,-0.8562,0.0,0.0,0.0,0.0,0.0,0.0,0.0,0.0,0.0,0.0,0.0,0.0,0.0,0.0,0.0,0.0,0.0,0.0,0.0,0.0,0.0,0.0,0.0,0.0,0.0,0.0,0.0,0.0,0.0,0.0,0.0,0.0,0.0,0.0,0.0,0.0,0.0,0.0,0.0,0.0,0.0,0.0,0.0,0.0,0.0,0.0,0.0,0.0,0.0,0.0,0.0,0.0,0.0,3.8949,3.8486,3.8117,3.851,3.7952,3.668,3.7385,3.6975,3.6178,3.8812,0.0,0.0,0.0,0.0,0.0,0.0,0.0,0.0,0.0,0.0,0.0,0.0,0.0,0.0,0.0,0.0,0.0,0.0,0.0,0.0,0.0,0.0,1.5654,1.4472,1.2424,1.0663,1.1208,0.0,0.0,0.0,0.0,0.0,0.0,0.0,0.0,0.0,0.0,0.0,-1.286,-1.322,-1.3281,-1.3305,-0.9569,-0.5533,-0.1513,-0.7917,-1.252,-1.3378,-1.3318,-1.3451,0.0,0.0,0.0,0.0,0.0,0.0,0.0,0.0,0.0,0.0,0.0,0.0,0.0,0.0,0.0,0.0,0.0,0.0,0.0,0.0,0.0,0.0,0.0,0.0,0.0,0.0,0.0,0.0,0.0,0.0,0.0,0.0,4.7402,4.7402,0.0,0.0,0.0,0.0,0.0,0.0,0.0,0.0,0.0,0.0,0.0,0.0,0.0,4.727,4.4055,4.4016,4.171,3.7486,3.7466,3.6618,3.5241,3.5301,3.521,3.508,3.5072,0.0,3.6457,3.6809,0.0,0.0,0.0,0.0,0.0,0.0,0.0,0.0,0.0,0.0,0.0,0.0,0.0,0.0,0.0,0.0,0.0,0.0,0.0,0.0,0.0,0.0,1.224,1.2108,0.9234,0.7523,1.0877,1.1508,1.1214,1.0295,0.4688,-0.0,0.0,0.0,0.0,0.0,0.0,0.0,-1.3391,-1.3308,-1.3397,-1.3451,-1.056,-0.7865,-0.6032,-0.6874,-0.924,-1.3171,-1.3471,-1.3451,-1.3451,-1.3424,0.0,0.0,0.0,0.0,0.0,0.0,0.0,0.0,0.0,0.0,0.0,0.0,0.0,0.0,0.0,0.0,0.0,0.0,0.0,0.0,0.0,0.0,0.0,0.0,0.0,0.0,0.0,0.0,0.0,4.9494,4.9285,4.9359,4.9823,5.0556,0.0,0.0,0.0,0.0,0.0,0.0,0.0,0.0,0.0,4.7244,4.7486,4.6152,4.3135,4.2138,4.0082,3.7212,3.6473,3.5719,3.5098,3.5332,3.5449,3.5449,3.5449,3.5593,3.5941,3.6535,3.717,3.7703,0.0,0.0,0.0,0.0,3.2134,2.9563,2.7813,2.7025,2.6734,2.5816,0.0,0.0,0.0,0.0,0.0,0.0,0.0,1.7047,1.5171,1.4261,1.3022,0.9276,0.878,0.9503,1.1244,1.1625,1.0378,0.5932,0.2311,-0.0,-0.0,-0.4115,0.0,0.0,0.0,-1.3432,-1.3322,-1.337,-1.3424,-1.3478,-1.2278,-1.1109,-1.0467,-1.044,-1.1277,-1.3331,-1.3451,-1.3424,-1.3424,-1.341,-1.3403,0.0,0.0,0.0,0.0,0.0,0.0,0.0,0.0,0.0,0.0,0.0,0.0,0.0,0.0,0.0,0.0,0.0,0.0,0.0,0.0,0.0,0.0,0.0,0.0,0.0,0.0,0.0,0.0,5.0161,5.0105,5.052,5.0209,5.052,0.0,0.0,0.0,0.0,0.0,0.0,4.83,4.8436,4.7862,4.6465,4.6482,4.5153,4.208,4.0705,3.9078,3.6923,3.6037,3.5547,3.5566,3.5879,3.6016,3.6016,3.6016,3.584,3.5642,3.6334,3.6568,3.6593,3.7826,3.6342,3.3595,3.3181,3.105,2.8138,2.6364,2.5659,2.5192,2.3841,2.2994,2.2419,2.2499,0.0,0.0,0.0,0.0,1.659,1.4695,1.4481,1.3334,0.7264,0.7213,0.8557,0.8599,0.8664,0.693,0.108,-0.0,-0.0,-0.0,-0.7428,0.0,-0.8903,-1.1259,-1.348,-1.339,-1.341,-1.3431,-1.3318,-1.2303,-1.164,-1.1681,-1.1646,-1.213,-1.3325,-1.3444,-1.341,-1.3403,-1.3403,-1.3403,-1.3403,0.0,0.0,0.0,0.0,0.0,0.0,0.0,0.0,0.0,0.0,0.0,0.0,0.0,0.0,0.0,0.0,0.0,0.0,0.0,0.0,0.0,0.0,0.0,0.0,0.0,0.0,0.0,0.0,0.0,4.9052,4.7866,0.0,0.0,0.0,0.0,4.8945,4.8838,4.8192,4.6875,4.7291,4.695,4.554,4.6069,4.467,4.1242,4.1242,3.9432,3.6093,3.5976,3.5996,3.5996,3.6016,3.6016,3.6016,3.6016,3.6016,3.5957,3.5661,3.523,3.4818,3.4949,3.3728,3.1846,3.0038,2.826,2.6224,2.4593,2.3897,2.3883,2.3754,2.2418,2.0791,2.0814,1.9503,0.0,0.0,1.4982,1.4547,1.2799,1.221,1.1256,0.6907,0.3103,0.063,0.0637,0.0639,0.0479,-0.0,-0.0,-0.0,-0.0,0.0,-1.3308,-1.311,-1.3204,-1.3431,-1.3403,-1.3431,-1.3451,-1.3451,-0.9559,-0.7038,-0.7041,-0.7038,-0.8887,-1.3118,-1.3451,-1.3437,-1.3403,-1.3403,-1.3403,-1.3403,-1.3403,0.0,0.0,0.0,0.0,0.0,0.0,0.0,0.0,0.0,0.0,0.0,0.0,0.0,0.0,0.0,0.0,0.0,0.0,0.0,0.0,0.0,0.0,0.0,0.0,0.0,0.0,0.0,0.0,4.9968,4.8776,0.0,4.9968,4.9223,4.8578,4.8578,4.7696,4.6914,4.6473,4.6678,4.6722,4.6527,4.5576,4.4673,4.3811,4.1463,3.9749,3.8569,3.7371,3.6836,3.6836,3.6836,3.6836,3.6836,3.6836,3.6836,3.6836,3.668,3.6191,3.5547,3.5547,3.3576,3.0767,3.021,2.7971,2.516,2.4461,2.4209,2.3864,2.235,2.139,2.0489,1.7822,1.674,1.594,1.3839,1.3391,1.3253,1.2525,1.2293,1.1914,1.042,0.4907,-0.0,-0.0,-0.0,-0.0,-0.0,-0.0,-0.0,-0.0,-0.4974,-1.0034,-1.2912,-1.3424,-1.3417,-1.3403,-1.3431,-1.2266,-0.9392,-1.0263,-1.0964,-1.0964,-0.8395,-0.8742,-1.325,-1.358,-1.36,-1.3682,-1.3682,-1.3682,-1.3682,-1.3682,-1.5516,0.0,0.0,0.0,0.0,0.0,0.0,0.0,0.0,0.0,0.0,0.0,0.0,0.0,0.0,0.0,0.0,0.0,0.0,0.0,0.0,0.0,0.0,0.0,0.0,0.0,4.9826,4.908,5.0491,4.9125,4.8589,5.0118,4.9097,4.8314,4.8314,4.7409,4.6853,4.6853,4.6853,4.7004,4.738,4.6214,4.5453,4.5277,4.2371,4.0507,3.9983,3.8107,3.7305,3.7305,3.7305,3.7305,3.7305,3.7305,3.7305,3.7305,3.7305,3.6533,3.5439,3.5439,3.3477,3.0491,2.9776,2.7435,2.4636,2.4636,2.4516,2.4011,2.174,2.0761,1.9702,1.6259,1.4838,1.4184,1.2873,1.2576,1.2596,1.2527,1.1439,1.0837,1.2096,0.6114,-0.0,-0.0,-0.0,-0.0821,-0.3987,-0.1992,-0.0995,-0.3993,-0.568,-0.8219,-1.2804,-1.3437,-1.3403,-1.3403,-1.3431,-1.1754,-0.7205,-0.9421,-1.1843,-1.3627,-1.084,-1.0519,-1.3573,-1.3736,-1.3756,-1.3838,-1.3838,-1.4152,-1.4776,-1.5609,-1.7812,-2.1723,0.0,0.0,0.0,0.0,0.0,0.0,0.0,0.0,0.0,0.0,0.0,0.0,0.0,0.0,0.0,0.0,0.0,0.0,0.0,0.0,0.0,0.0,0.0,5.0599,4.9448,4.9019,5.0435,4.8498,4.7714,4.914,4.8391,4.7908,4.7908,4.7908,4.7908,4.7908,4.7908,4.7908,4.7933,4.7808,4.7006,4.5324,4.3476,4.1612,4.0025,3.8147,3.7344,3.7344,3.7344,3.7344,3.7344,3.7344,3.7344,3.7344,3.7344,3.6152,3.4379,3.4198,3.2924,3.0726,2.8719,2.6495,2.4663,2.4663,2.4515,2.4206,2.2235,2.0113,1.8138,1.6007,1.4037,1.2549,1.2698,1.2739,1.2779,1.2802,0.9728,0.7459,1.1271,0.5863,-0.0,-0.0,-0.0,-0.2658,-1.1646,-0.6346,-0.3158,-1.1646,-0.9761,-0.8382,-1.2772,-1.3424,0.0,-1.3403,-1.3431,-1.176,-0.7376,-0.6871,-0.8778,-1.3933,-1.3919,-1.3777,-1.4071,-1.4077,-1.3892,-1.3858,-1.3858,-1.4798,-1.6968,-1.9113,-2.1531,-2.4105,0.0,0.0,0.0,0.0,0.0,0.0,0.0,0.0,0.0,0.0,0.0,0.0,0.0,0.0,0.0,0.0,0.0,0.0,0.0,0.0,0.0,5.1494,5.0261,5.0271,4.9083,4.8263,4.8601,4.8049,4.7806,4.8248,4.8055,4.7908,4.7908,4.7908,4.7908,4.7908,4.7908,4.8109,4.851,4.5977,4.4538,4.4503,4.1228,3.9454,3.9066,3.8511,3.8223,3.8223,3.8223,3.8223,3.8223,3.8223,3.8223,3.8223,3.8223,3.7005,3.5136,3.4396,3.2064,2.9072,2.8492,2.6965,2.5277,2.5277,2.4188,2.2625,2.0605,1.8426,1.6407,1.4238,1.3303,1.2847,1.2888,1.2915,1.2789,1.2856,1.19,0.9632,0.4602,0.1647,-0.0,-0.0,-0.0,-0.2684,-1.1663,-1.1467,-0.9412,-0.8738,-1.0242,-1.1926,-1.3284,-1.3424,-1.3403,-1.3403,-1.3431,-1.2984,-1.1891,-0.8822,-0.8862,-1.3673,-1.4029,-1.3899,-1.4014,-1.4027,-1.4068,-1.417,-1.4177,-1.5184,-1.7535,-1.9752,-2.2172,0.0,0.0,0.0,0.0,0.0,0.0,0.0,0.0,0.0,0.0,0.0,0.0,0.0,0.0,0.0,0.0,0.0,0.0,0.0,0.0,0.0,0.0,5.0959,4.9935,4.9935,4.8807,4.7908,4.7908,4.8134,4.8259,4.8259,4.8485,4.8611,4.8611,4.8611,4.8611,4.8611,4.8611,4.8355,4.801,4.5841,4.4482,4.4094,4.1205,3.9674,3.9674,3.8991,3.8574,3.8574,3.8574,3.8574,3.8574,3.8574,3.8574,3.8574,3.8574,3.6885,3.4249,0.0,0.0,0.0,0.0,2.6406,2.5352,2.4419,2.3316,2.1757,1.8759,1.7038,1.5622,1.3589,1.2963,1.2976,1.3051,1.2923,1.2956,1.307,1.2939,1.0623,0.1997,-0.0,-0.0,-0.0,-0.303,-0.657,-0.9943,-1.2148,0.0,-0.9888,-1.1748,-1.3444,-1.3431,-1.341,-1.3403,-1.3403,-1.3417,-1.3498,-1.3668,-1.1425,-1.0971,-1.3794,-1.4153,0.0,0.0,0.0,-1.4204,-1.4299,-1.5965,0.0,0.0,0.0,-2.4743,-2.6236,-3.2159,0.0,0.0,-3.7589,-3.9793,0.0,0.0,0.0,0.0,0.0,0.0,0.0,0.0,0.0,0.0,0.0,0.0,0.0,0.0,0.0,0.0,5.0664,4.959,4.959,4.8736,4.8109,4.8109,4.856,4.8862,4.8862,4.9314,4.959,4.959,4.959,4.959,4.959,4.9461,0.0,0.0,0.0,4.5457,4.3818,4.189,4.1063,4.0921,3.9405,3.8574,3.8574,3.8574,3.8574,3.8574,3.8574,3.8574,3.8574,3.8409,3.583,3.2201,3.1896,3.0482,2.8373,2.6307,2.5611,2.5291,2.3092,0.0,0.0,1.7417,1.5839,1.5369,1.3646,1.3017,1.3051,1.3043,1.309,1.3137,1.3338,1.2701,0.9963,0.1852,-0.0,-0.0337,-0.1347,-0.7757,-1.2173,-0.8219,-1.0737,-1.3444,-1.3403,-1.3424,-1.3437,-1.3403,-1.3403,-1.3403,-1.3403,-1.3417,-1.3498,-1.3682,-1.3688,0.0,-1.4297,-1.4116,-1.4156,-1.4292,-1.4299,-1.4299,-1.4299,-1.8295,-2.0676,-2.1221,-2.5337,-2.7755,-2.819,-3.3099,-3.541,-3.541,-3.9869,-4.2013,0.0,0.0,0.0,0.0,0.0,0.0,0.0,0.0,0.0,0.0,0.0,0.0,0.0,0.0,0.0,5.2086,5.0664,4.959,4.959,4.9414,4.9264,4.9264,4.9364,4.9439,4.9439,4.954,4.959,4.959,4.959,4.959,4.959,4.8191,4.7221,4.6798,4.3934,4.215,4.189,4.0105,3.9136,3.9136,3.872,0.0,3.8574,3.8574,3.8574,3.8574,3.8574,3.8574,3.8428,3.6737,3.3683,2.9898,2.8232,2.7278,2.6908,2.6397,2.6226,2.5898,2.3635,2.1871,1.9936,1.735,1.5248,1.3795,1.348,1.3336,0.0,1.3397,1.3278,1.3331,1.3378,0.8093,0.2189,0.0337,-0.0,-0.2021,-0.9282,-1.2185,-1.3191,-1.2278,-1.2772,-1.3444,-1.3403,-1.3403,-1.341,-1.3403,-1.3403,-1.3403,-1.3403,-1.3505,-1.3641,-1.379,-1.3912,-1.4061,-1.4251,-1.4258,-1.4272,-1.4299,-1.4299,-1.4299,-1.4299,-1.6864,-1.9278,-2.1221,-2.4132,-2.6523,-2.8524,-3.329,-3.5609,-3.5775,-4.0135,-4.322,0.0,0.0,0.0,0.0,0.0,0.0,0.0,0.0,0.0,0.0,0.0,5.4149,5.3308,0.0,5.1741,5.0916,5.0078,4.959,4.959,4.959,4.959,4.959,4.959,4.959,4.959,4.959,4.959,4.959,4.959,4.959,4.959,4.7773,4.6398,4.5457,4.2709,4.0921,3.9962,3.8991,3.8574,3.8574,3.8574,3.8574,3.8574,3.8574,3.8574,3.8574,3.8574,3.8574,3.8409,3.5217,3.2184,2.9138,2.7148,2.6386,2.6386,2.6386,2.574,2.4442,2.2166,2.0059,1.7955,1.5679,1.421,1.3403,1.3403,1.3424,1.2945,1.0737,1.1628,1.2353,0.7925,0.3367,-0.0,-0.0,-0.0,-0.2525,-1.1496,-1.3372,-1.3345,-1.3464,-1.3437,-1.3424,-1.3403,-1.3403,-1.3403,-1.3403,-1.3403,-1.3431,-1.3505,-1.358,-1.3715,-1.3933,-1.4027,-1.4136,-1.4285,-1.4299,-1.4299,-1.4299,-1.4299,-1.4822,-1.6034,-1.8279,-2.0578,-2.313,-2.5538,-2.8102,-3.0496,-3.4324,-3.6677,-3.7847,-4.1424,-4.402,0.0,0.0,0.0,0.0,0.0,0.0,0.0,5.7915,5.6593,5.6251,5.4976,5.3429,5.1865,5.1492,5.1142,4.9847,4.959,4.959,4.959,4.959,4.959,4.959,4.959,4.959,4.959,4.959,4.959,4.959,4.959,4.9461,4.9047,4.7245,4.5457,4.3542,4.1749,4.0085,3.8574,3.8574,3.8574,3.8574,3.8574,3.8574,3.8574,3.8574,3.8574,3.8574,3.8117,3.7511,3.659,3.3264,3.0669,2.8686,2.7004,2.6386,2.6386,2.6386,2.492,2.282,2.0716,1.8444,1.6328,1.4052,1.3403,1.3403,1.341,1.3437,1.2612,0.9068,0.9431,0.9114,0.1852,-0.0,-0.0,-0.0,-0.0,-0.2188,-1.0294,-1.2836,-1.3325,-1.3451,-1.3417,-1.3403,-1.3403,-1.3403,-1.3403,-1.3403,-1.3424,-1.3492,-1.3614,-1.3682,-1.3804,-1.4048,-1.4095,-1.4163,-1.4292,-1.4299,-1.4299,-1.4299,-1.4299,-1.5337,-1.7763,-2.0047,-2.2415,-2.5067,-2.7969,-3.0395,-3.2498,-3.571,-3.8095,-3.9956,-4.2983,-4.5251,5.9379,5.9039,5.9099,5.9099,5.9099,5.9099,0.0,5.7915,5.6251,5.4976,5.3429,5.1741,5.0206,4.9822,4.9847,4.959,4.959,4.959,4.959,4.959,4.959,4.959,4.959,4.959,4.959,4.959,4.959,4.959,4.959,4.8893,4.7221,4.5321,4.3542,4.1608,3.9818,3.8865,3.8574,3.8574,3.8574,3.8574,3.8574,3.8574,3.8574,3.8574,3.8574,3.8574,3.6571,3.3833,3.0361,2.9898,2.853,2.6689,2.6544,2.6386,2.6386,2.6386,2.492,2.282,2.0716,1.8444,1.6328,1.4052,1.3403,1.3403,1.3437,1.3471,1.3338,1.2849,0.7245,0.1347,0.0337,-0.0,-0.0,-0.0,-0.0,-0.1346,-0.6376,-1.0597,-1.3318,-1.3417,-1.3403,-1.3403,-1.3403,-1.3403,-1.3403,-1.3403,-1.3519,-1.3607,-1.3627,-1.3858,-1.4034,-1.4068,-1.419,-1.4278,-1.4299,-1.4299,-1.4299,-1.4299,-1.4299,-1.5337,-1.7763,-2.019,-2.2759,-2.5067,-2.9886,-3.2639,-3.2842,-3.7607,-4.0018,-4.0355,-4.4558,-4.7624,5.9499,5.9099,5.9099,5.9099,5.9099,5.9099,5.9099,5.7915,5.6251,5.4741,5.3066,5.1492,4.995,4.959,4.959,4.959,4.959,4.959,4.959,4.959,4.959,4.959,4.959,4.959,4.959,4.959,4.959,4.959,4.8608,4.7641,4.6798,4.4071,4.2171,4.1326,3.955,3.8574,3.8574,3.8574,3.8574,3.8574,3.8574,3.8574,3.8574,3.8574,3.7951,3.6719,3.4601,3.2032,2.9449,2.9449,2.8218,2.6386,2.6386,2.6386,2.6228,2.492,2.314,2.0878,1.876,1.6492,1.4541,1.3728,1.3403,1.341,1.3444,1.1593,1.009,1.2688,0.6909,-0.0,-0.0,-0.0,-0.0,-0.0,-0.0,-0.1178,-0.57,-1.0252,-1.3485,-1.3417,-1.3403,-1.3403,-1.3403,-1.3471,-1.3532,-1.3532,-1.3587,-1.3688,-1.3865,-1.3994,-1.4102,-1.4197,-1.4265,-1.4299,-1.4299,-1.4299,-1.4299,-1.4299,-1.4299,-1.608,-1.984,-2.1154,-2.3622,-2.7661,-3.1193,-3.367,-3.524,-3.8628,-4.095,-4.2326,-4.5821,-4.8532,5.9392,5.9099,5.9099,5.9099,5.9099,5.9099,5.9099,5.8166,5.6962,5.5327,5.379,5.2236,5.0537,4.995,4.959,4.959,4.959,4.959,4.959,4.959,4.959,4.959,4.959,4.959,4.959,4.959,4.959,4.959,4.7904,4.6532,4.613,4.2966,4.1063,4.0494,3.9261,3.8574,3.8574,3.8574,3.8574,3.8574,3.8574,3.8574,3.8574,3.8574,3.7198,3.4601,3.3095,3.0977,2.853,2.853,2.7762,2.6386,2.6386,2.6386,2.6056,2.33,2.12,1.9582,1.7302,1.5193,1.3403,1.3403,1.341,1.3424,1.3458,1.1098,0.8742,0.9445,0.5053,-0.0,-0.0,-0.0,-0.0,-0.0,-0.1852,-0.4206,-0.6202,-1.0247,-1.3471,-1.341,-1.3403,-1.3403,-1.3403,-1.3526,-1.3641,-1.3682,-1.3722,-1.3831,-1.4041,-1.4109,-1.4177,-1.4285,-1.4299,-1.4299,-1.4299,-1.4299,-1.4299,-1.4299,-1.5034,-1.721,-2.1545,-2.2381,-2.5266,-3.0326,-3.2818,-3.5192,-3.769,-4.009,-4.2531,-4.4838,-4.737,-4.9905,5.9099,5.9099,5.9099,5.9099,5.9099,5.9099,5.9099,5.9099,5.8634,5.6962,5.5444,5.379,5.2209,5.0664,4.959,4.959,4.959,4.959,4.959,4.959,4.959,4.959,4.959,4.959,4.959,4.959,4.959,4.959,4.7904,4.5996,4.4253,4.2312,4.0514,3.872,3.8574,3.8574,3.8574,3.8574,3.8574,3.8574,3.8574,3.8574,3.8574,3.8574,3.6442,3.2657,3.2505,3.0207,2.6544,2.6544,2.6386,2.6386,2.6386,2.6386,2.5898,2.1523,1.9907,1.9582,1.7302,1.5193,1.3403,1.3403,1.3424,1.3458,1.3325,1.3358,1.1328,0.2862,0.0168,-0.0,-0.0,-0.0,-0.0,-0.0,-0.6573,-1.1831,-0.755,-1.0237,-1.3444,-1.341,-1.3403,-1.3403,-1.3403,-1.3526,-1.3675,-1.3817,-1.396,-1.4061,-1.4068,-1.4204,-1.4292,-1.4299,-1.4299,-1.4299,-1.4299,-1.4299,-1.4299,-1.4299,-1.6711,-1.9088,-2.1555,-2.4297,-2.8117,-3.2713,-3.5428,-3.7844,-4.0259,-4.2493,-4.5022,-4.768,-4.9773,-5.2352,5.9099,5.9099,5.9099,5.9099,5.9099,5.9099,5.9099,5.9099,5.8634,5.7075,5.6251,5.5444,5.391,5.2236,5.1142,5.1142,5.0308,4.959,4.959,4.959,4.959,4.959,4.959,4.9177,4.7904,4.8893,4.9047,4.7773,4.5996,4.4231,4.2312,4.0514,3.9261,3.8574,3.8574,3.8574,3.8574,3.8574,3.8574,3.8574,3.8574,3.7805,3.6571,3.5217,3.3095,3.0361,2.8997,2.7619,2.6386,2.6386,2.6386,2.6386,2.6386,2.5568,2.3792,2.1039,1.8933,1.7465,1.5193,1.4052,1.3403,1.3403,1.3424,1.2778,0.9908,1.0959,1.1501,0.2525,-0.0,-0.0,-0.0,-0.0,-0.0,-0.0,-0.6909,-1.303,-1.1455,-1.2278,-1.3444,-1.341,-1.3403,-1.3431,-1.3532,-1.3675,-1.3858,-1.4109,-1.419,-1.4224,-1.4224,-1.4272,-1.4299,-1.4299,-1.4299,-1.4299,-1.4299,-1.4299,-1.434,-1.4434,-1.6774,-1.9382,-2.1979,-2.4665,-2.822,-3.3216,-3.5572,-3.8032,-4.0259,-4.2659,-4.5042,-4.7701,-5.0241,-5.2809,5.9099,5.9099,5.9099,5.9099,5.9099,5.9099,5.9099,5.9099,5.8852,5.7804,5.7075,5.6451,5.5725,5.3685,5.2342,5.3359,5.1456,5.0201,5.0998,5.0558,5.0193,5.0193,5.0193,4.9488,4.7504,4.8488,4.8282,4.6141,4.4519,4.3089,4.183,4.0031,3.9043,3.9043,3.9043,3.9043,3.9043,3.9043,3.9043,3.9043,3.8887,3.8182,3.6775,3.4521,3.2489,3.0361,2.8374,2.7004,2.6386,2.6386,2.6386,2.6386,2.6386,2.5092,2.282,2.0716,1.8444,1.6328,1.4217,1.3403,1.3403,1.3403,1.3431,1.2618,0.8048,0.7562,0.7417,0.1684,-0.0,-0.0,-0.0,-0.0,-0.0,-0.0,-0.4376,-0.9435,-1.2656,-1.3478,-1.3444,-1.341,-1.3444,-1.3512,-1.3614,-1.379,-1.4007,-1.4258,-1.4299,-1.4299,-1.4299,-1.4299,-1.4299,-1.4299,-1.4299,-1.4299,-1.4299,-1.4299,-1.4708,-1.5734,-1.8279,-2.0769,-2.3465,-2.6103,-2.9619,-3.4591,-3.5967,-3.8374,-4.1453,-4.3164,-4.5757,-4.9071,-5.0983,-5.3747,5.9099,5.9099,5.9099,5.9099,5.9099,5.9099,5.9099,5.9099,5.9129,5.9159,5.7974,5.708,5.7715,5.4709,5.3155,5.5839,5.3001,5.1249,5.3369,5.2254,5.1272,5.1272,5.1272,5.0394,4.8392,4.8116,4.7075,4.4642,4.3328,4.2565,4.2418,4.0893,3.9902,3.9902,3.9902,3.9902,3.9902,3.9902,3.9902,3.9883,3.9453,3.9219,3.9031,3.6478,3.4319,3.2201,3.0207,2.8232,2.6386,2.6386,2.6386,2.6386,2.6386,2.4933,2.2659,2.0716,1.8444,1.6164,1.4052,1.3403,1.3403,1.3403,1.3451,1.2643,0.839,0.3694,-0.0,-0.0,-0.0,-0.0,-0.0,-0.0,-0.0,-0.0,-0.0168,-0.2683,-1.1282,-1.3305,-1.3444,-1.3417,-1.3539,-1.3654,-1.3654,-1.3892,-1.4136,-1.4278,-1.4306,-1.4299,-1.4299,-1.4299,-1.4299,-1.4299,-1.4299,-1.4299,-1.4299,-1.4306,-1.5417,-1.8034,-2.0711,-2.3251,-2.5842,-2.8655,-3.2174,-3.6658,-3.7003,-3.9225,-4.3711,-4.4327,-4.699,-5.158,-5.212,-5.5057,5.9099,5.9099,5.9099,5.9099,5.9099,5.9099,5.9099,5.9099,5.9249,5.9727,5.9487,5.9444,6.0126,5.7412,5.5333,5.6126,5.3369,5.1229,5.1885,5.1513,5.1272,5.1272,4.9965,4.8392,4.642,4.5312,4.3762,4.1793,4.2269,4.1998,4.0594,4.0184,3.9902,3.9902,3.9902,3.9902,3.9902,3.9902,3.9902,3.9902,3.9766,3.8763,3.6901,3.4772,3.243,3.0053,2.8076,2.6847,2.6386,2.6386,2.6386,2.6386,2.6386,2.4111,2.0716,2.0069,1.7474,1.4217,1.3562,1.3403,1.3403,1.3431,1.3464,1.3171,1.1993,0.623,-0.0,-0.0,-0.0,-0.0,-0.0,-0.0,-0.0,-0.0,-0.2518,-0.5697,-0.7885,-1.1065,-1.3444,-1.3553,-1.3783,-1.3966,-1.3994,-1.4156,-1.4292,-1.4333,-1.434,-1.4326,-1.4306,-1.4299,-1.4299,-1.4299,-1.4299,-1.4299,-1.4299,-1.4394,-1.5578,-1.8237,-2.0753,-2.3497,-2.6112,-3.0315,-3.3907,-3.6658,-3.8545,-4.0764,-4.3711,-4.5901,-4.8563,-5.158,-5.3723,-5.6529,5.9099,5.9099,5.9099,5.9099,5.9099,5.9189,5.9458,5.9548,5.9727,6.0386,6.0535,6.0745,6.1433,5.8602,5.6621,5.7884,5.4543,5.1967,5.2946,5.2514,5.1705,5.0837,4.9662,4.7934,4.5209,4.4145,4.2837,4.0955,4.1594,4.1605,4.0449,4.0449,4.0449,4.0449,4.0449,4.0449,4.0449,4.0449,4.0449,4.0449,3.93,3.7982,3.6651,3.3182,3.0918,2.9502,2.7374,2.6386,2.6386,2.6386,2.6386,2.6228,2.5251,2.282,1.9745,1.877,1.6328,1.3403,1.3403,1.3403,1.3403,1.3437,1.2105,1.077,1.2856,0.7081,-0.0,-0.0,-0.0,-0.0,-0.0,-0.0,-0.101,-0.489,-0.7749,-0.9588,-0.9579,-1.1628,-1.3587,-1.3783,-1.3966,-1.4122,-1.4211,-1.2491,-1.1099,-1.1099,-1.2912,-1.436,-1.4326,-1.4306,-1.4299,-1.4299,-1.4299,-1.4299,-1.4299,-1.5483,-1.7234,-1.9913,-2.245,-2.5048,-2.769,-3.1437,-3.4417,-3.683,-3.9055,-4.1453,-4.3711,-4.6557,-4.9243,-5.1603,-5.4592,-5.7242,5.9099,5.9099,5.9099,5.9099,5.9159,5.9398,5.9967,6.0146,6.0416,6.1104,6.1253,6.1433,6.2121,5.9033,5.7283,5.9794,5.5649,5.2869,5.4863,5.3649,5.1886,5.0269,4.9534,4.7904,4.4377,4.3794,4.3075,4.1327,4.1172,4.1172,4.1172,4.1172,4.1172,4.1172,4.1172,4.1172,4.1172,4.1172,4.1172,4.1172,3.8531,3.7373,3.7144,3.2205,3.0017,2.9769,2.7485,2.6426,2.6386,2.6386,2.6386,2.6228,2.3952,2.1845,1.9582,1.7465,1.5185,1.3403,1.3403,1.3403,1.341,1.3444,1.0404,0.7379,1.0634,0.6233,-0.0,-0.0,-0.0,-0.0,-0.0,-0.0,-0.2022,-0.982,-1.2552,-1.3385,-1.3365,-1.3641,-1.3804,-1.4034,-1.4116,-1.4021,-1.434,-1.0748,-0.7691,-0.6433,-1.0763,-1.4216,-1.3807,-1.3965,-1.4306,-1.4299,-1.4299,-1.4299,-1.4299,-1.6734,-1.9382,-2.1868,-2.4643,-2.7263,-2.9721,-3.2514,-3.4766,-3.683,-3.9395,-4.1825,-4.3789,-4.7175,-4.9708,-5.1693,-5.5104,-5.7692,5.9099,5.9099,5.9099,5.9099,5.9518,5.9937,6.0057,6.0535,6.1134,6.1792,6.1942,6.2121,6.278,6.0036,5.7882,5.8328,5.5261,5.2941,5.3291,5.1698,5.041,4.9961,4.7175,4.4827,4.4247,4.2637,4.1618,4.1172,4.1172,4.1172,4.1172,4.1172,4.1172,4.1172,4.1172,4.1172,4.1172,4.1172,4.1172,4.1172,3.8808,3.7625,3.7162,3.2714,3.045,2.9784,2.7707,2.6613,2.6386,2.6386,2.6386,2.6228,2.3952,2.1845,1.9582,1.7465,1.5185,1.3403,1.3403,1.3417,1.3451,1.3485,1.0419,0.6202,0.3195,0.1179,-0.0,-0.0,-0.0,-0.0,-0.0,-0.0,-0.0337,-0.2022,-0.8101,-1.3755,-1.3668,-1.3851,-1.4027,-1.4095,-1.4217,-1.434,-1.4242,-1.3528,-1.0426,-0.2504,-0.8615,-1.3324,-1.0722,-1.2704,-1.4333,-1.4306,-1.4299,-1.4299,-1.4299,-1.6845,-1.9348,-2.1878,-2.4621,-2.7279,-2.9734,-3.3892,-3.6313,-3.683,-4.095,-4.3535,-4.4277,-4.8755,-5.1483,-5.2254,-5.6746,-5.9173,5.9099,5.9099,5.9189,5.9518,5.9847,6.0266,6.0984,6.1403,6.1822,6.248,6.26,6.269,6.3019,6.0266,5.8005,5.8005,5.5075,5.2929,5.2929,5.1303,4.9677,4.8506,4.5849,4.3642,4.2637,4.1753,4.1172,4.1172,4.1172,4.1172,4.1172,4.1172,4.1172,4.1172,4.1172,4.1172,4.1172,4.1172,4.1172,4.1172,3.7896,3.6178,3.5846,3.1314,2.9066,2.8452,2.7363,2.6653,2.6386,2.6386,2.6386,2.607,2.2659,2.0878,1.942,1.6164,1.421,1.3403,1.3403,1.3424,1.2945,1.0586,1.0095,0.8923,0.202,-0.0,-0.0,-0.0,-0.0,-0.0,-0.0,-0.0,-0.0,-0.0,-0.5235,-1.0916,-1.3356,-1.4014,-1.4122,-1.4224,-1.4149,-1.4236,-1.4269,-1.0083,-0.5386,-0.0717,-0.8083,-1.2788,-0.8757,-1.181,-1.434,-1.4306,-1.4299,-1.4299,-1.4299,-1.7932,-2.0808,-2.2056,-2.5936,-2.9143,-3.1657,-3.494,-3.7347,-3.8545,-4.1974,-4.3926,-4.4394,-4.9286,-5.185,-5.2389,-5.7266,-5.9483,5.9279,5.9308,5.9488,6.0146,6.0416,6.0805,6.1852,6.2211,6.245,6.2959,6.3079,6.3079,6.3079,6.0266,5.8005,5.8005,5.5075,5.2767,5.2327,5.0576,4.865,4.6588,4.4677,4.2922,4.1327,4.1172,4.1172,4.1172,4.1172,4.1172,4.1172,4.1172,4.1172,4.1172,4.1172,4.1172,4.1172,4.1172,4.1172,4.1172,3.6762,3.4651,3.4489,2.9835,2.7602,2.7255,2.7014,2.672,2.6386,2.6386,2.6386,2.5898,2.1523,1.9907,1.942,1.5036,1.3403,1.3403,1.341,1.3437,1.2785,0.9235,1.0451,1.1669,0.2694,-0.0,-0.0,-0.0,-0.0,-0.0505,-0.2358,-0.2864,-0.2695,-0.1686,-0.3571,-0.7063,-1.2836,-1.3981,-1.4041,-1.4346,-1.4236,-1.372,-1.1536,-0.5027,-0.0,-0.0,-0.809,-1.2973,-0.913,-1.1999,-1.434,-1.4306,-1.4299,-1.4476,-1.4992,-1.9337,-2.2234,-2.2778,-2.7214,-3.0959,-3.338,-3.562,-3.7861,-4.0259,-4.2493,-4.4092,-4.5024,-4.9427,-5.2011,-5.3037,-5.7448,-5.9483,5.9817,5.9997,6.0146,6.0835,6.1463,6.1942,6.2061,6.257,6.3019,6.3079,6.3079,6.3079,6.3079,6.0266,5.8005,5.8005,5.5075,5.2327,5.0551,4.8506,4.6588,4.4527,4.2637,4.1483,4.1172,4.1172,4.1172,4.1172,4.1172,4.1172,4.1172,4.1172,4.1172,4.1172,4.1172,4.1172,4.1172,4.1172,4.1172,4.1172,3.6762,3.4651,3.4489,3.0245,2.7789,2.7268,2.7241,2.6907,2.6386,2.6386,2.6386,2.5898,2.1523,1.9907,1.942,1.5036,1.3403,1.3403,1.3437,1.3471,1.3338,1.2856,1.3036,1.1669,0.2694,-0.0,-0.0,-0.0,-0.0,-0.1853,-0.9993,-1.2203,-1.1177,-0.7304,-0.3454,-0.3159,-1.2372,-1.4278,-1.4209,-1.4256,-1.4269,-1.1531,-0.2872,-0.0539,-0.0,-0.0,-0.809,-1.4077,-1.3674,-1.4011,-1.434,-1.4306,-1.4299,-1.5168,-1.7238,-2.039,-2.2956,-2.5102,-2.8131,-3.0959,-3.338,-3.562,-3.7861,-4.0259,-4.2493,-4.4878,-4.7254,-5.0235,-5.281,-5.5138,-5.8098,-5.9483,6.0027,6.0386,6.0864,6.1523,6.1912,6.2211,6.26,6.2899,6.2817,6.1762,6.1525,6.1258,6.0266,5.8309,5.7004,5.7004,5.5235,5.3603,5.2847,5.0771,4.853,4.6607,4.4285,4.2483,4.1327,4.1172,4.1172,4.1172,4.1172,4.1172,4.1172,4.1172,4.1172,4.1172,4.1172,4.1172,4.1172,4.1172,4.0509,3.9198,3.6121,3.4002,3.2546,2.9621,2.7816,2.7268,2.7268,2.6934,2.6386,2.6386,2.5581,2.4111,2.1039,1.9095,1.7629,1.4541,1.3403,1.3403,1.3437,1.1593,0.9751,1.2514,0.979,0.4715,0.101,-0.0,-0.0,-0.0,-0.3877,-0.8964,-1.2545,-1.3445,-1.2495,-0.8137,-0.7876,-0.9721,-1.3565,-1.438,-1.4256,-1.4269,-0.9715,-0.4489,-0.0718,-0.0,-0.0,-0.0,-0.5736,-1.0952,-1.3859,-1.4353,-1.4312,-1.4299,-1.4299,-1.5168,-1.7588,-2.039,-2.3133,-2.5454,-2.9689,-3.3043,-3.5288,-3.769,-3.9921,-4.2326,-4.4454,-4.6146,-4.7559,-5.1515,-5.4123,-5.5454,-5.8253,-5.9483,6.0565,6.1044,6.1553,6.2211,6.2391,6.251,6.2959,6.2672,6.2028,6.075,6.0259,5.9634,5.838,5.7351,5.6581,5.6581,5.5494,5.442,5.3799,5.2115,5.0378,4.8313,4.6374,4.4458,4.2551,4.1697,4.1172,4.1172,4.1172,4.1172,4.1172,4.1172,4.1172,4.1172,4.1172,4.1172,4.1172,4.1172,4.0021,3.7896,3.5799,3.3512,3.1392,2.9118,2.7816,2.7268,2.7268,2.6934,2.6386,2.6386,2.5092,2.282,2.0716,1.8607,1.6319,1.4217,1.341,1.3424,1.3458,1.1265,0.9249,1.2353,0.7252,-0.0,-0.0,-0.0,-0.0505,-0.3202,-0.864,-1.3648,-1.3439,-1.3722,-1.3197,-0.9826,-1.1863,-1.4292,-1.4216,-1.2067,-1.0078,-1.0078,-0.4668,-0.0,-0.0,-0.0,-0.0,-0.0,-0.4116,-0.8769,-1.3674,-1.434,-1.4299,-1.4299,-1.4992,-1.621,-1.8627,-2.0744,-2.3311,-2.6345,-3.0909,-3.4417,-3.6658,-3.9055,-4.1286,-4.3711,-4.5758,-4.7335,-4.8318,-5.2576,-5.5171,-5.6202,-5.8514,-5.9792,6.1702,6.2091,6.2241,6.2899,6.3079,6.3079,6.3079,6.1762,6.048,6.048,5.9611,5.876,5.876,5.7838,5.7051,5.7051,5.5751,5.3942,5.1969,5.1677,5.0919,4.8937,4.8231,4.7043,4.5074,4.2591,4.1172,4.1172,4.1172,4.1172,4.1172,4.1172,4.1172,4.1172,4.1172,4.1172,4.1172,4.1172,4.0021,3.7896,3.5799,3.3512,3.1392,2.9118,2.7816,2.7268,2.7268,2.6934,2.6386,2.6386,2.5092,2.282,2.0716,1.8607,1.6319,1.4217,1.3424,1.3458,1.3325,1.3358,1.3392,1.3425,0.7263,-0.0,-0.0,-0.0,-0.1853,-1.0677,-1.3688,-1.4281,-1.3871,-1.3926,-1.4163,-1.3954,-1.4115,-1.4276,-1.4276,-0.6825,-0.018,-0.018,-0.0,-0.0,-0.0,-0.0,-0.0,-0.0,-0.4116,-0.8769,-1.3674,-1.434,-1.4299,-1.4299,-1.6378,-1.8627,-2.1048,-2.1802,-2.4019,-2.8683,-3.1829,-3.4417,-3.6658,-3.9055,-4.1286,-4.3711,-4.5758,-4.7804,-5.0009,-5.3195,-5.58,-5.7926,-5.9006,-6.0507,6.1972,6.2421,6.281,6.3019,6.3079,6.3079,6.3079,6.1762,6.023,5.9542,5.8106,5.6824,5.6054,5.593,5.5918,5.5918,5.5846,5.5521,5.4768,5.2889,5.0919,4.8937,4.5553,4.3013,4.2396,4.1697,4.1172,4.1172,4.1172,4.1172,4.1172,4.1172,4.1172,4.1172,4.1172,4.1172,4.1172,3.9688,3.7896,3.5638,3.3512,3.1241,2.9118,2.8473,2.7816,2.7268,2.7268,2.6934,2.6228,2.4761,2.282,2.0716,1.8435,1.6328,1.4383,1.359,1.3444,1.3458,1.3351,1.3378,1.2359,0.624,0.2358,-0.0,-0.0,-0.4214,-0.9815,-1.2545,-1.3641,-1.3906,-1.3981,-1.3966,-1.4129,-1.4224,-1.1788,-0.9322,-0.9322,-0.448,-0.0,-0.0,-0.0,-0.0,-0.0,-0.0,-0.0,-0.0,-0.4116,-0.8769,-1.3674,-1.434,-1.4299,-1.4299,-1.6378,-1.8802,-2.1048,-2.3217,-2.6484,-3.1052,-3.4047,-3.683,-3.9055,-4.1453,-4.3633,-4.5758,-4.7963,-4.9986,-5.2166,-5.5266,-5.762,-5.9006,-6.0632,-6.2535,6.248,6.278,6.3079,6.3079,6.3079,6.3079,6.3079,6.1462,5.9708,5.8962,5.7331,5.5787,5.5072,5.534,5.5691,5.5691,5.5993,5.5826,5.5016,5.3155,5.1084,4.8734,4.5011,4.2531,4.237,4.1618,4.1172,4.1172,4.1172,4.1172,4.1172,4.1172,4.1172,4.1172,4.1172,4.0841,4.0021,3.8548,3.6442,3.3512,3.2052,3.026,2.8136,2.8136,2.7816,2.7268,2.7268,2.6934,0.0,2.3952,2.1845,1.9745,1.7465,1.5365,1.3424,1.3444,1.3471,1.3331,1.3372,1.116,0.7417,0.1852,-0.2357,-0.5053,-0.5053,-0.8955,-1.3425,-1.3445,-1.3688,-1.3797,-1.3926,-1.4061,-1.419,-1.4312,-1.1999,-0.8773,-0.5189,-0.215,-0.0,-0.0,-0.0,-0.0,-0.0,-0.0,-0.1256,-0.4848,-0.6445,-0.8765,-1.3655,-1.4333,-1.4646,-1.5513,-1.7763,-2.0009,-2.2256,-2.4452,-2.7546,-3.2238,-3.5237,-3.7861,-4.0259,-4.2493,-4.4658,-4.6706,-4.889,-5.1071,-5.31,-5.64,-5.8883,-6.066,-6.2508,-6.4526,0.0,6.3079,6.3079,6.3079,6.2963,6.2963,6.2993,6.066,0.0,5.8741,5.6909,5.539,5.544,5.5867,5.6219,5.6219,5.6219,5.5408,5.288,5.2119,5.0928,4.8007,4.5793,4.4558,4.4138,4.235,4.1172,4.1172,4.1172,4.1172,4.1172,4.1172,4.1172,4.1172,4.1172,4.0178,3.7896,3.7737,3.5621,3.1392,3.1241,3.0093,2.8136,2.8123,2.7802,2.7268,2.7241,2.6907,2.6056,2.3792,2.1684,1.942,1.7302,1.5216,1.3284,1.3111,1.3158,1.3385,1.2701,0.6909,-0.0168,-0.0674,-0.6573,-1.3385,-1.3385,-1.3392,-1.3418,-1.3688,-1.3981,-1.3933,-1.4041,-1.4183,-1.4319,-1.4387,-1.4037,-1.1498,-0.287,-0.0539,-0.0,-0.0,-0.0,-0.0,-0.0,-0.0539,-0.4128,-1.2991,-1.0411,-0.9299,-1.3807,-1.4496,-1.5337,-1.7588,-2.0009,-2.2428,-2.4679,-2.567,-2.8056,-3.2393,-3.5408,-3.8032,-4.0427,-4.2659,-4.4965,-4.7027,-4.9204,-5.1401,-5.3322,-5.6424,-5.9434,-6.2334,-6.4355,-6.6202,6.3079,0.0,6.3079,6.3079,6.2145,6.1255,0.0,5.9162,5.7091,5.7996,5.6674,5.5516,5.5942,5.6118,5.6219,5.6219,5.6219,5.5408,5.288,4.9201,4.6247,4.5062,4.3239,4.2604,4.3945,4.235,4.1172,4.1172,4.1172,4.1172,4.1172,4.1172,4.1172,4.1172,4.1172,4.0178,3.7896,3.6281,3.4164,3.1392,2.9774,2.8628,2.8136,2.7909,2.7602,2.7255,2.7028,2.5731,2.3792,2.1523,1.941,1.7138,1.5028,1.3915,1.2945,0.9559,1.0435,1.2359,0.5558,0.1684,-0.1179,-0.8093,-1.1669,-1.3385,-1.3358,-1.358,-1.3661,-1.3688,-1.3858,-1.4034,-1.4068,-1.4183,-1.4312,-1.4353,-1.1465,-0.9134,-1.0615,-0.5206,-0.0,-0.0,-0.0,-0.0,-0.0,-0.6105,-1.1715,-1.3911,-1.3305,-1.3084,-1.4169,-1.5881,-1.7247,-1.7763,-2.1394,-2.4814,-2.6968,-2.9418,-3.2022,-3.4887,-3.7775,-4.0427,-4.2844,-4.4965,-4.7187,-4.9227,-5.2949,-5.5164,-5.6054,-5.725,-5.9229,-6.1727,-6.4137,-6.6202,6.3079,6.3079,6.3079,6.3079,6.1997,6.0998,6.1221,5.9044,5.7157,5.7788,5.6804,5.5867,5.6168,5.6018,5.5917,5.6168,5.5014,5.335,5.1091,4.811,4.5901,4.4584,4.3351,4.2637,4.2769,4.1753,4.1172,4.1172,4.1172,4.1172,4.1172,4.1172,4.1172,4.1172,4.0197,3.8706,3.6442,3.5298,3.3038,2.9941,2.8796,2.8136,2.8136,2.7829,2.7535,2.7255,2.595,2.4517,2.282,1.9735,1.7629,1.6328,1.4232,1.3444,1.3138,1.0602,0.8756,0.6573,0.1684,-0.2694,-0.6909,-1.1843,-1.3365,-1.3351,-1.3573,-1.3668,-1.3756,-1.3777,-1.3919,-1.4089,-1.4156,-1.4238,-1.4312,-1.4367,-1.0565,-0.7156,-0.7721,-0.359,-0.0,-0.0,-0.359,-0.6646,-0.6646,-0.8981,-1.1682,-1.4044,-1.4373,-1.4694,-1.5719,-1.7088,-1.8627,-2.0702,-2.3126,-2.6016,-2.9161,-3.2296,-3.5071,-3.7222,-3.9306,-4.1769,-4.4965,-4.6244,-4.8302,-5.1378,-5.4497,-5.647,-5.7022,-5.8442,-6.0378,-6.2911,-6.5361,-6.7507,6.3079,6.2933,6.2817,6.3199,6.2081,6.0965,6.1165,5.9281,5.7556,5.7634,5.6826,5.6194,5.6093,5.5767,5.5641,5.6018,5.3376,5.0429,4.8395,4.737,4.6332,4.4968,4.4175,4.3075,4.1753,4.1308,4.1172,4.1172,4.1172,4.1172,4.1172,4.0841,4.0685,4.0685,3.8548,3.6442,3.4164,3.4164,3.2217,2.8136,2.8136,2.8123,2.807,2.7762,2.7304,2.6672,2.4401,2.3017,2.1834,1.8109,1.6492,1.5851,1.4095,1.3478,1.3351,1.3378,0.7757,-0.0168,-0.1515,-0.7077,-1.3385,-1.3378,-1.3331,-1.3478,-1.3627,-1.3756,-1.3851,-1.3912,-1.4014,-1.4136,-1.4265,-1.4306,-1.4326,-1.4387,-1.1125,-0.6621,-0.1256,-0.0,-0.0,-0.0,-0.7728,-1.4276,-1.4276,-1.0952,-0.9655,-1.3629,-1.4517,-1.555,-1.7597,-1.8453,-2.0356,-2.4337,-2.5361,-2.7369,-3.1542,-3.4633,-3.7387,-3.9577,-4.0639,-4.3206,-4.7624,-4.7826,-4.9696,-5.3576,-5.5287,-5.6566,-5.7314,-5.9528,-6.1898,-6.475,-6.6942,-6.8969,6.3079,6.2028,6.1375,6.3326,6.1495,5.9422,6.0449,5.8175,5.5922,5.6403,5.6289,5.6068,5.5591,5.5817,5.5968,5.5566,5.1911,4.8351,4.5834,4.3618,4.2738,4.405,4.2677,4.2196,4.3511,4.2196,4.1172,4.1172,4.1172,4.1172,4.1172,3.9374,3.839,3.839,3.6281,3.4164,3.1887,3.1887,3.0592,2.8136,2.8136,2.8003,2.7762,2.7468,2.6169,2.4064,2.3478,2.106,1.762,1.6811,1.553,1.3936,1.3444,1.3325,1.3378,1.3385,0.7757,-0.101,-0.8773,-1.2185,-1.3378,-1.3318,-1.3458,-1.3478,-1.36,-1.3736,-1.3871,-1.4007,-1.415,-1.4272,-1.4292,-1.4319,-1.4353,-1.4216,-1.3694,-1.0799,-0.1974,-0.0,-0.0,-0.0,-0.7728,-1.4276,-1.4276,-1.3668,-1.3445,-1.4169,-1.6064,-1.7422,-1.7763,-2.1221,-2.3995,-2.4691,-2.8043,-3.1377,-3.4002,-3.6972,-3.9577,-4.176,-4.4442,-4.7761,-5.2014,-5.2166,-5.3251,-5.5729,-5.6047,-5.6921,-5.8638,-5.95,-6.2007,-6.6089,-6.6826,-6.8531,6.191,6.1371,6.0933,6.125,5.94,5.762,5.8159,5.6574,5.5089,5.5641,5.5767,5.5691,5.544,5.534,5.427,5.1319,4.9651,4.7875,4.529,4.4905,4.4778,4.4605,4.3504,4.279,4.2483,4.1753,4.1172,4.1172,4.0021,3.9374,3.9374,3.7419,3.6121,3.6121,3.4002,3.2381,3.1392,3.026,2.9118,2.8136,2.7976,2.7829,2.7682,2.7228,2.5788,2.3516,2.1956,1.9572,1.6483,1.535,1.4232,1.3111,1.0742,1.1282,1.2179,0.2518,-0.3696,-0.7417,-0.9258,-1.1288,-1.3325,-1.3464,-1.3437,-1.3464,-1.3682,-1.379,-1.3892,-1.4129,-1.4245,-1.4299,-1.4299,-1.4326,-1.3629,-1.1109,-1.2413,-1.1715,-0.2154,-0.0,-0.1615,-0.6646,-0.916,-1.1314,-1.3853,-1.436,-1.4326,-1.4326,-1.6217,-1.8279,-1.9488,-2.2611,-2.5701,-2.8043,-3.0217,-3.2694,-3.6121,-3.8131,-4.0721,-4.4482,-4.7093,-4.983,-5.2949,-5.4175,-5.5263,-5.6219,-5.7159,-5.8108,-5.8903,-6.1521,-6.3926,-6.6372,-6.7962,-6.9453,6.1044,6.0413,5.9935,5.8824,5.7676,5.6686,5.6554,5.5684,5.4838,5.5139,5.5189,5.5189,5.5189,5.4552,5.2476,4.8089,4.7604,4.6942,4.4398,4.5382,4.5685,4.4182,4.3718,4.279,4.1327,4.1172,4.1016,4.0509,3.8882,3.7737,3.7241,3.5137,3.4002,3.4002,3.1722,3.0549,3.0476,2.8854,2.8043,2.803,2.7802,2.7629,2.7482,2.6528,2.4814,2.261,2.014,1.7955,1.5671,1.4059,1.3431,1.3125,0.9574,0.9091,0.8261,-0.7577,-1.3385,-1.2862,-0.9407,-1.057,-1.3451,-1.3444,-1.3424,-1.3458,-1.3749,-1.3844,-1.3912,-1.4224,-1.4319,-1.4319,-1.4312,-1.434,-1.3286,-0.9674,-0.9876,-0.899,-0.1616,-0.1795,-0.5567,-1.2812,-1.1314,-1.0016,-1.3629,-1.4319,-1.4476,-1.4992,-1.7071,-1.9488,-2.1739,-2.3995,-2.7058,-3.1061,-3.1887,-3.4213,-3.9226,-4.032,-4.2939,-4.7877,-4.983,-5.1708,-5.3726,-5.5287,-5.634,-5.6895,-5.825,-5.9322,-6.0127,-6.3404,-6.5636,-6.6694,-6.8753,-7.0081,6.12,5.8962,5.6717,5.7112,5.7531,5.7657,5.724,5.625,5.5189,5.4712,5.4637,5.4637,5.4637,5.3081,5.1043,4.8997,4.6702,4.4377,4.1872,4.1522,4.1657,4.1522,4.1483,4.1327,4.1172,4.1172,4.0353,3.8231,3.8054,3.7082,3.4975,3.2874,3.1557,3.1557,2.9607,2.8338,2.7888,2.7722,2.7736,2.7736,2.7709,2.7415,2.6719,2.4702,2.2414,2.0089,1.7792,1.5679,1.3562,1.3431,1.3471,1.3338,1.3023,0.8093,-0.0168,-0.979,-1.3385,-1.3378,-1.2971,-1.3111,-1.3444,-1.3417,-1.3403,-1.3458,-1.3749,-1.3693,-1.378,-1.4258,-1.4373,-1.4387,-1.436,-1.4222,-1.4263,-1.3898,-0.7187,-0.0897,-0.018,-0.7008,-1.3541,-1.409,-1.4037,-1.3807,-1.4169,-1.4319,-1.4992,-1.7247,-1.9488,-2.1739,-2.4166,-2.6588,-2.8783,-3.1076,-3.3186,-3.7311,-4.4494,-4.5107,-4.722,-5.24,-5.2798,-5.3876,-5.5901,-5.6072,-5.7014,-5.8648,-5.8763,-6.0511,-6.3894,-6.421,-6.564,-6.7921,-6.8734,-6.9423,5.8595,5.7222,5.6206,5.5596,5.5906,5.6085,5.5278,5.4721,5.4386,5.4536,5.4285,5.4034,5.4034,5.1058,4.8474,4.7737,4.4778,4.2242,4.1347,4.1172,4.1172,4.1172,4.1172,4.1172,4.1172,4.0021,3.8882,3.7896,3.546,3.3512,3.2694,3.0592,2.9453,2.9453,2.8451,2.7816,2.7696,2.7522,2.7335,2.7148,2.7148,2.6365,2.4839,2.3686,2.1276,1.7792,1.6975,1.5365,1.3431,1.3444,1.3318,1.2856,0.7245,-0.0504,-0.8433,-0.9086,-1.0942,-1.3318,-1.3437,-1.3417,-1.3417,-1.3403,-1.3403,-1.3458,-1.3749,-1.3693,-1.378,-1.4265,-1.4216,-1.3694,-1.057,-1.2039,-1.4276,-1.4276,-0.7008,-0.0,-0.0,-0.7549,-1.4269,-1.4249,-1.4387,-1.4346,-1.4319,-1.5521,-1.6721,-1.7588,-2.1048,-2.4143,-2.6474,-2.8714,-3.1557,-3.5137,-3.8816,-4.2209,-4.5419,-4.8167,-5.0792,-5.2902,-5.31,-5.4025,-5.6047,-5.7303,-5.825,-5.8903,-6.1056,-6.2953,-6.4281,-6.5358,-6.6648,-6.7986,-6.8226,-6.8944,5.6797,5.607,5.5538,5.4719,5.4988,5.5089,5.3959,5.3833,5.3984,5.4034,5.3858,5.3708,5.3708,5.0149,4.7275,4.7275,4.3919,4.1172,4.1172,4.1172,4.1172,4.1172,4.1172,4.0997,4.0197,3.8724,3.7401,3.5943,3.3022,3.1031,3.0281,2.8813,2.7963,2.7869,2.7669,2.7522,2.7415,2.7228,2.6637,2.5693,2.5693,2.4876,2.3399,2.175,1.94,1.6483,1.5835,1.4721,1.3284,1.1926,1.043,0.8265,-0.0673,-0.7925,-1.3036,-0.9913,-1.0742,-1.3444,-1.341,-1.3403,-1.3403,-1.3403,-1.3403,-1.3458,-1.3763,-1.3707,-1.3807,-1.4115,-1.4249,-1.3547,-1.0243,-0.9523,-0.9715,-0.9715,-0.4848,-0.0,-0.0,-0.6281,-1.2419,-1.4044,-1.4367,-1.4503,-1.5344,-1.6721,-1.8279,-1.9836,-2.2611,-2.5677,-2.8646,-3.0354,-3.3022,-3.7401,-4.2146,-4.5418,-4.648,-5.0168,-5.2851,-5.4001,-5.4025,-5.4646,-5.6219,-5.7966,-5.9183,-5.9712,-6.2821,-6.4567,-6.5105,-6.6446,-6.7238,-6.7657,-6.7867,-6.8465,5.6185,5.5452,5.4561,5.4561,5.4988,5.5089,5.3959,5.4135,5.4235,5.3155,5.3331,5.3708,5.3683,5.0457,4.7939,4.779,4.4127,4.1172,4.1172,4.1172,4.1172,4.1172,4.1172,4.0353,3.8054,3.7896,3.6104,3.1722,3.1392,3.0281,2.7875,2.7696,2.7562,2.7281,2.7268,2.7121,2.6827,2.6814,2.5519,2.314,2.314,2.298,2.282,1.8598,1.6647,1.6483,1.4375,1.3424,1.3111,0.8549,0.4027,-0.0842,-0.9963,-1.3385,-1.3378,-1.3478,-1.3451,-1.3444,-1.341,-1.3403,-1.3403,-1.3403,-1.3403,-1.3464,-1.3619,-1.3747,-1.3854,-1.4182,-1.4296,-1.4143,-1.4143,-0.7201,-0.0,-0.0,-0.0,-0.0,-0.0,-0.3759,-0.8587,-1.3305,-1.4346,-1.4992,-1.7413,-1.7763,-1.9315,-2.3995,-2.4691,-2.6368,-3.0895,-3.1557,-3.3186,-3.7578,-4.2166,-4.6029,-4.8463,-5.0942,-5.3469,-5.6022,-5.6219,-5.6219,-5.6219,-5.7966,-5.9712,-6.1595,-6.3346,-6.5232,-6.6999,-6.6999,-6.6999,-6.6999,-6.7657,-6.7956,5.5099,5.4277,0.0,5.4863,5.4662,5.411,5.3783,5.3833,5.3758,5.308,5.3331,5.3138,5.143,4.9026,4.6832,4.5492,4.3024,4.1172,4.1172,4.1172,4.1172,4.1172,4.1172,4.0353,3.8054,3.6602,3.4391,3.1405,2.9599,2.8345,2.7402,2.7402,2.7362,2.7268,2.7068,2.6907,2.6827,2.5135,2.3864,2.314,2.0048,1.8598,1.8435,1.7138,1.5835,1.4375,1.3756,1.3458,1.2811,0.5208,0.1178,-0.0842,-0.9963,-1.3372,-1.3345,-1.3471,-1.3437,-1.3417,-1.3403,-1.3403,-1.3403,-1.3403,-1.3403,-1.3464,-1.3619,-1.1451,-0.9595,-1.3268,-0.9361,-0.4314,-0.4314,-0.2156,-0.0,-0.0,-0.0,-0.0,-0.0,-0.3759,-0.8587,-1.3305,-1.4346,-1.4992,-1.7413,-1.915,-2.1221,-2.4166,-2.7369,-3.1031,-3.546,-3.7259,-3.943,-4.2497,-4.5702,-4.8636,-5.1138,-5.3641,-5.5408,-5.6194,-5.7421,-5.8108,-5.8108,-5.9851,-6.1595,-6.3476,-6.5232,-6.6446,-6.6999,-6.6999,-6.6999,-6.6999,-6.7178,-6.7537,5.3987,5.3582,0.0,5.421,5.4059,5.3658,5.3432,5.3381,5.3306,5.298,5.3181,5.27,5.0458,4.8361,4.6293,4.4377,4.2483,4.1172,4.1172,4.1172,4.1172,4.1172,4.0353,3.8984,3.6711,3.4437,3.2205,2.9789,2.8331,2.7402,2.7108,2.7094,2.7041,2.6921,2.6747,2.616,2.5333,2.3864,2.2166,2.0544,1.7783,1.6164,1.535,1.535,1.4541,1.3238,1.157,1.1778,1.2669,0.3701,-0.0,-0.0505,-0.5891,-1.0283,-1.3351,-1.3471,-1.3437,-1.3424,-1.3424,-1.3424,-1.3424,-1.3437,-1.3444,-1.3492,-1.3593,-1.1618,-0.9243,-0.8711,-0.4474,-0.0,-0.0,-0.0,-0.0,-0.0,-0.0,-0.1077,-0.4848,-0.6448,-0.8583,-1.3293,-1.5034,-1.6378,-1.8802,-2.1048,-2.363,-2.6863,-3.1182,-3.4975,-3.7578,-4.0432,-4.2952,-4.4726,-4.7893,-5.0513,-5.2292,-5.4819,-5.6485,-5.7303,-5.8224,-5.9574,-6.092,-6.2131,-6.3215,-6.4281,-6.6044,-6.6999,-6.6999,-6.6999,-6.6999,-6.6999,-6.6999,-6.7208,5.298,5.3306,0.0,5.3105,5.3306,5.3507,5.303,5.2929,5.2929,5.2929,5.2929,5.2189,5.0127,4.8217,4.6293,4.4247,4.235,4.1172,4.1172,4.1172,4.1152,4.1113,3.9142,3.687,3.4409,3.2149,2.9938,2.7405,2.7228,2.7094,2.68,2.6787,2.6494,2.607,2.607,2.5092,2.282,2.2648,2.0544,1.6647,1.6319,1.535,1.3403,1.3403,1.3403,1.3078,0.8707,0.8742,1.1501,0.3367,-0.0,-0.0,-0.0,-0.5041,-1.2173,-1.2624,-1.3111,-1.3458,-1.3458,-1.3118,-1.2778,-1.2811,-1.2817,-1.2849,-1.3206,-1.3356,-1.1547,-0.2466,-0.0,-0.0,-0.0,-0.0,-0.018,-0.1077,-0.1256,-0.3769,-1.2443,-1.0773,-0.9117,-1.38,-1.6409,-1.8627,-2.1048,-2.3298,-2.6368,-3.1046,-3.5298,-3.8054,-3.8371,-4.1808,-4.4479,-4.5379,-4.9182,-5.1963,-5.2636,-5.4966,-5.7159,-5.8763,-5.9183,-6.092,-6.4153,-6.4281,-6.441,-6.4567,-6.6168,-6.6999,-6.6999,-6.6999,-6.6999,-6.6999,-6.6999,-6.6999,0.0,5.3331,0.0,0.0,5.3306,5.3055,5.2955,5.2929,5.2929,5.2929,5.2929,5.1747,4.8361,4.7321,4.5871,4.235,4.1463,4.1172,4.1172,4.1172,4.1055,4.0703,3.8887,3.6638,3.4042,3.1791,2.9603,2.7095,2.6921,2.6787,2.6493,2.648,2.5633,2.3792,2.3792,2.282,2.0554,1.8923,1.7456,1.6647,1.4863,1.3887,1.3403,1.3403,1.3431,1.3144,0.872,0.5203,0.2694,0.0842,-0.0,-0.0,-0.0,-0.1175,-0.3357,-0.6874,-1.0414,-1.3325,-1.3325,-1.1098,-0.8211,-0.8219,-0.8219,-0.8751,-1.2331,-1.3356,-1.1547,-0.2466,-0.0,-0.0,-0.0,-0.0,-0.1974,-0.9357,-1.1167,-1.1715,-1.3905,-1.349,-1.3787,-1.7161,-1.7814,-1.915,-2.3298,-2.4349,-2.685,-3.3006,-3.6264,-3.9142,-4.2382,-4.3933,-4.6161,-4.9799,-5.1373,-5.3128,-5.5212,-5.72,-5.8507,-5.8903,-6.1595,-6.3476,-6.4281,-6.4281,-6.4949,-6.6446,-6.6846,-6.6999,-6.6999,-6.6999,-6.6999,-6.6999,-6.6999,-6.6999,0.0,0.0,0.0,5.3256,0.0,5.2929,5.2929,5.2929,5.2929,5.2929,5.2929,5.1747,4.7759,4.7029,4.5723,4.1753,4.1172,4.1172,4.1172,4.0996,4.0453,3.9258,3.6982,3.4671,3.211,3.0037,2.8179,2.68,2.6613,2.6056,2.4933,2.4761,2.3792,2.1684,2.1523,2.0554,1.8281,1.7138,1.5999,1.5028,1.3887,1.3403,1.3403,1.3403,1.3437,1.3164,0.8725,0.4195,-0.0,-0.0,-0.0,-0.0,-0.0,-0.0,-0.0336,-0.2683,-0.503,-0.7558,-1.1981,-1.1813,-0.9254,-0.487,-0.3524,-0.3868,-0.6274,-0.7024,-0.6058,-0.1398,-0.0,-0.0,-0.0,-0.0,-0.2334,-1.2079,-1.4276,-1.4269,-1.4236,-1.438,-1.5049,-1.7831,-1.9003,-2.0529,-2.4166,-2.7356,-3.0987,-3.5604,-3.8073,-4.0666,-4.4086,-4.5534,-4.7759,-5.1668,-5.3082,-5.4523,-5.6022,-5.7824,-5.9322,-6.0127,-6.2821,-6.4694,-6.5513,-6.5639,-6.6044,-6.6999,-6.6999,-6.6999,-6.6999,-6.6999,-6.6999,-6.6999,-6.6999,-6.6999,0.0,0.0,5.2929,5.2929,5.2929,0.0,5.2929,5.2929,5.2929,5.2929,5.2929,5.1747,4.7759,4.7029,4.5723,4.1753,4.1172,4.1152,4.1074,4.0742,3.9663,3.7604,3.5089,3.2565,3.0197,2.7983,2.6653,2.6413,2.6386,2.5409,2.314,2.314,2.2006,1.942,1.9258,1.8281,1.5999,1.5999,1.5193,1.3403,1.3403,1.3403,1.341,1.341,1.3444,1.3164,0.9412,0.487,-0.0,-0.0,-0.0,-0.0,-0.0,-0.0,-0.0,-0.0,-0.0,-0.1007,-0.8429,-1.1154,-0.9795,-0.2357,-0.0,-0.0,-0.0,-0.0,-0.0,-0.0,-0.0,-0.0,-0.0,-0.0,-0.2153,-1.0978,-1.3713,-1.4249,-1.4367,-1.4694,-1.555,-1.7938,-2.0529,-2.3115,-2.5519,-3.0836,-3.546,-3.7578,-4.0002,-4.2665,-4.5032,-4.7259,-4.9628,-5.2688,-5.4546,-5.5717,-5.6168,-5.8108,-5.9989,-6.1461,-6.3606,-6.5484,-6.6999,-6.6999,-6.6999,-6.6999,-6.6999,-6.6999,-6.6999,-6.6999,-6.6999,-6.6999,-6.6999,-6.6999,0.0,0.0,5.2929,0.0,5.2929,5.2929,5.2929,5.2929,5.2929,5.2929,5.2929,5.1747,4.7759,4.7029,4.5723,4.1753,4.1172,4.1035,4.0664,4.0566,3.9453,3.6685,3.4538,3.2194,2.9694,2.7675,2.6426,2.6386,2.6386,2.5409,2.314,2.314,2.119,1.7138,1.6975,1.5999,1.3887,1.3894,1.3728,1.3403,1.3403,1.3417,1.3444,1.3444,1.3464,1.3338,1.2849,0.7753,-0.0,-0.0,-0.0,-0.0,-0.0,-0.0,-0.0,-0.0,-0.0,-0.0168,-0.1347,-0.1852,-0.1515,-0.0337,-0.0,-0.0,-0.0,-0.0,-0.0,-0.0,-0.0,-0.0,-0.0,-0.0,-0.1435,-0.6799,-1.1303,-1.4222,-1.436,-1.5888,-1.7938,-2.0356,-2.4326,-2.7928,-3.0064,-3.2858,-3.546,-3.7578,-4.117,-4.4567,-4.7127,-4.9661,-5.2113,-5.4713,-5.5672,-5.6118,-5.6194,-5.9322,-6.1326,-6.1595,-6.4822,-6.6723,-6.6999,-6.6999,-6.6999,-6.6999,-6.6999,-6.6999,-6.6999,-6.6999,-6.6999,-6.6999,-6.6999,-6.6999,5.3179,5.2929,5.2929,0.0,5.2929,5.2929,5.2929,5.2929,5.2929,5.2929,5.2929,5.205,4.9224,4.7759,4.5998,4.3228,4.1689,4.0742,4.0547,4.0098,3.8387,3.4929,3.3465,3.1443,2.809,2.6847,2.6386,2.6386,2.5251,2.3632,2.1362,2.0059,1.8109,1.4863,1.4863,1.4375,1.3403,1.3403,1.341,1.3431,1.341,1.3417,1.3284,1.0742,1.1104,1.3365,1.3378,0.8265,-0.0,-0.0,-0.0,-0.0,-0.0,-0.0,-0.0,-0.0,-0.0,-0.0,-0.0,-0.0,-0.0,-0.0,-0.0,-0.0,-0.0,-0.0,-0.0,-0.0,-0.0,-0.0,-0.0,-0.3932,-0.79,-0.7335,-1.0743,-1.4715,-1.5896,-1.708,-1.8802,-2.2439,-2.6876,-3.0759,-3.2858,-3.4975,-3.7259,-3.9374,-4.2491,-4.5534,-4.7976,-5.0592,-5.3107,-5.5622,-5.6068,-5.6605,-5.7564,-6.0127,-6.1997,-6.3084,-6.5513,-6.6999,-6.6999,-6.6999,-6.6999,-6.6999,-6.6999,-6.6999,-6.6999,-6.6999,-6.6999,-6.6999,-6.6999,-6.6999,5.3291,0.0,5.2929,5.2929,5.2929,5.2929,5.2929,5.2929,5.2929,5.2929,5.2929,5.2491,5.0998,4.9081,4.6984,4.4379,4.2473,4.1019,4.0215,3.9629,3.7764,3.4128,3.2959,3.113,2.7462,2.6689,2.6386,2.6386,2.4271,2.2166,2.0069,1.7792,1.5679,1.3397,1.3403,1.3403,1.3403,1.3403,1.3417,1.3437,1.3424,1.3431,1.3298,0.9913,0.9598,1.1675,1.0477,0.6233,-0.0,-0.0,-0.0,-0.0,-0.0,-0.0,-0.0,-0.0,-0.0,-0.0,-0.0,-0.0,-0.0,-0.0,-0.0,-0.0,-0.0,-0.0,-0.0,-0.0,-0.0,-0.0523,-0.2995,-0.8922,-1.3343,-0.9847,-1.2343,-1.6095,-1.8121,-1.915,-2.0865,-2.5507,-2.9049,-3.2217,-3.4975,-3.6762,-3.8864,-4.1578,-4.4058,-4.6594,-4.9192,-5.1686,-5.4059,-5.5997,-5.6605,-5.7421,-5.8763,-6.092,-6.2821,-6.4153,-6.6044,-6.6999,-6.6999,-6.6999,-6.6999,-6.6999,-6.6999,-6.6999,-6.6999,-6.6999,-6.6999,-6.6999,-6.6999,-6.6999,5.3291,5.2929,0.0,5.2929,5.2929,5.2929,5.2929,5.2929,5.2929,5.2929,5.2929,5.2929,5.2792,5.1163,4.8488,4.4251,4.3425,4.2369,3.9672,3.9238,3.8284,3.5736,3.3717,3.159,2.9449,2.7462,2.6386,2.6386,2.4271,2.2166,2.0069,1.7792,1.5679,1.3397,1.3403,1.3403,1.3403,1.3403,1.3403,1.3403,1.3437,1.3464,1.3331,1.3191,1.0819,0.6751,0.2527,0.0505,-0.0,-0.0,-0.0,-0.0,-0.0,-0.0,-0.0,-0.0,-0.0,-0.0,-0.0,-0.0,-0.0,-0.0,-0.0,-0.0,-0.0,-0.0,-0.0,-0.0,-0.0,-0.2091,-1.1143,-1.3978,-1.4256,-1.4004,-1.6279,-1.9075,-2.0722,-2.2783,-2.5689,-3.0217,-3.1227,-3.2694,-3.6922,-3.7896,-3.9299,-4.3318,-4.6136,-4.8566,-5.1166,-5.3667,-5.5446,-5.6143,-5.7707,-5.8763,-5.8903,-6.2131,-6.4153,-6.4281,-6.6044,-6.6999,-6.6999,-6.6999,-6.6999,-6.6999,-6.6999,-6.6999,-6.6999,-6.6999,-6.6999,-6.6999,-6.6999,-6.6999,5.4942,5.4541,0.0,5.3179,5.2929,5.2929,5.2929,5.2929,5.2929,5.2929,5.2929,5.2829,5.2477,5.0767,4.852,4.5755,4.3778,4.1688,3.9534,3.8965,3.7516,3.4018,3.2944,3.113,2.7762,2.6847,2.6386,2.6386,2.4271,2.2166,2.0069,1.7792,1.5679,1.3397,1.3403,1.3403,1.3403,1.3403,1.3424,1.3464,1.3458,1.0409,0.5033,1.0802,1.2533,1.0651,0.3199,-0.0,-0.0,-0.0,-0.0,-0.0,-0.0,-0.0,-0.0,-0.0,-0.0,-0.0,-0.0,-0.0,-0.0,-0.0,-0.0,-0.0,-0.0,-0.0,-0.0,-0.0,-0.4097,-0.9515,-1.3333,-1.4163,-1.4597,-1.621,-1.9709,-2.2826,-2.3309,-2.5143,-2.7654,-3.0715,-3.3676,-3.6104,-3.7578,-4.0063,-4.2382,-4.3924,-4.7574,-5.0584,-5.1507,-5.4107,-5.5993,-5.6194,-5.7824,-5.9322,-6.0511,-6.2953,-6.4822,-6.5919,-6.66,-6.6999,-6.6999,-6.6999,-6.6999,-6.6999,-6.6999,-6.6999,-6.6999,-6.6999,-6.6999,-6.6999,-6.6999,-6.6999,5.5945,5.5049,5.4299,5.3179,5.2929,5.2929,5.2929,5.2929,5.2929,5.2929,5.2929,5.2754,5.2201,5.0925,4.9145,4.7141,4.4693,4.2264,4.0137,3.9169,3.7658,3.4918,3.3415,3.1437,2.8686,2.7162,2.6386,2.6386,2.3632,2.1362,1.9907,1.7138,1.4863,1.3403,1.3403,1.3403,1.3417,1.3417,1.3444,1.3338,1.3325,1.0263,0.4703,1.0645,1.3405,1.2888,0.3873,-0.0,-0.0,-0.0,-0.0,-0.0,-0.0,-0.0,-0.0,-0.0,-0.0,-0.0,-0.0,-0.0,-0.0,-0.0,-0.0,-0.0,-0.0,-0.0,-0.0674,-0.3703,-0.8844,-1.3462,-1.4112,-1.4764,-1.592,-1.8427,-2.1911,-2.502,-2.6707,-2.8016,-2.9827,-3.2037,-3.546,-3.8054,-3.8882,-4.1788,-4.4377,-4.4977,-4.8771,-5.1823,-5.2599,-5.4741,-5.6485,-5.7014,-5.8789,-6.0511,-6.2396,-6.4153,-6.5764,-6.6846,-6.6999,-6.6999,-6.6999,-6.6999,-6.6999,-6.6999,-6.6999,-6.6999,-6.6999,-6.6999,-6.6999,-6.6999,-6.6999,-6.6999,0.0,0.0,0.0,5.2929,5.2929,5.2929,5.2929,5.2929,5.2929,5.2929,5.2904,5.2591,5.204,5.1489,5.0355,4.7973,4.6081,4.3955,4.153,3.9674,3.8574,3.8574,3.4918,3.2505,3.2353,2.8686,2.6386,2.6386,2.2499,1.9907,1.9907,1.5851,1.3403,1.3403,1.3403,1.3417,1.3451,1.3284,1.3298,1.3338,1.3372,1.3217,1.3043,1.3075,1.292,1.2571,0.3709,-0.0,-0.0,-0.0,-0.0,-0.0,0.0337,0.0337,0.0337,0.0168,0.0168,0.0168,-0.0,-0.0,-0.0,-0.0,-0.0,-0.0,-0.0,-0.0168,-0.2189,-1.0986,-1.3316,-1.3449,-1.4043,-1.5979,-1.8453,-2.0702,-2.3126,-2.6041,-3.0397,-3.1392,-3.2217,-3.4327,-3.6602,-3.8706,-4.0841,-4.2922,-4.4827,-4.6735,-4.9654,-5.2429,-5.442,-5.5541,-5.6895,-5.8789,-6.0538,-6.2264,-6.4153,-6.5919,-6.6999,-6.6999,-6.6999,-6.6999,-6.6999,-6.6999,-6.6999,-6.6999,-6.6999,-6.6999,-6.6999,-6.6999,-6.6999,-6.6999,-6.6999,-6.6999,5.618,0.0,0.0,0.0,0.0,0.0,5.2929,5.2929,5.2929,5.2929,5.1566,5.0108,4.9576,4.7927,4.6288,4.5211,4.4731,4.3163,3.9838,3.8846,3.8097,3.6571,3.4001,3.1896,3.0361,2.7919,2.6386,2.6386,2.3792,2.1523,1.9907,1.5851,1.3403,1.3403,1.3424,1.3444,1.3451,1.0232,1.0257,1.3372,1.3385,0.9963,0.3705,0.3707,0.3709,0.3539,0.1011,-0.0,-0.0,-0.0,-0.0,0.0674,0.7081,0.9622,0.9282,0.6047,0.4863,0.436,0.1175,-0.0,-0.0,-0.0,-0.0,-0.0,-0.0,-0.4553,-1.0162,-1.2707,-1.3398,-1.3782,-1.5825,-1.8343,-2.0875,-2.3126,-2.5543,-2.7928,-3.0744,-3.271,-3.4489,-3.6602,-3.8724,-4.0958,-4.2902,-4.4977,-4.6882,-4.8938,-5.1752,-5.3967,-5.4561,-5.5541,-5.6895,-5.8789,-6.0538,-6.2264,-6.4153,-6.5919,-6.6999,-6.6999,-6.6999,-6.6999,-6.6999,-6.6999,-6.6999,-6.6999,-6.6999,-6.6999,-6.6999,-6.6999,-6.6999,-6.6999,-6.6999,-6.6999,5.618,5.4916,5.419,5.3179,0.0,0.0,5.1886,5.1747,5.1443,5.0576,4.9133,4.7888,4.7377,4.601,4.4537,4.3214,4.2988,4.2171,4.0105,3.9136,3.7805,3.5812,3.37,3.1743,2.9589,2.7619,2.6056,2.5092,2.298,2.0393,1.7311,1.4706,1.341,1.3424,1.3444,1.3464,1.3325,1.0775,0.8923,0.7757,0.7757,0.5053,-0.0,-0.0,-0.0,-0.0,-0.0,-0.0,-0.0,-0.0,-0.0,0.0505,0.5729,1.0141,1.3062,1.0467,0.9435,0.91,0.6566,0.3195,-0.0,-0.0,-0.2527,-0.5566,-0.5561,-0.9291,-1.3405,-1.3358,-1.4194,-1.5249,-1.6808,-1.9808,-2.2983,-2.5458,-2.7888,-3.0426,-3.3512,-3.5137,-3.6442,-3.7737,-4.0276,-4.279,-4.3945,-4.6441,-4.865,-4.9819,-5.2656,-5.4561,-5.4561,-5.6209,-5.7966,-5.9851,-6.1595,-6.3476,-6.5232,-6.6446,-6.6999,-6.6999,-6.6999,-6.6999,-6.6999,-6.6999,-6.6999,-6.6999,-6.6999,-6.6999,-6.6999,-6.6999,-6.6999,-6.6999,-6.6999,-6.6999,5.5683,5.4055,5.2929,5.2929,5.2767,0.0,5.041,4.9819,4.9224,4.7254,4.6435,4.58,4.531,4.4679,4.349,4.141,4.1063,4.1063,4.1063,3.955,3.7805,3.5812,3.37,3.1743,2.9589,2.7619,2.5409,2.33,2.0878,1.7792,1.3562,1.3403,1.3424,1.3451,1.3458,1.3325,1.3385,1.2359,0.7417,-0.1515,-0.1515,-0.1178,-0.0673,-0.0673,-0.0673,-0.0673,-0.0673,-0.0673,-0.0673,-0.0673,-0.0505,-0.0,-0.0,0.4888,1.2047,1.239,1.2733,1.2733,1.3257,0.7596,-0.0168,-0.1179,-0.6579,-1.2726,-1.2701,-1.3036,-1.3532,-1.3804,-1.5347,-1.7144,-1.7829,-2.1063,-2.4843,-2.7561,-2.9841,-3.253,-3.6922,-3.7896,-3.8054,-3.8511,-4.1614,-4.4247,-4.4377,-4.7467,-5.0103,-5.0269,-5.2798,-5.4561,-5.4561,-5.7125,-5.9574,-6.1461,-6.3215,-6.4978,-6.6846,-6.6999,-6.6999,-6.6999,-6.6999,-6.6999,-6.6999,-6.6999,-6.6999,-6.6999,-6.6999,-6.6999,-6.6999,-6.6999,-6.6999,-6.6999,-6.6999,-6.6999,5.419,5.3179,5.2929,5.2929,5.1747,0.0,5.0127,4.8794,4.7354,4.6681,4.491,4.344,4.297,4.1234,3.965,3.9136,3.9136,3.9136,3.9136,3.8846,3.7805,3.5812,3.37,3.1743,2.9589,2.7619,2.5409,2.33,1.941,1.6164,1.3562,1.3424,1.3444,1.3451,1.3338,1.3372,1.3385,0.6233,-0.185,-1.0813,-1.0813,-0.8928,-0.5365,-0.5365,-0.5365,-0.5365,-0.5365,-0.5365,-0.5365,-0.5365,-0.3191,-0.0,-0.0,0.1007,0.3023,0.6717,0.8064,0.8575,1.2179,0.757,-0.1172,-0.8424,-0.9603,-0.806,-0.8056,-1.0602,-1.3839,-1.6278,-1.6842,-1.7802,-2.1669,-2.3424,-2.5359,-2.9632,-3.1061,-3.253,-3.6922,-3.7896,-3.8827,-4.2229,-4.3622,-4.4527,-4.6146,-4.8361,-5.0551,-5.205,-5.3553,-5.4561,-5.4561,-5.7125,-5.9574,-6.1461,-6.3215,-6.4978,-6.6846,-6.6999,-6.6999,-6.6999,-6.6999,-6.6999,-6.6999,-6.6999,-6.6999,-6.6999,-6.6999,-6.6999,-6.6999,-6.6999,-6.6999,-6.6999,-6.6999,-6.6999,5.381,5.2929,5.2629,5.1747,5.0717,0.0,0.0,4.6293,4.5147,4.3806,4.2348,4.1157,4.0711,3.9559,3.8574,3.8574,3.8574,3.8574,3.8574,3.8574,3.7492,3.4301,3.3095,3.1284,2.8218,2.7004,2.5092,2.1684,1.7465,1.4548,1.3424,1.3444,1.3464,1.3331,1.3372,1.1328,0.6741,-0.2186,-0.8941,-1.3385,-1.3372,-1.2148,-1.0085,-1.0085,-1.0085,-1.0085,-1.0085,-1.0085,-1.0085,-1.0085,-0.8742,-0.6389,-0.4193,-0.3352,-0.3015,-0.0836,-0.0,0.0334,0.2511,0.0502,-0.4519,-1.1294,-1.1801,-1.008,-1.007,-1.2401,-1.5577,-1.8019,-1.9365,-2.0947,-2.4735,-2.6436,-2.8632,-3.3531,-3.4651,-3.546,-3.8882,-4.0257,-4.1614,-4.3622,-4.5701,-4.7321,-4.8361,-5.0127,-5.1747,-5.2767,-5.3858,-5.4561,-5.4561,-5.7939,-6.0511,-6.1461,-6.4024,-6.6044,-6.6846,-6.6999,-6.6999,-6.6999,-6.6999,-6.6999,-6.6999,-6.6999,-6.6999,-6.6999,-6.6999,-6.6999,-6.6999,-6.6999,-6.6999,-6.6999,-6.6999,-6.6999,5.324,5.2327,5.1886,4.9961,4.9081,4.8049,0.0,0.0,0.0,4.0794,4.0137,3.9726,3.918,3.8809,3.8496,3.8242,3.8418,3.8331,3.7788,3.7817,3.6737,3.3398,3.2337,3.0669,2.7305,2.6215,2.4111,2.0231,1.6172,1.3908,1.3451,1.2605,1.2464,1.3385,1.1669,0.657,-0.2525,-0.9795,-1.3378,-1.3365,-1.3338,-1.3325,-1.3485,-1.3485,-1.3485,-1.3485,-1.3485,-1.3485,-1.3485,-1.3485,-1.3485,-1.2971,-0.9402,-0.8052,-0.8052,-0.8052,-0.8052,-0.8052,-0.8052,-0.8048,-0.8553,-1.2291,-1.3652,-1.413,-1.46,-1.5867,-1.762,-1.9907,-2.1994,-2.4344,-2.7109,-2.9559,-3.2332,-3.6905,-3.7896,-3.8548,-4.1268,-4.2922,-4.4377,-4.5127,-4.7759,-4.9961,-4.9961,-5.1607,-5.2929,-5.2929,-5.3858,-5.4561,-5.4561,-5.8742,-6.1595,-6.1595,-6.4822,-6.6999,-6.6999,-6.6999,-6.6999,-6.6999,-6.6999,-6.6999,-6.6999,-6.6999,-6.6999,-6.6999,-6.6999,-6.6999,-6.6999,-6.6999,-6.6999,-6.6999,-6.6999,-6.6999,5.1345,5.0269,4.9819,4.7759,4.5998,4.4677,4.4247,0.0,4.1227,4.0137,0.0,3.9648,3.8809,0.0,0.0,3.707,3.7832,3.7566,3.4536,3.5139,3.5664,3.5199,3.2016,2.9589,2.9138,2.5674,2.2499,2.0069,1.7629,1.5365,1.3451,0.9559,0.9244,1.3211,0.5726,-0.2861,-1.1843,-1.2869,-1.3358,-1.3464,-1.3458,-1.3444,-1.341,-1.341,-1.341,-1.341,-1.341,-1.341,-1.341,-1.341,-1.341,-1.3417,-1.2798,-1.2643,-1.2643,-1.2643,-1.2643,-1.2643,-1.2643,-1.2624,-1.2772,-1.3284,-1.4743,-1.6664,-1.8617,-1.9258,-1.9907,-2.2166,-2.4197,-2.6517,-2.9414,-3.1666,-3.4075,-3.7223,-3.7896,-3.8984,-4.2882,-4.3945,-4.5127,-4.865,-4.9677,-4.9961,-4.9961,-5.1607,-5.2929,-5.2929,-5.3858,-5.4561,-5.4561,-5.8742,-6.1595,-6.1595,-6.4822,-6.6999,-6.6999,-6.6999,-6.6999,-6.6999,-6.6999,-6.6999,-6.6999,-6.6999,-6.6999,-6.6999,-6.6999,-6.6999,-6.6999,-6.6999,-6.6999,-6.6999,-6.6999,-6.6999,5.0644,4.9081,4.7781,4.5849,4.369,4.1842,4.0822,3.8984,3.7258,3.655,0.0,0.0,0.0,0.0,0.0,0.0,3.4765,3.461,3.3214,3.2342,3.2016,3.2016,3.05,2.8501,2.5977,2.2957,2.0393,1.8109,1.6024,1.4426,1.3478,1.1628,0.91,0.5726,-0.3027,-0.9622,-1.3385,-1.3351,-1.3478,-1.3451,-1.3431,-1.3417,-1.3403,-1.3403,-1.3403,-1.3403,-1.3403,-1.4052,-1.5185,-1.5185,-1.6008,-1.7147,-1.7191,-1.5569,-1.3444,-1.3444,-1.3444,-1.3444,-1.3444,-1.4253,-1.5538,-1.6681,-1.781,-1.8923,-2.1039,-2.1684,-2.2476,-2.5806,-2.7504,-2.9306,-3.31,-3.4984,-3.6567,-3.9224,-4.0744,-4.1922,-4.3773,-4.5849,-4.8049,-4.9677,-5.0857,-5.1747,-5.1747,-5.2327,-5.2929,-5.2929,-5.3858,-5.4961,-5.6003,-5.9399,-6.1997,-6.3084,-6.5513,-6.6999,-6.6999,-6.6999,-6.6999,-6.6999,-6.6999,-6.6999,-6.6999,-6.6999,-6.6999,-6.6999,-6.6999,-6.6999,-6.6999,-6.6999,-6.6999,-6.6999,-6.6999,-6.6999,4.8891,4.6837,4.4891,4.282,4.0744,3.8679,3.7383,3.5799,3.4552,3.4029,3.3826,0.0,0.0,0.0,3.2406,3.2109,0.0,3.2238,3.1189,3.0192,2.9589,3.0207,2.9264,2.7065,2.3448,2.12,1.9105,1.7001,1.5404,1.4297,1.3512,1.3372,0.8089,-0.3367,-0.9963,-1.3378,-1.3358,-1.3478,-1.3444,-1.3437,-1.341,-1.3403,-1.3403,-1.3403,-1.3728,-1.421,-1.421,-1.5514,-1.7465,-1.7465,-1.8444,-1.9907,-1.9907,-1.7964,-1.5193,-1.5193,-1.5193,-1.5193,-1.5193,-1.6172,-1.7955,-2.0059,-2.0716,-2.1351,-2.4074,-2.4869,-2.5661,-2.9264,-3.0919,-3.2495,-3.5982,-3.7495,-3.9005,-4.148,-4.3075,-4.4377,-4.5403,-4.7904,-5.0127,-5.0717,-5.1886,-5.2929,-5.2929,-5.2929,-5.2929,-5.2929,-5.4126,-5.5571,-5.7161,-6.0046,-6.2624,-6.4124,-6.5919,-6.6999,-6.6999,-6.6999,-6.6999,-6.6999,-6.6999,-6.6999,-6.6999,-6.6999,-6.6999,-6.6999,-6.6999,-6.6999,-6.6999,-6.6999,-6.6999,-6.6999,-6.6999,-6.6999,4.4827,4.2759,4.0531,3.8651,3.6424,3.4813,3.4813,3.4813,3.4552,3.4029,3.3826,3.3463,3.2945,3.2736,3.2159,3.0794,3.1663,0.0,0.0,2.8684,3.0207,3.2201,2.8725,2.5438,2.3288,2.12,1.9297,1.7745,1.7581,1.6303,1.3546,1.3385,0.5376,-1.2353,-1.3217,-1.3358,-1.3458,-1.3451,-1.3437,-1.3403,-1.3403,-1.3403,-1.3403,-1.3403,-1.4541,-1.6483,-1.6483,-1.7792,-1.9745,-1.9745,-1.9907,-1.9907,-1.9907,-1.9745,-1.9745,-1.9745,-1.9745,-1.9745,-1.9745,-1.9745,-2.0069,-2.2327,-2.298,-2.3768,-2.7862,-2.9123,-2.9589,-3.1727,-3.4143,-3.6084,-3.6615,-3.8611,-4.1065,-4.3387,-4.4096,-4.5127,-4.8938,-4.9961,-5.0551,-5.2491,-5.2929,-5.2929,-5.2929,-5.2929,-5.2929,-5.2929,-5.4815,-5.6554,-5.7244,-6.0746,-6.3491,-6.4224,-6.5919,-6.6999,-6.6999,-6.6999,-6.6999,-6.6999,-6.6999,-6.6999,-6.6999,-6.6999,-6.6999,-6.6999,-6.6999,-6.6999,-6.6999,-6.6999,-6.6999,-6.6999,-6.6999,-6.6999,4.2108,3.9462,3.6675,3.5943,3.4164,3.2546,3.2546,3.1407,3.0397,3.013,2.9842,2.9526,2.9223,2.8907,2.8518,2.7985,2.6873,2.5845,0.0,2.3721,2.3401,2.4001,2.2898,2.1157,1.9076,1.8654,1.739,1.5104,1.4817,1.4361,1.3385,0.2181,-0.7066,-1.3211,-1.3345,-1.3478,-1.3451,-1.3431,-1.341,-1.3403,-1.3403,-1.4217,-1.5514,-1.5514,-1.6656,-1.877,-1.877,-2.0059,-2.2006,-2.2006,-2.282,-2.4271,-2.4271,-2.4271,-2.3792,-2.0878,-1.9907,-2.0069,-2.1523,-2.2006,-2.2648,-2.6122,-2.7236,-2.7862,-3.0654,-3.1437,-3.1944,-3.4329,-3.5762,-3.7075,-3.8764,-4.1006,-4.3022,-4.3903,-4.6146,-4.8361,-4.9677,-5.0998,-5.205,-5.2792,-5.2929,-5.2929,-5.2929,-5.2929,-5.2929,-5.2929,-5.4815,-5.693,-5.8826,-6.1498,-6.3999,-6.5831,-6.66,-6.6999,-6.6999,-6.6999,-6.6999,-6.6999,-6.6999,-6.6999,-6.6999,-6.6999,-6.6999,-6.6999,-6.6999,-6.6999,-6.6999,-6.6999,-6.6999,-6.6999,-6.6999,-6.6999,3.8836,3.6178,3.3333,3.2468,3.0685,2.8882,2.8003,2.6694,2.5714,2.5714,2.5493,2.5224,2.4955,2.4686,2.4417,2.416,2.282,2.2006,0.0,2.0059,1.877,1.877,1.877,1.8291,1.7182,1.655,1.5435,1.3485,1.1975,1.0289,0.8773,-0.5379,-1.3385,-1.3372,-1.3478,-1.3444,-1.3431,-1.341,-1.3403,-1.3403,-1.4217,-1.5185,-1.6647,-1.7465,-1.8923,-2.1039,-2.1039,-2.2338,-2.4271,-2.4271,-2.5092,-2.6386,-2.6386,-2.6847,-2.6977,-2.3448,-2.2636,-2.3413,-2.4857,-2.5806,-2.6895,-2.9574,-3.0515,-3.0823,-3.2944,-3.3651,-3.4243,-3.6512,-3.8066,-3.9546,-4.0952,-4.3206,-4.5276,-4.5998,-4.8217,-5.0127,-5.0857,-5.205,-5.2929,-5.2929,-5.2929,-5.2929,-5.2929,-5.2929,-5.2929,-5.2929,-5.5147,-5.759,-5.969,-6.2251,-6.467,-6.6757,-6.6999,-6.6999,-6.6999,-6.6999,-6.6999,-6.6999,-6.6999,-6.6999,-6.6999,-6.6999,-6.6879,-6.664,-6.6879,-6.6879,-6.664,-6.6879,-6.6999,-6.6999,-6.6999,-6.6999]},{"header":{"parameterUnit":"m.s-1","parameterCategory":1,"la1":30.6,"la2":29.2853,"lo1":-89.7004,"lo2":-87.6739,"dy":0.0162,"dx":0.0183,"nx":112,"ny":82,"refTime":"2023-03-13T00:00:00:Z","depth":0,"parameterNumber":3,"parameterNumberName":"V-component_of_WINDS"},"data":[0.0,0.0,0.0,0.0,0.0,0.0,0.0,0.0,0.0,0.0,0.0,0.0,0.0,0.0,0.0,0.0,0.0,0.0,0.0,0.0,0.0,0.0,0.0,0.0,0.0,0.0,0.0,0.0,0.0,0.0,0.0,0.0,0.0,0.0,0.0,0.0,0.0,0.0,0.0,0.0,0.0,0.0,0.0,0.0,0.0,0.0,0.0,0.0,0.0,0.0,0.0,0.0,0.0,0.0,0.0,0.0,0.0,0.0,0.0,0.0,0.0,0.0,0.0,0.0,0.0,0.0,0.0,0.0,0.0,0.0,0.0,0.0,0.0,0.0,0.0,0.0,0.0,0.0,0.0,0.0,0.0,0.0,0.0,0.0,0.0,0.0,0.0,0.0,0.0,0.0,-6.3051,-6.3897,-6.4474,-6.5128,-6.5859,-6.5936,-6.5936,-6.5936,0.0,0.0,0.0,0.0,0.0,0.0,0.0,0.0,0.0,0.0,0.0,0.0,0.0,0.0,0.0,0.0,0.0,0.0,0.0,0.0,0.0,0.0,0.0,0.0,0.0,0.0,0.0,0.0,0.0,0.0,0.0,0.0,0.0,0.0,0.0,0.0,0.0,0.0,0.0,0.0,0.0,0.0,0.0,0.0,0.0,0.0,0.0,0.0,0.0,0.0,0.0,0.0,0.0,0.0,0.0,0.0,0.0,0.0,0.0,0.0,0.0,0.0,0.0,0.0,0.0,0.0,0.0,0.0,0.0,0.0,0.0,0.0,0.0,0.0,0.0,0.0,0.0,0.0,0.0,0.0,0.0,0.0,0.0,0.0,0.0,0.0,0.0,0.0,0.0,0.0,0.0,0.0,0.0,0.0,0.0,0.0,0.0,0.0,0.0,0.0,0.0,0.0,0.0,0.0,-6.4872,-6.5474,-6.5628,-6.5782,-6.6051,-6.6051,-6.6051,-6.6051,0.0,0.0,0.0,0.0,0.0,0.0,0.0,0.0,0.0,0.0,0.0,0.0,0.0,0.0,0.0,0.0,0.0,0.0,0.0,0.0,0.0,0.0,0.0,0.0,0.0,0.0,0.0,0.0,0.0,0.0,0.0,0.0,0.0,0.0,0.0,0.0,0.0,0.0,0.0,0.0,0.0,0.0,0.0,0.0,0.0,0.0,0.0,0.0,0.0,0.0,0.0,0.0,0.0,0.0,0.0,0.0,0.0,0.0,0.0,0.0,0.0,0.0,0.0,0.0,0.0,0.0,0.0,0.0,0.0,0.0,0.0,0.0,0.0,0.0,0.0,0.0,0.0,0.0,0.0,0.0,0.0,0.0,0.0,0.0,0.0,0.0,0.0,0.0,0.0,0.0,0.0,0.0,0.0,0.0,0.0,0.0,0.0,0.0,0.0,0.0,0.0,0.0,0.0,-6.491,-6.5705,-6.5859,-6.5897,-6.6128,-6.6731,-6.6808,-6.7022,-6.7459,-6.7432,0.0,0.0,0.0,0.0,0.0,0.0,0.0,0.0,0.0,0.0,0.0,0.0,0.0,0.0,0.0,0.0,0.0,0.0,0.0,0.0,0.0,0.0,0.0,0.0,0.0,0.0,0.0,0.0,0.0,0.0,0.0,0.0,0.0,0.0,0.0,0.0,0.0,0.0,0.0,0.0,0.0,0.0,0.0,0.0,0.0,0.0,0.0,0.0,0.0,0.0,0.0,0.0,0.0,0.0,0.0,0.0,0.0,0.0,0.0,0.0,0.0,0.0,0.0,0.0,0.0,0.0,0.0,0.0,0.0,0.0,0.0,0.0,0.0,0.0,0.0,0.0,0.0,0.0,0.0,0.0,0.0,0.0,0.0,0.0,0.0,0.0,0.0,0.0,0.0,0.0,0.0,0.0,0.0,0.0,0.0,0.0,0.0,0.0,0.0,0.0,0.0,0.0,-6.5842,-6.6282,-6.6205,-6.6397,-6.6885,-6.768,-6.7795,-6.8104,-6.8696,-6.8745,0.0,0.0,0.0,0.0,0.0,0.0,0.0,0.0,0.0,0.0,0.0,0.0,0.0,0.0,0.0,0.0,0.0,0.0,0.0,0.0,0.0,0.0,0.0,0.0,0.0,0.0,0.0,0.0,0.0,0.0,0.0,0.0,0.0,0.0,0.0,0.0,0.0,0.0,0.0,0.0,0.0,0.0,0.0,0.0,0.0,0.0,0.0,0.0,0.0,0.0,0.0,0.0,0.0,0.0,0.0,0.0,0.0,0.0,0.0,0.0,0.0,0.0,0.0,0.0,0.0,0.0,0.0,0.0,0.0,0.0,0.0,0.0,0.0,0.0,0.0,0.0,0.0,0.0,0.0,0.0,0.0,0.0,0.0,0.0,0.0,0.0,0.0,0.0,0.0,0.0,0.0,0.0,0.0,0.0,0.0,0.0,0.0,0.0,0.0,0.0,0.0,0.0,-6.6706,-6.7013,-6.7013,-6.7924,-6.8565,-6.8783,-6.8963,-6.9021,-6.89,-6.8883,0.0,0.0,0.0,0.0,0.0,0.0,0.0,0.0,0.0,0.0,0.0,0.0,0.0,0.0,0.0,0.0,0.0,0.0,0.0,0.0,0.0,0.0,0.0,0.0,0.0,0.0,0.0,0.0,0.0,0.0,0.0,0.0,0.0,0.0,0.0,0.0,0.0,0.0,0.0,0.0,0.0,0.0,0.0,0.0,0.0,0.0,0.0,0.0,0.0,0.0,0.0,0.0,0.0,0.0,0.0,0.0,0.0,0.0,0.0,0.0,0.0,0.0,0.0,0.0,0.0,0.0,0.0,0.0,0.0,0.0,0.0,0.0,0.0,0.0,0.0,0.0,0.0,0.0,0.0,0.0,0.0,0.0,0.0,0.0,0.0,0.0,0.0,0.0,0.0,0.0,0.0,0.0,0.0,0.0,0.0,0.0,0.0,0.0,0.0,0.0,0.0,0.0,-6.7239,-6.7436,-6.7859,-6.8385,-6.8969,-6.9631,-6.9894,-7.0358,-7.1209,0.0,0.0,0.0,0.0,0.0,0.0,0.0,0.0,0.0,0.0,0.0,0.0,0.0,0.0,0.0,0.0,0.0,0.0,0.0,0.0,0.0,0.0,0.0,0.0,0.0,0.0,0.0,0.0,0.0,0.0,0.0,0.0,0.0,0.0,0.0,0.0,0.0,0.0,0.0,0.0,0.0,0.0,0.0,0.0,0.0,0.0,0.0,0.0,0.0,0.0,0.0,0.0,0.0,0.0,0.0,0.0,0.0,0.0,0.0,0.0,0.0,0.0,0.0,0.0,0.0,0.0,0.0,0.0,0.0,0.0,0.0,0.0,0.0,0.0,0.0,0.0,0.0,0.0,0.0,0.0,0.0,0.0,0.0,0.0,0.0,0.0,0.0,0.0,0.0,0.0,0.0,0.0,0.0,0.0,0.0,0.0,0.0,0.0,0.0,0.0,0.0,0.0,-6.7475,-6.791,-6.8321,-6.8821,-6.9309,-7.0011,-7.1025,-7.1275,-7.187,-7.3051,0.0,0.0,0.0,0.0,0.0,0.0,0.0,0.0,0.0,0.0,0.0,0.0,0.0,0.0,0.0,0.0,0.0,0.0,0.0,0.0,0.0,0.0,0.0,0.0,0.0,0.0,0.0,0.0,0.0,0.0,0.0,0.0,0.0,0.0,0.0,0.0,0.0,0.0,0.0,0.0,0.0,0.0,0.0,0.0,0.0,0.0,0.0,0.0,0.0,0.0,0.0,0.0,0.0,0.0,0.0,0.0,0.0,0.0,0.0,0.0,0.0,0.0,0.0,0.0,0.0,0.0,0.0,0.0,0.0,0.0,0.0,0.0,0.0,0.0,0.0,0.0,0.0,0.0,0.0,0.0,0.0,0.0,0.0,0.0,0.0,0.0,0.0,0.0,0.0,0.0,0.0,0.0,0.0,0.0,0.0,0.0,0.0,0.0,0.0,0.0,0.0,0.0,-6.7603,-6.8833,-6.9744,-6.9925,-7.0887,-7.1926,-7.2916,-7.3202,-7.349,0.0,0.0,0.0,0.0,0.0,0.0,0.0,0.0,0.0,0.0,0.0,0.0,0.0,0.0,0.0,0.0,0.0,0.0,0.0,0.0,0.0,0.0,0.0,0.0,0.0,0.0,0.0,0.0,0.0,0.0,0.0,0.0,0.0,0.0,0.0,0.0,0.0,0.0,0.0,0.0,0.0,0.0,0.0,0.0,0.0,0.0,0.0,0.0,0.0,0.0,0.0,0.0,0.0,0.0,0.0,0.0,0.0,0.0,0.0,0.0,0.0,0.0,0.0,0.0,0.0,0.0,0.0,0.0,0.0,0.0,0.0,0.0,0.0,0.0,0.0,0.0,0.0,0.0,0.0,0.0,0.0,0.0,0.0,0.0,0.0,0.0,0.0,0.0,0.0,0.0,0.0,0.0,0.0,0.0,0.0,0.0,0.0,0.0,0.0,0.0,0.0,0.0,0.0,-6.9066,-6.9513,-7.0206,-7.158,-7.2147,-7.2811,-7.3844,-7.4099,-7.4427,-7.4884,0.0,0.0,0.0,0.0,0.0,0.0,0.0,0.0,0.0,0.0,0.0,0.0,0.0,0.0,0.0,0.0,0.0,0.0,0.0,0.0,0.0,0.0,0.0,0.0,0.0,0.0,0.0,0.0,0.0,0.0,0.0,0.0,0.0,0.0,0.0,0.0,0.0,0.0,0.0,0.0,0.0,0.0,0.0,0.0,0.0,0.0,0.0,0.0,0.0,0.0,0.0,0.0,0.0,0.0,0.0,0.0,0.0,0.0,0.0,0.0,0.0,0.0,0.0,0.0,0.0,0.0,0.0,0.0,0.0,0.0,0.0,0.0,0.0,0.0,0.0,0.0,0.0,0.0,0.0,0.0,0.0,0.0,0.0,0.0,0.0,0.0,0.0,0.0,0.0,0.0,0.0,0.0,0.0,0.0,0.0,0.0,0.0,0.0,0.0,0.0,0.0,0.0,-7.036,-7.0602,-7.131,-7.2916,-7.322,-7.3727,-7.4833,-7.5059,-7.5343,-7.592,0.0,0.0,0.0,0.0,0.0,0.0,0.0,0.0,0.0,0.0,0.0,0.0,0.0,0.0,0.0,0.0,0.0,0.0,0.0,0.0,0.0,0.0,0.0,0.0,0.0,0.0,0.0,0.0,0.0,0.0,0.0,0.0,0.0,0.0,0.0,0.0,0.0,0.0,0.0,0.0,0.0,0.0,0.0,0.0,0.0,0.0,0.0,0.0,0.0,0.0,0.0,0.0,0.0,0.0,0.0,0.0,0.0,0.0,0.0,0.0,0.0,0.0,0.0,0.0,0.0,0.0,0.0,0.0,0.0,0.0,0.0,0.0,0.0,0.0,0.0,0.0,0.0,0.0,0.0,0.0,0.0,0.0,0.0,0.0,0.0,0.0,0.0,0.0,0.0,0.0,0.0,0.0,0.0,0.0,0.0,0.0,0.0,0.0,0.0,0.0,0.0,0.0,-7.1458,-7.2024,-7.2773,-7.3983,-7.4131,-7.4626,-7.5898,-7.6015,-7.6289,-7.6875,0.0,0.0,0.0,0.0,0.0,0.0,0.0,0.0,0.0,0.0,0.0,0.0,0.0,0.0,0.0,0.0,0.0,0.0,0.0,0.0,0.0,0.0,0.0,0.0,0.0,0.0,0.0,0.0,0.0,0.0,0.0,0.0,0.0,0.0,0.0,0.0,0.0,0.0,0.0,0.0,0.0,0.0,0.0,0.0,0.0,0.0,0.0,0.0,0.0,0.0,0.0,0.0,0.0,0.0,0.0,0.0,0.0,0.0,0.0,0.0,-5.248,-5.1518,0.0,0.0,0.0,0.0,0.0,0.0,0.0,0.0,0.0,0.0,0.0,0.0,0.0,0.0,0.0,0.0,0.0,0.0,0.0,0.0,0.0,0.0,0.0,0.0,0.0,0.0,0.0,0.0,0.0,0.0,0.0,0.0,0.0,0.0,0.0,0.0,0.0,0.0,0.0,0.0,-7.2184,-7.2822,-7.3668,-7.4879,-7.5023,-7.5523,-7.6796,-7.6914,-7.6914,-7.6914,-7.6699,0.0,0.0,0.0,0.0,0.0,0.0,0.0,0.0,0.0,0.0,0.0,0.0,0.0,0.0,0.0,0.0,0.0,0.0,0.0,0.0,0.0,0.0,0.0,0.0,0.0,0.0,0.0,0.0,0.0,0.0,0.0,0.0,0.0,0.0,0.0,0.0,0.0,0.0,0.0,0.0,0.0,0.0,0.0,0.0,0.0,0.0,0.0,0.0,0.0,0.0,0.0,0.0,0.0,0.0,0.0,0.0,0.0,0.0,0.0,-5.4409,-5.3545,0.0,0.0,0.0,0.0,0.0,0.0,0.0,0.0,0.0,0.0,0.0,0.0,0.0,0.0,0.0,0.0,0.0,0.0,0.0,0.0,0.0,0.0,0.0,0.0,0.0,0.0,0.0,0.0,0.0,0.0,0.0,0.0,0.0,0.0,0.0,0.0,0.0,0.0,0.0,0.0,-7.3559,-7.3937,-7.4553,-7.5774,-7.5934,-7.6264,-7.7148,-7.7121,-7.7,-7.6922,-7.6632,0.0,0.0,0.0,0.0,0.0,0.0,0.0,0.0,0.0,0.0,0.0,0.0,0.0,0.0,0.0,0.0,0.0,0.0,0.0,0.0,0.0,0.0,0.0,0.0,0.0,0.0,0.0,0.0,0.0,0.0,0.0,0.0,0.0,0.0,0.0,0.0,0.0,0.0,0.0,0.0,0.0,0.0,0.0,0.0,0.0,0.0,0.0,0.0,0.0,0.0,0.0,0.0,0.0,-5.5368,-5.626,-5.651,-5.7093,-5.7887,-5.8701,-5.6483,-5.5864,-5.6244,-5.4412,0.0,0.0,0.0,0.0,0.0,0.0,0.0,0.0,0.0,0.0,0.0,0.0,0.0,0.0,0.0,0.0,0.0,0.0,0.0,0.0,0.0,0.0,-6.3972,-6.461,-6.6227,-6.7325,-6.6088,0.0,0.0,0.0,0.0,0.0,0.0,0.0,0.0,0.0,0.0,0.0,-7.484,-7.4976,-7.5322,-7.6429,-7.6553,-7.6715,-7.7055,-7.6937,-7.6878,-7.6852,-7.6506,-7.6284,0.0,0.0,0.0,0.0,0.0,0.0,0.0,0.0,0.0,0.0,0.0,0.0,0.0,0.0,0.0,0.0,0.0,0.0,0.0,0.0,0.0,0.0,0.0,0.0,0.0,0.0,0.0,0.0,0.0,0.0,0.0,0.0,-4.6785,-4.6785,0.0,0.0,0.0,0.0,0.0,0.0,0.0,0.0,0.0,0.0,0.0,0.0,0.0,-4.9813,-5.227,-5.2456,-5.4357,-5.7724,-5.797,-5.8601,-5.953,-5.9631,-5.9775,-5.9852,-5.954,0.0,-5.7225,-5.6953,0.0,0.0,0.0,0.0,0.0,0.0,0.0,0.0,0.0,0.0,0.0,0.0,0.0,0.0,0.0,0.0,0.0,0.0,0.0,0.0,0.0,0.0,-6.6857,-6.6961,-6.7851,-6.8691,-6.8675,-6.877,-6.8858,-6.8883,-6.9216,-6.9687,0.0,0.0,0.0,0.0,0.0,0.0,-7.4985,-7.5476,-7.5976,-7.6284,-7.6343,-7.6432,-7.6638,-7.6645,-7.6632,-7.665,-7.6399,-7.6284,-7.6284,-7.613,0.0,0.0,0.0,0.0,0.0,0.0,0.0,0.0,0.0,0.0,0.0,0.0,0.0,0.0,0.0,0.0,0.0,0.0,0.0,0.0,0.0,0.0,0.0,0.0,0.0,0.0,0.0,0.0,0.0,-4.6356,-4.6975,-4.684,-4.6461,-4.5721,0.0,0.0,0.0,0.0,0.0,0.0,0.0,0.0,0.0,-4.9784,-5.0039,-5.1482,-5.3985,-5.4668,-5.6193,-5.8411,-5.9518,-6.0337,-6.0791,-6.1197,-6.14,-6.14,-6.14,-6.0728,-5.9522,-5.8469,-5.751,-5.6694,0.0,0.0,0.0,0.0,-5.9804,-6.129,-6.2103,-6.2152,-6.1852,-6.2326,0.0,0.0,0.0,0.0,0.0,0.0,0.0,-6.5917,-6.6374,-6.7095,-6.7784,-6.8161,-6.9014,-6.9825,-7.0001,-7.0414,-7.049,-6.9552,-7.0587,-7.1601,-7.1445,-7.2461,0.0,0.0,0.0,-7.5216,-7.5553,-7.5822,-7.613,-7.6438,-7.6442,-7.662,-7.6908,-7.6715,-7.6596,-7.6583,-7.6284,-7.613,-7.613,-7.6053,-7.6015,0.0,0.0,0.0,0.0,0.0,0.0,0.0,0.0,0.0,0.0,0.0,0.0,0.0,0.0,0.0,0.0,0.0,0.0,0.0,0.0,0.0,0.0,0.0,0.0,0.0,0.0,0.0,0.0,-4.7187,-4.7756,-4.7317,-4.7647,-4.7317,0.0,0.0,0.0,0.0,0.0,0.0,-4.9581,-4.9721,-5.0436,-5.1831,-5.2078,-5.3337,-5.5842,-5.6804,-5.7935,-5.9378,-6.0875,-6.1569,-6.1603,-6.2144,-6.2381,-6.2381,-6.2381,-6.2076,-6.1424,-5.9877,-5.9093,-5.8847,-5.7969,-5.8727,-6.0296,-6.048,-6.1601,-6.3199,-6.4043,-6.3909,-6.3548,-6.4192,-6.4044,-6.3751,-6.4427,0.0,0.0,0.0,0.0,-6.7161,-6.7681,-6.8126,-6.8599,-6.9111,-7.0098,-7.097,-7.1319,-7.1862,-7.1972,-7.0695,-7.1992,-7.3164,-7.2734,-7.3767,0.0,-7.5217,-7.5335,-7.5485,-7.5938,-7.6053,-7.6169,-7.6506,-7.6596,-7.6739,-7.701,-7.6778,-7.6584,-7.6544,-7.6245,-7.6053,-7.6015,-7.6015,-7.6015,-7.6015,0.0,0.0,0.0,0.0,0.0,0.0,0.0,0.0,0.0,0.0,0.0,0.0,0.0,0.0,0.0,0.0,0.0,0.0,0.0,0.0,0.0,0.0,0.0,0.0,0.0,0.0,0.0,0.0,0.0,-4.8838,-5.0001,0.0,0.0,0.0,0.0,-4.8945,-4.9052,-4.9687,-5.0931,-5.1609,-5.2603,-5.4032,-5.466,-5.6158,-5.8627,-5.8627,-5.9859,-6.2201,-6.2313,-6.2347,-6.2347,-6.2381,-6.2381,-6.2381,-6.2381,-6.2381,-6.2279,-6.1457,-6.0714,-6.0005,-5.9928,-6.0535,-6.1502,-6.2275,-6.3101,-6.4101,-6.4911,-6.5212,-6.5176,-6.5264,-6.557,-6.594,-6.6015,-6.6373,0.0,0.0,-6.7578,-6.7713,-6.8224,-6.9244,-7.0078,-7.0129,-7.1065,-7.2146,-7.3005,-7.32,-7.3201,-7.3125,-7.3203,-7.3555,-7.4336,0.0,-7.5476,-7.5313,-7.5851,-7.6169,-7.6015,-7.6169,-7.6284,-7.6284,-7.6475,-7.6591,-7.663,-7.6591,-7.6517,-7.6342,-7.6284,-7.6207,-7.6015,-7.6015,-7.6015,-7.6015,-7.6015,0.0,0.0,0.0,0.0,0.0,0.0,0.0,0.0,0.0,0.0,0.0,0.0,0.0,0.0,0.0,0.0,0.0,0.0,0.0,0.0,0.0,0.0,0.0,0.0,0.0,0.0,0.0,0.0,-5.0187,-5.1399,0.0,-5.0187,-5.0972,-5.164,-5.164,-5.2509,-5.3261,-5.3698,-5.3934,-5.4463,-5.5448,-5.6534,-5.7695,-5.8938,-6.0612,-6.1797,-6.2632,-6.3444,-6.3802,-6.3802,-6.3802,-6.3802,-6.3802,-6.3802,-6.3802,-6.3802,-6.3531,-6.2685,-6.1569,-6.1569,-6.2488,-6.3788,-6.4054,-6.5105,-6.6409,-6.6753,-6.6512,-6.6014,-6.5841,-6.6323,-6.7016,-6.7693,-6.8411,-6.9043,-6.9574,-6.9702,-6.9808,-7.014,-7.0618,-7.1197,-7.1866,-7.2451,-7.3086,-7.3945,-7.414,-7.4297,-7.4844,-7.4961,-7.5078,-7.539,-7.5892,-7.6217,-7.6139,-7.613,-7.6092,-7.6015,-7.6169,-7.6365,-7.6496,-7.666,-7.6799,-7.6799,-7.6651,-7.673,-7.7112,-7.7015,-7.713,-7.7592,-7.7592,-7.7592,-7.7592,-7.7592,-7.7126,0.0,0.0,0.0,0.0,0.0,0.0,0.0,0.0,0.0,0.0,0.0,0.0,0.0,0.0,0.0,0.0,0.0,0.0,0.0,0.0,0.0,0.0,0.0,0.0,0.0,-5.1148,-5.2402,-5.0933,-5.268,-5.3492,-5.1899,-5.3345,-5.4369,-5.4369,-5.5264,-5.5837,-5.5837,-5.5837,-5.6017,-5.6466,-5.7324,-5.8177,-5.9006,-6.1078,-6.2376,-6.276,-6.4052,-6.4613,-6.4613,-6.4613,-6.4613,-6.4613,-6.4613,-6.4613,-6.4613,-6.4613,-6.4245,-6.3606,-6.3606,-6.4308,-6.5389,-6.5717,-6.6644,-6.7687,-6.7687,-6.7357,-6.6875,-6.6908,-6.7382,-6.8147,-6.9049,-6.9807,-7.0501,-7.1189,-7.1321,-7.1437,-7.1964,-7.2225,-7.2515,-7.3266,-7.3574,-7.3984,-7.4844,-7.5039,-7.5269,-7.6067,-7.6067,-7.597,-7.6184,-7.643,-7.6591,-7.6514,-7.6207,-7.6015,-7.6015,-7.6169,-7.6366,-7.6576,-7.6728,-7.6945,-7.7284,-7.7132,-7.7295,-7.7968,-7.79,-7.8015,-7.8477,-7.8477,-7.8262,-7.7828,-7.7586,-7.715,-7.6385,0.0,0.0,0.0,0.0,0.0,0.0,0.0,0.0,0.0,0.0,0.0,0.0,0.0,0.0,0.0,0.0,0.0,0.0,0.0,0.0,0.0,0.0,0.0,-5.1266,-5.2108,-5.2566,-5.1099,-5.41,-5.5619,-5.4099,-5.5913,-5.7094,-5.7094,-5.7094,-5.7094,-5.7094,-5.7094,-5.7094,-5.7124,-5.7228,-5.7789,-5.9067,-6.0392,-6.1692,-6.2826,-6.412,-6.4681,-6.4681,-6.4681,-6.4681,-6.4681,-6.4681,-6.4681,-6.4681,-6.4681,-6.5221,-6.6041,-6.6046,-6.6036,-6.627,-6.7249,-6.7695,-6.776,-6.776,-6.7814,-6.7884,-6.8431,-6.9003,-6.9508,-7.003,-7.057,-7.1168,-7.2014,-7.2245,-7.2476,-7.3542,-7.3893,-7.4078,-7.4306,-7.4496,-7.4883,-7.5742,-7.5937,-7.6125,-7.6778,-7.6377,-7.6145,-7.6778,-7.6725,-7.6534,-7.6321,-7.613,0.0,-7.6015,-7.6169,-7.6405,-7.6599,-7.6606,-7.704,-7.8023,-7.7946,-7.813,-7.8792,-7.8831,-7.8784,-7.8592,-7.8592,-7.7943,-7.654,-7.5952,-7.5709,-7.5872,0.0,0.0,0.0,0.0,0.0,0.0,0.0,0.0,0.0,0.0,0.0,0.0,0.0,0.0,0.0,0.0,0.0,0.0,0.0,0.0,0.0,-5.3557,-5.461,-5.3909,-5.4992,-5.5765,-5.5419,-5.6258,-5.6721,-5.6242,-5.6765,-5.7094,-5.7094,-5.7094,-5.7094,-5.7094,-5.7094,-5.7334,-5.7812,-5.9649,-6.1022,-6.1819,-6.4096,-6.534,-6.5664,-6.6036,-6.6203,-6.6203,-6.6203,-6.6203,-6.6203,-6.6203,-6.6203,-6.6203,-6.6203,-6.6758,-6.7496,-6.6428,-6.6848,-6.8076,-6.8363,-6.8895,-6.9449,-6.9449,-6.9753,-7.0153,-7.0691,-7.1249,-7.1781,-7.2402,-7.2659,-7.286,-7.3091,-7.3245,-7.3465,-7.385,-7.4089,-7.4418,-7.525,-7.549,-7.5781,-7.664,-7.6836,-7.6867,-7.6894,-7.6726,-7.6651,-7.6691,-7.6505,-7.6379,-7.6313,-7.613,-7.6015,-7.6015,-7.6169,-7.6563,-7.7254,-7.7429,-7.7778,-7.8545,-7.8562,-7.8823,-7.9477,-7.9554,-7.9785,-8.0362,-8.04,-7.9977,-7.9095,-7.849,-7.7963,0.0,0.0,0.0,0.0,0.0,0.0,0.0,0.0,0.0,0.0,0.0,0.0,0.0,0.0,0.0,0.0,0.0,0.0,0.0,0.0,0.0,0.0,-5.5612,-5.669,-5.669,-5.6894,-5.7094,-5.7094,-5.7363,-5.7513,-5.7513,-5.7782,-5.7932,-5.7932,-5.7932,-5.7932,-5.7932,-5.7932,-5.8399,-5.9288,-6.0833,-6.2075,-6.2972,-6.4992,-6.6029,-6.6029,-6.6525,-6.6812,-6.6812,-6.6812,-6.6812,-6.6812,-6.6812,-6.6812,-6.6812,-6.6812,-6.7582,-6.8693,0.0,0.0,0.0,0.0,-6.9697,-7.0128,-7.0417,-7.0708,-7.1162,-7.1889,-7.2357,-7.2716,-7.3321,-7.3514,-7.3591,-7.4014,-7.4235,-7.4427,-7.5082,-7.5302,-7.5585,-7.6263,-7.6445,-7.6562,-7.7109,-7.7128,-7.7025,-7.682,-7.67,0.0,-7.6394,-7.6328,-7.6245,-7.6169,-7.6053,-7.6015,-7.6015,-7.6092,-7.6553,-7.7515,-7.7601,-7.8061,-7.9238,-7.9254,0.0,0.0,0.0,-8.0554,-8.1093,-8.0263,0.0,0.0,0.0,-7.7883,-7.7846,-7.5762,0.0,0.0,-7.2208,-7.142,0.0,0.0,0.0,0.0,0.0,0.0,0.0,0.0,0.0,0.0,0.0,0.0,0.0,0.0,0.0,0.0,-5.8026,-5.9099,-5.9099,-5.8082,-5.7334,-5.7334,-5.7872,-5.8231,-5.8231,-5.877,-5.9099,-5.9099,-5.9099,-5.9099,-5.9099,-5.9207,0.0,0.0,0.0,-6.1995,-6.3164,-6.4505,-6.5081,-6.5171,-6.6235,-6.6812,-6.6812,-6.6812,-6.6812,-6.6812,-6.6812,-6.6812,-6.6812,-6.6862,-6.8102,-6.9849,-6.9989,-7.0105,-7.0227,-7.036,-7.0367,-7.0441,-7.1069,0.0,0.0,-7.2548,-7.2949,-7.3089,-7.3629,-7.3822,-7.4014,-7.4928,-7.5197,-7.5466,-7.6621,-7.6927,-7.6975,-7.7165,-7.7187,-7.7187,-7.7176,-7.7032,-7.6854,-7.6591,-7.6397,-7.6245,-7.6015,-7.613,-7.6207,-7.6015,-7.6015,-7.6015,-7.6015,-7.6092,-7.6553,-7.7592,-7.763,0.0,-8.0061,-8.0054,-8.0285,-8.1054,-8.1093,-8.1093,-8.1093,-7.9244,-7.8535,-7.9198,-7.7404,-7.6778,-7.7451,-7.6123,-7.5507,-7.5507,-7.3429,-7.2404,0.0,0.0,0.0,0.0,0.0,0.0,0.0,0.0,0.0,0.0,0.0,0.0,0.0,0.0,0.0,-5.6593,-5.8026,-5.9099,-5.9099,-5.889,-5.871,-5.871,-5.883,-5.8919,-5.8919,-5.9039,-5.9099,-5.9099,-5.9099,-5.9099,-5.9099,-6.0045,-6.0712,-6.0989,-6.3036,-6.4289,-6.4505,-6.5767,-6.644,-6.644,-6.6728,0.0,-6.6812,-6.6812,-6.6812,-6.6812,-6.6812,-6.6812,-6.6896,-6.7662,-6.906,-7.0865,-7.1671,-7.1998,-7.197,-7.2034,-7.2055,-7.2132,-7.2741,-7.325,-7.3759,-7.441,-7.4949,-7.5349,-7.5485,-7.563,0.0,-7.5976,-7.6275,-7.6583,-7.6852,-7.6998,-7.7156,-7.7187,-7.7187,-7.7161,-7.6981,-7.6931,-7.6765,-7.6442,-7.6321,-7.6245,-7.6015,-7.6015,-7.6053,-7.6015,-7.6015,-7.6015,-7.6015,-7.6592,-7.7361,-7.8207,-7.89,-7.9746,-8.0823,-8.0862,-8.0939,-8.1093,-8.1093,-8.1093,-8.1093,-8.0199,-7.9533,-7.9198,-7.8932,-7.8697,-7.8369,-7.702,-7.6363,-7.6285,-7.4306,-7.2647,0.0,0.0,0.0,0.0,0.0,0.0,0.0,0.0,0.0,0.0,0.0,-5.4623,-5.5444,0.0,-5.6962,-5.7804,-5.8634,-5.9099,-5.9099,-5.9099,-5.9099,-5.9099,-5.9099,-5.9099,-5.9099,-5.9099,-5.9099,-5.9099,-5.9099,-5.9099,-5.9099,-6.0328,-6.1294,-6.1995,-6.3919,-6.5171,-6.5855,-6.6525,-6.6812,-6.6812,-6.6812,-6.6812,-6.6812,-6.6812,-6.6812,-6.6812,-6.6812,-6.6812,-6.6862,-6.8378,-6.9813,-7.1223,-7.213,-7.2496,-7.2496,-7.2496,-7.2686,-7.305,-7.3651,-7.4212,-7.4789,-7.5379,-7.5749,-7.6015,-7.6015,-7.613,-7.6332,-7.6397,-7.6662,-7.6905,-7.7015,-7.7114,-7.7187,-7.7187,-7.7187,-7.7146,-7.6919,-7.6813,-7.6659,-7.6361,-7.6207,-7.613,-7.6015,-7.6015,-7.6015,-7.6015,-7.6015,-7.6169,-7.6592,-7.7015,-7.7784,-7.9015,-7.9554,-8.0169,-8.1016,-8.1093,-8.1093,-8.1093,-8.1093,-8.0959,-8.0608,-7.9969,-7.9569,-7.9354,-7.9187,-7.8811,-7.842,-7.7548,-7.6896,-7.6327,-7.5116,-7.3625,0.0,0.0,0.0,0.0,0.0,0.0,0.0,-5.079,-5.2086,-5.2455,-5.379,-5.5327,-5.6849,-5.7187,-5.7552,-5.8882,-5.9099,-5.9099,-5.9099,-5.9099,-5.9099,-5.9099,-5.9099,-5.9099,-5.9099,-5.9099,-5.9099,-5.9099,-5.9099,-5.9207,-5.9499,-6.0743,-6.1995,-6.3355,-6.4597,-6.5734,-6.6812,-6.6812,-6.6812,-6.6812,-6.6812,-6.6812,-6.6812,-6.6812,-6.6812,-6.6812,-6.7029,-6.7325,-6.7742,-6.9349,-7.0535,-7.1448,-7.2226,-7.2496,-7.2496,-7.2496,-7.2889,-7.3492,-7.4072,-7.467,-7.5201,-7.5818,-7.6015,-7.6015,-7.6053,-7.6207,-7.6388,-7.6614,-7.6806,-7.7001,-7.7165,-7.7187,-7.7187,-7.7187,-7.7187,-7.7117,-7.6892,-7.6707,-7.6544,-7.6284,-7.6092,-7.6015,-7.6015,-7.6015,-7.6015,-7.6015,-7.613,-7.6515,-7.7207,-7.7592,-7.8284,-7.9669,-7.9939,-8.0323,-8.1054,-8.1093,-8.1093,-8.1093,-8.1093,-8.0783,-8.0125,-7.9665,-7.9478,-7.9501,-7.8983,-7.8668,-7.8457,-7.7909,-7.725,-7.6348,-7.5586,-7.4205,-4.8948,-4.954,-4.959,-4.959,-4.959,-4.959,0.0,-5.079,-5.2455,-5.379,-5.5327,-5.6962,-5.8525,-5.8852,-5.8882,-5.9099,-5.9099,-5.9099,-5.9099,-5.9099,-5.9099,-5.9099,-5.9099,-5.9099,-5.9099,-5.9099,-5.9099,-5.9099,-5.9099,-5.9576,-6.0712,-6.2094,-6.3355,-6.4688,-6.5942,-6.6643,-6.6812,-6.6812,-6.6812,-6.6812,-6.6812,-6.6812,-6.6812,-6.6812,-6.6812,-6.6812,-6.7708,-6.8986,-7.0668,-7.0865,-7.1511,-7.2343,-7.2438,-7.2496,-7.2496,-7.2496,-7.2889,-7.3492,-7.4072,-7.467,-7.5201,-7.5818,-7.6015,-7.6015,-7.6207,-7.6399,-7.6621,-7.6784,-7.7003,-7.7176,-7.7187,-7.7187,-7.7187,-7.7187,-7.7187,-7.7097,-7.6728,-7.6614,-7.6506,-7.6092,-7.6015,-7.6015,-7.6015,-7.6015,-7.6015,-7.6015,-7.6669,-7.7169,-7.7284,-7.8592,-7.9592,-7.9785,-8.0477,-8.0977,-8.1093,-8.1093,-8.1093,-8.1093,-8.1093,-8.0783,-8.0125,-8.0233,-8.003,-7.9501,-7.9406,-7.9287,-7.9287,-7.7967,-7.7285,-7.711,-7.4896,-7.2985,-4.9047,-4.959,-4.959,-4.959,-4.959,-4.959,-4.959,-5.079,-5.2455,-5.4029,-5.5676,-5.7187,-5.8743,-5.9099,-5.9099,-5.9099,-5.9099,-5.9099,-5.9099,-5.9099,-5.9099,-5.9099,-5.9099,-5.9099,-5.9099,-5.9099,-5.9099,-5.9099,-5.9758,-6.0432,-6.0989,-6.294,-6.4322,-6.4869,-6.6148,-6.6812,-6.6812,-6.6812,-6.6812,-6.6812,-6.6812,-6.6812,-6.6812,-6.6812,-6.7078,-6.7628,-6.8648,-6.9883,-7.1095,-7.1095,-7.1635,-7.2496,-7.2496,-7.2496,-7.2553,-7.2889,-7.3391,-7.4026,-7.4551,-7.5165,-7.5686,-7.5917,-7.6015,-7.6053,-7.6245,-7.643,-7.6643,-7.685,-7.7034,-7.7187,-7.7187,-7.7187,-7.7187,-7.7187,-7.7187,-7.71,-7.6702,-7.6582,-7.6476,-7.6092,-7.6015,-7.6015,-7.6015,-7.6399,-7.6746,-7.6746,-7.7053,-7.763,-7.8631,-7.9361,-7.9977,-8.0516,-8.09,-8.1093,-8.1093,-8.1093,-8.1093,-8.1093,-8.1093,-8.0838,-8.032,-8.0348,-8.039,-8.0332,-7.9699,-7.9321,-7.915,-7.7902,-7.7016,-7.6358,-7.4772,-7.3323,-4.9177,-4.959,-4.959,-4.959,-4.959,-4.959,-4.959,-5.0563,-5.1741,-5.3429,-5.4976,-5.6508,-5.8136,-5.8743,-5.9099,-5.9099,-5.9099,-5.9099,-5.9099,-5.9099,-5.9099,-5.9099,-5.9099,-5.9099,-5.9099,-5.9099,-5.9099,-5.9099,-6.0224,-6.1193,-6.1496,-6.37,-6.5081,-6.5437,-6.632,-6.6812,-6.6812,-6.6812,-6.6812,-6.6812,-6.6812,-6.6812,-6.6812,-6.6812,-6.7454,-6.8648,-6.9386,-7.04,-7.1511,-7.1511,-7.1854,-7.2496,-7.2496,-7.2496,-7.2573,-7.3341,-7.3934,-7.4379,-7.4943,-7.5518,-7.6015,-7.6015,-7.6053,-7.613,-7.6322,-7.6543,-7.673,-7.6922,-7.71,-7.7187,-7.7187,-7.7187,-7.7187,-7.7187,-7.7165,-7.7034,-7.6663,-7.6544,-7.6399,-7.6053,-7.6015,-7.6015,-7.6015,-7.6707,-7.7361,-7.7592,-7.7823,-7.8438,-7.9631,-8.0015,-8.04,-8.1016,-8.1093,-8.1093,-8.1093,-8.1093,-8.1093,-8.1093,-8.1118,-8.0964,-8.0406,-8.0704,-8.0749,-8.0575,-7.972,-7.9043,-7.8577,-7.7424,-7.6334,-7.5366,-7.4357,-7.3295,-4.959,-4.959,-4.959,-4.959,-4.959,-4.959,-4.959,-4.959,-5.0078,-5.1741,-5.3308,-5.4976,-5.648,-5.8026,-5.9099,-5.9099,-5.9099,-5.9099,-5.9099,-5.9099,-5.9099,-5.9099,-5.9099,-5.9099,-5.9099,-5.9099,-5.9099,-5.9099,-6.0224,-6.1596,-6.2908,-6.423,-6.547,-6.6728,-6.6812,-6.6812,-6.6812,-6.6812,-6.6812,-6.6812,-6.6812,-6.6812,-6.6812,-6.6812,-6.7822,-6.9637,-6.9708,-7.0734,-7.2438,-7.2438,-7.2496,-7.2496,-7.2496,-7.2496,-7.263,-7.3841,-7.4293,-7.4379,-7.4943,-7.5518,-7.6015,-7.6015,-7.613,-7.6322,-7.6544,-7.6736,-7.6944,-7.7134,-7.7187,-7.7187,-7.7187,-7.7187,-7.7187,-7.7187,-7.7064,-7.6868,-7.666,-7.6466,-7.6245,-7.6053,-7.6015,-7.6015,-7.6015,-7.6707,-7.7553,-7.8361,-7.9169,-7.9746,-7.9785,-8.0554,-8.1054,-8.1093,-8.1093,-8.1093,-8.1093,-8.1093,-8.1093,-8.1093,-8.1228,-8.1064,-8.0443,-8.1372,-8.1083,-7.9467,-7.9109,-7.8459,-7.7336,-7.6266,-7.5301,-7.4483,-7.3101,-7.2389,-4.959,-4.959,-4.959,-4.959,-4.959,-4.959,-4.959,-4.959,-5.0078,-5.1616,-5.2455,-5.3308,-5.4859,-5.6508,-5.7552,-5.7552,-5.8386,-5.9099,-5.9099,-5.9099,-5.9099,-5.9099,-5.9099,-5.9392,-6.0224,-5.9576,-5.9499,-6.0328,-6.1596,-6.2876,-6.423,-6.547,-6.632,-6.6812,-6.6812,-6.6812,-6.6812,-6.6812,-6.6812,-6.6812,-6.6812,-6.7161,-6.7708,-6.8378,-6.9386,-7.0668,-7.1323,-7.1951,-7.2496,-7.2496,-7.2496,-7.2496,-7.2496,-7.2705,-7.3224,-7.398,-7.4547,-7.4905,-7.5518,-7.5818,-7.6015,-7.6015,-7.613,-7.636,-7.6549,-7.6761,-7.6958,-7.7146,-7.7187,-7.7187,-7.7187,-7.7187,-7.7187,-7.7187,-7.7034,-7.6833,-7.6649,-7.6442,-7.6245,-7.6053,-7.6015,-7.6169,-7.6746,-7.7553,-7.8592,-8.0015,-8.0477,-8.0669,-8.0669,-8.0939,-8.1093,-8.1093,-8.1093,-8.1093,-8.1093,-8.1093,-8.1323,-8.1862,-8.1534,-8.1516,-8.2028,-8.1954,-8.1379,-8.019,-7.9429,-7.8411,-7.7336,-7.6173,-7.5335,-7.4516,-7.3444,-7.2685,-4.959,-4.959,-4.959,-4.959,-4.959,-4.959,-4.959,-4.959,-4.9822,-5.0916,-5.1616,-5.2412,-5.3579,-5.5351,-5.6623,-5.6475,-5.8161,-5.9299,-5.8926,-5.9458,-5.9817,-5.9817,-5.9817,-6.0301,-6.1629,-6.0958,-6.0971,-6.2073,-6.358,-6.4793,-6.5659,-6.6953,-6.7624,-6.7624,-6.7624,-6.7624,-6.7624,-6.7624,-6.7624,-6.7624,-6.7354,-6.7486,-6.8086,-6.8863,-6.9672,-7.0668,-7.1573,-7.2226,-7.2496,-7.2496,-7.2496,-7.2496,-7.2496,-7.2871,-7.3492,-7.4072,-7.467,-7.5201,-7.5787,-7.6015,-7.6015,-7.6015,-7.6169,-7.6426,-7.657,-7.6777,-7.7026,-7.7169,-7.7187,-7.7187,-7.7187,-7.7187,-7.7187,-7.7187,-7.7063,-7.6845,-7.6657,-7.6438,-7.6245,-7.6053,-7.6245,-7.663,-7.7207,-7.8207,-7.9438,-8.0862,-8.1093,-8.1093,-8.1093,-8.1093,-8.1093,-8.1093,-8.1093,-8.1093,-8.1093,-8.1093,-8.1337,-8.1901,-8.1611,-8.1779,-8.2509,-8.2164,-8.1379,-8.0032,-7.938,-7.8245,-7.6747,-7.6292,-7.5406,-7.4137,-7.3835,-7.2967,-4.959,-4.959,-4.959,-4.959,-4.959,-4.959,-4.959,-4.959,-4.9615,-4.964,-5.0842,-5.2075,-5.2655,-5.4948,-5.6506,-5.6083,-5.835,-5.974,-5.8755,-6.0111,-6.1104,-6.1104,-6.1104,-6.1679,-6.3065,-6.3276,-6.3618,-6.4351,-6.6086,-6.7136,-6.7229,-6.8395,-6.9113,-6.9113,-6.9113,-6.9113,-6.9113,-6.9113,-6.9113,-6.9079,-6.8335,-6.7929,-6.7946,-6.8245,-6.8833,-6.9849,-7.0734,-7.1671,-7.2496,-7.2496,-7.2496,-7.2496,-7.2496,-7.2926,-7.3541,-7.4072,-7.467,-7.5236,-7.5818,-7.6015,-7.6015,-7.6015,-7.6284,-7.658,-7.6612,-7.6903,-7.7187,-7.7187,-7.7187,-7.7187,-7.7187,-7.7187,-7.7187,-7.7187,-7.7031,-7.6828,-7.6635,-7.6429,-7.6245,-7.6092,-7.6784,-7.7438,-7.7438,-7.8784,-8.0169,-8.0977,-8.1131,-8.1093,-8.1093,-8.1093,-8.1093,-8.1093,-8.1093,-8.1093,-8.1093,-8.1131,-8.1205,-8.1345,-8.1552,-8.1758,-8.196,-8.2054,-8.116,-7.9063,-7.8903,-7.7822,-7.5709,-7.6391,-7.5566,-7.3323,-7.409,-7.3062,-4.959,-4.959,-4.959,-4.959,-4.959,-4.959,-4.959,-4.959,-4.9715,-5.0117,-5.0583,-5.0995,-5.158,-5.4244,-5.6308,-5.6126,-5.8755,-6.0783,-6.0482,-6.085,-6.1104,-6.1104,-6.1977,-6.3065,-6.4482,-6.593,-6.7388,-6.8536,-6.7645,-6.7538,-6.8573,-6.8904,-6.9113,-6.9113,-6.9113,-6.9113,-6.9113,-6.9113,-6.9113,-6.9113,-6.8876,-6.8863,-6.9038,-6.9742,-7.0345,-7.08,-7.1732,-7.2285,-7.2496,-7.2496,-7.2496,-7.2496,-7.2496,-7.3119,-7.4072,-7.4249,-7.4943,-7.5787,-7.5947,-7.6015,-7.6015,-7.6169,-7.6361,-7.665,-7.6804,-7.7014,-7.7187,-7.7187,-7.7187,-7.7187,-7.7187,-7.7187,-7.7187,-7.7187,-7.6912,-7.6663,-7.6626,-7.6311,-7.6245,-7.6861,-7.8169,-7.9208,-7.9361,-8.0285,-8.1054,-8.1285,-8.1323,-8.1246,-8.1131,-8.1093,-8.1093,-8.1093,-8.1093,-8.1093,-8.1093,-8.1631,-8.205,-8.226,-8.2468,-8.2622,-8.2817,-8.1622,-8.0366,-7.9063,-7.8161,-7.7071,-7.5709,-7.5272,-7.4424,-7.3323,-7.2935,-7.2029,-4.959,-4.959,-4.959,-4.959,-4.959,-4.9665,-4.9891,-4.9967,-5.0117,-5.067,-5.0795,-5.0971,-5.1548,-5.4171,-5.6129,-5.5898,-5.9004,-6.1386,-6.0907,-6.1486,-6.2168,-6.2779,-6.3564,-6.4779,-6.671,-6.7978,-6.9224,-7.058,-6.9568,-6.9243,-7.006,-7.006,-7.006,-7.006,-7.006,-7.006,-7.006,-7.006,-7.006,-7.006,-7.0174,-7.032,-7.0406,-7.1159,-7.1534,-7.1665,-7.2254,-7.2496,-7.2496,-7.2496,-7.2496,-7.2553,-7.2816,-7.3492,-7.4336,-7.4588,-7.5201,-7.6015,-7.6015,-7.6015,-7.6015,-7.6207,-7.643,-7.663,-7.6822,-7.7058,-7.7187,-7.7187,-7.7187,-7.7187,-7.7187,-7.7187,-7.7181,-7.7189,-7.6954,-7.6708,-7.663,-7.6662,-7.7053,-7.8169,-7.9208,-8.0092,-8.0592,-8.1154,-8.1553,-8.1553,-8.1523,-8.1439,-8.1246,-8.1131,-8.1093,-8.1093,-8.1093,-8.1093,-8.1093,-8.1551,-8.1957,-8.2152,-8.2346,-8.2573,-8.2756,-8.1364,-8.0107,-7.8983,-7.7907,-7.6747,-7.5709,-7.5236,-7.4398,-7.3355,-7.2776,-7.1963,-4.959,-4.959,-4.959,-4.959,-4.964,-4.9841,-5.0318,-5.0469,-5.0695,-5.1272,-5.1398,-5.1548,-5.2126,-5.4569,-5.6292,-5.5759,-5.9415,-6.1902,-6.0932,-6.2262,-6.3789,-6.4923,-6.5436,-6.6543,-6.8991,-6.9409,-6.9949,-7.1222,-7.1312,-7.1312,-7.1312,-7.1312,-7.1312,-7.1312,-7.1312,-7.1312,-7.1312,-7.1312,-7.1312,-7.1312,-7.171,-7.1792,-7.1735,-7.2334,-7.2467,-7.2315,-7.2546,-7.2606,-7.2496,-7.2496,-7.2496,-7.2553,-7.3172,-7.3747,-7.4379,-7.4905,-7.548,-7.6015,-7.6015,-7.6015,-7.6053,-7.6245,-7.6444,-7.6638,-7.6885,-7.7053,-7.7187,-7.7187,-7.7187,-7.7187,-7.7187,-7.7187,-7.72,-7.719,-7.707,-7.689,-7.6775,-7.7361,-7.8284,-7.9592,-8.0054,-8.0546,-8.1323,-8.1639,-8.1748,-8.1739,-8.1755,-8.1662,-8.1415,-8.127,-8.1131,-8.1093,-8.1093,-8.1093,-8.1093,-8.1343,-8.1516,-8.1613,-8.188,-8.2075,-8.2215,-8.0982,-7.9956,-7.8983,-7.7736,-7.6634,-7.5845,-7.5496,-7.4746,-7.3483,-7.3125,-7.2204,-4.959,-4.959,-4.959,-4.959,-4.9941,-5.0293,-5.0393,-5.0795,-5.1297,-5.185,-5.1975,-5.2126,-5.2678,-5.5497,-5.763,-5.7569,-6.0572,-6.2814,-6.2672,-6.3841,-6.4813,-6.5111,-6.7061,-6.8699,-6.9121,-7.0263,-7.1007,-7.1312,-7.1312,-7.1312,-7.1312,-7.1312,-7.1312,-7.1312,-7.1312,-7.1312,-7.1312,-7.1312,-7.1312,-7.1312,-7.2226,-7.2277,-7.177,-7.3476,-7.3513,-7.2351,-7.313,-7.312,-7.2496,-7.2496,-7.2496,-7.2553,-7.3172,-7.3747,-7.4379,-7.4905,-7.548,-7.6015,-7.6015,-7.6092,-7.6284,-7.6476,-7.656,-7.6663,-7.7043,-7.7178,-7.7187,-7.7187,-7.7187,-7.7187,-7.7187,-7.7187,-7.7187,-7.72,-7.7075,-7.7024,-7.7515,-7.8554,-7.9554,-7.9939,-8.0631,-8.1323,-8.1816,-8.1937,-8.1956,-8.1954,-8.197,-8.1813,-8.1445,-8.1358,-8.1285,-8.1131,-8.1093,-8.1093,-8.1093,-8.1879,-8.2167,-8.1651,-8.2457,-8.2728,-8.2251,-8.033,-7.9222,-7.8983,-7.7016,-7.6171,-7.669,-7.4719,-7.3868,-7.4282,-7.2305,-7.1148,-4.959,-4.959,-4.9665,-4.9941,-5.0218,-5.0569,-5.1172,-5.1523,-5.1875,-5.2427,-5.2528,-5.2603,-5.2879,-5.5709,-5.8005,-5.8005,-6.0899,-6.3079,-6.3079,-6.4209,-6.5328,-6.6154,-6.7974,-6.9504,-7.0263,-7.0882,-7.1312,-7.1312,-7.1312,-7.1312,-7.1312,-7.1312,-7.1312,-7.1312,-7.1312,-7.1312,-7.1312,-7.1312,-7.1312,-7.1312,-7.2797,-7.3361,-7.3089,-7.4676,-7.4742,-7.364,-7.3676,-7.323,-7.2496,-7.2496,-7.2496,-7.261,-7.3541,-7.4026,-7.4422,-7.5236,-7.5749,-7.6015,-7.6015,-7.613,-7.6332,-7.6537,-7.6682,-7.6827,-7.7122,-7.7187,-7.7187,-7.7187,-7.7187,-7.7187,-7.7187,-7.7187,-7.7187,-7.7187,-7.7284,-7.7674,-7.8758,-7.9477,-8.0092,-8.0669,-8.1278,-8.1778,-8.197,-8.2117,-8.2167,-8.2145,-8.2064,-8.1898,-8.1602,-8.1453,-8.1323,-8.1131,-8.1093,-8.1093,-8.1093,-8.1728,-8.193,-8.1603,-8.2258,-8.2297,-8.1405,-7.988,-7.874,-7.8161,-7.6508,-7.6082,-7.6893,-7.4463,-7.3707,-7.4473,-7.1994,-7.0889,-4.9741,-4.9766,-4.9916,-5.0469,-5.0695,-5.1021,-5.19,-5.2201,-5.2402,-5.2829,-5.2929,-5.2929,-5.2929,-5.5709,-5.8005,-5.8005,-6.0899,-6.3164,-6.3478,-6.4734,-6.6048,-6.747,-6.8797,-7.0043,-7.1222,-7.1312,-7.1312,-7.1312,-7.1312,-7.1312,-7.1312,-7.1312,-7.1312,-7.1312,-7.1312,-7.1312,-7.1312,-7.1312,-7.1312,-7.1312,-7.3332,-7.431,-7.4385,-7.5742,-7.5836,-7.4882,-7.4221,-7.3413,-7.2496,-7.2496,-7.2496,-7.263,-7.3841,-7.4293,-7.4422,-7.5589,-7.6015,-7.6015,-7.6053,-7.6207,-7.6398,-7.6594,-7.6792,-7.6932,-7.714,-7.7187,-7.7187,-7.7187,-7.7187,-7.7186,-7.719,-7.7173,-7.7179,-7.7286,-7.7887,-7.8746,-7.9913,-8.0315,-8.0662,-8.1362,-8.1778,-8.1985,-8.2084,-8.219,-8.2304,-8.2304,-8.2141,-8.1908,-8.1718,-8.1504,-8.1323,-8.1131,-8.1093,-8.1061,-8.0888,-8.1326,-8.1554,-8.1445,-8.1926,-8.1715,-8.0587,-7.9536,-7.8494,-7.7336,-7.6266,-7.5986,-7.6436,-7.4323,-7.3593,-7.4013,-7.1899,-7.0889,-5.0193,-5.0343,-5.0469,-5.1046,-5.1574,-5.1975,-5.2076,-5.2503,-5.2879,-5.2929,-5.2929,-5.2929,-5.2929,-5.5709,-5.8005,-5.8005,-6.0899,-6.3478,-6.4703,-6.6154,-6.747,-6.8894,-7.0263,-7.1131,-7.1312,-7.1312,-7.1312,-7.1312,-7.1312,-7.1312,-7.1312,-7.1312,-7.1312,-7.1312,-7.1312,-7.1312,-7.1312,-7.1312,-7.1312,-7.1312,-7.3332,-7.431,-7.4385,-7.6294,-7.635,-7.4918,-7.4845,-7.3927,-7.2496,-7.2496,-7.2496,-7.263,-7.3841,-7.4293,-7.4422,-7.5589,-7.6015,-7.6015,-7.6207,-7.6399,-7.6621,-7.6822,-7.6871,-7.6932,-7.714,-7.7187,-7.7187,-7.7187,-7.7187,-7.7204,-7.7207,-7.7047,-7.7084,-7.7626,-7.9104,-8.0407,-8.0381,-8.0977,-8.1624,-8.1893,-8.197,-8.2045,-8.2254,-8.2303,-8.2304,-8.2304,-8.2141,-8.1924,-8.1715,-8.1539,-8.1323,-8.1131,-8.1093,-8.0855,-8.0239,-8.1028,-8.1395,-8.0841,-8.1699,-8.1715,-8.0587,-7.9536,-7.8494,-7.7336,-7.6266,-7.5433,-7.4893,-7.3779,-7.3022,-7.2511,-7.1425,-7.0889,-5.0368,-5.067,-5.1071,-5.1624,-5.195,-5.2201,-5.2528,-5.2779,-5.3179,-5.4164,-5.4433,-5.4675,-5.5709,-5.8309,-6.007,-6.007,-6.2432,-6.445,-6.4971,-6.5868,-6.7103,-6.8452,-6.9514,-7.0356,-7.1222,-7.1312,-7.1312,-7.1312,-7.1312,-7.1312,-7.1312,-7.1312,-7.1312,-7.1312,-7.1312,-7.1312,-7.1312,-7.1312,-7.16,-7.2193,-7.365,-7.461,-7.5299,-7.6664,-7.6423,-7.4918,-7.4918,-7.4001,-7.2496,-7.2496,-7.2742,-7.3119,-7.398,-7.4506,-7.4866,-7.5686,-7.6015,-7.6015,-7.6207,-7.643,-7.6648,-7.6839,-7.6958,-7.7082,-7.7181,-7.7187,-7.7187,-7.7187,-7.7207,-7.7176,-7.7032,-7.7237,-7.7792,-7.9074,-7.9964,-8.0627,-8.106,-8.1554,-8.1893,-8.197,-8.2083,-8.2221,-8.2301,-8.2304,-8.2304,-8.2304,-8.2026,-8.1809,-8.1724,-8.14,-8.117,-8.1093,-8.1093,-8.0855,-8.0163,-8.1028,-8.1345,-8.073,-8.102,-8.0768,-7.9727,-7.8577,-7.7511,-7.6358,-7.5094,-7.4572,-7.4653,-7.2891,-7.2151,-7.2269,-7.1298,-7.0889,-5.082,-5.1222,-5.1649,-5.2201,-5.2352,-5.2452,-5.2829,-5.3291,-5.392,-5.5181,-5.5947,-5.6839,-5.8126,-6.0172,-6.1747,-6.1747,-6.3558,-6.5143,-6.5555,-6.6108,-6.6854,-6.8362,-6.8752,-6.945,-7.0817,-7.1142,-7.1312,-7.1312,-7.1312,-7.1312,-7.1312,-7.1312,-7.1312,-7.1312,-7.1312,-7.1312,-7.1312,-7.1312,-7.183,-7.2797,-7.3807,-7.483,-7.5787,-7.6856,-7.6423,-7.4918,-7.4918,-7.4001,-7.2496,-7.2496,-7.2871,-7.3492,-7.4072,-7.4629,-7.5163,-7.5787,-7.6053,-7.613,-7.6322,-7.6519,-7.671,-7.6905,-7.7081,-7.7187,-7.7187,-7.7187,-7.7186,-7.7199,-7.7331,-7.74,-7.7198,-7.7823,-7.8864,-8.0024,-8.0577,-8.1054,-8.1662,-8.1968,-8.2079,-8.2079,-8.2211,-8.2304,-8.2304,-8.2304,-8.2304,-8.2304,-8.1967,-8.1718,-8.1715,-8.1323,-8.1093,-8.1093,-8.0888,-8.0573,-7.9888,-8.0939,-8.1294,-8.0485,-8.0521,-8.0107,-7.9063,-7.7907,-7.6837,-7.5709,-7.4306,-7.3591,-7.3698,-7.2033,-7.1255,-7.1292,-7.0983,-7.0629,-5.1774,-5.2101,-5.2226,-5.2779,-5.2929,-5.2929,-5.2929,-5.4164,-5.5419,-5.5419,-5.7315,-5.9017,-5.9017,-6.0948,-6.2534,-6.2534,-6.3852,-6.5437,-6.6817,-6.7043,-6.7572,-6.8925,-6.8563,-6.8769,-7.0075,-7.0884,-7.1312,-7.1312,-7.1312,-7.1312,-7.1312,-7.1312,-7.1312,-7.1312,-7.1312,-7.1312,-7.1312,-7.1312,-7.183,-7.2797,-7.3807,-7.483,-7.5787,-7.6856,-7.6423,-7.4918,-7.4918,-7.4001,-7.2496,-7.2496,-7.2871,-7.3492,-7.4072,-7.4629,-7.5163,-7.5787,-7.613,-7.6322,-7.6544,-7.6736,-7.6929,-7.7121,-7.7198,-7.7187,-7.7187,-7.7187,-7.7204,-7.7195,-7.763,-7.8,-7.7677,-7.8977,-8.0323,-8.0161,-8.1085,-8.2009,-8.2009,-8.2139,-8.2304,-8.2304,-8.2304,-8.2304,-8.2304,-8.2304,-8.2304,-8.2304,-8.1967,-8.1718,-8.1715,-8.1323,-8.1093,-8.1093,-8.0499,-7.9888,-7.9244,-8.066,-8.1087,-7.9889,-8.0288,-8.0107,-7.9063,-7.7907,-7.6837,-7.5709,-7.4306,-7.2914,-7.142,-7.1236,-7.0465,-6.9034,-7.032,-6.9913,-5.2,-5.2377,-5.2703,-5.2879,-5.2929,-5.2929,-5.2929,-5.4164,-5.592,-5.7499,-5.9388,-6.1203,-6.2803,-6.4058,-6.4896,-6.4896,-6.5677,-6.6462,-6.7033,-6.7089,-6.7572,-6.8925,-6.9812,-7.0537,-7.0909,-7.1142,-7.1312,-7.1312,-7.1312,-7.1312,-7.1312,-7.1312,-7.1312,-7.1312,-7.1312,-7.1312,-7.1312,-7.1969,-7.2797,-7.3885,-7.483,-7.5891,-7.6856,-7.7181,-7.6423,-7.4918,-7.4918,-7.4001,-7.2553,-7.2943,-7.3492,-7.4072,-7.4632,-7.5201,-7.5756,-7.6101,-7.6245,-7.6322,-7.6698,-7.6852,-7.6943,-7.7131,-7.719,-7.7187,-7.7187,-7.719,-7.7151,-7.7032,-7.7361,-7.7869,-7.8292,-7.9208,-8.0131,-8.0669,-8.1298,-8.1814,-8.1814,-8.2065,-8.2304,-8.2304,-8.2304,-8.2304,-8.2304,-8.2304,-8.2304,-8.2304,-8.1967,-8.1718,-8.1715,-8.1323,-8.1093,-8.1093,-8.0499,-7.9847,-7.9244,-8.0305,-8.0316,-7.8831,-7.9246,-7.8983,-7.7907,-7.6747,-7.5574,-7.4306,-7.2809,-7.1388,-6.9859,-6.9791,-6.9898,-7.032,-6.9443,-6.7947,-5.2427,-5.2678,-5.2929,-5.2929,-5.2929,-5.2929,-5.2929,-5.4857,-5.7158,-5.8705,-6.1212,-6.3613,-6.5053,-6.5951,-6.637,-6.637,-6.6729,-6.7123,-6.7336,-6.7427,-6.779,-6.8638,-6.9977,-7.0783,-7.0515,-7.1007,-7.1312,-7.1312,-7.1312,-7.1312,-7.1312,-7.1312,-7.1312,-7.1312,-7.1312,-7.1457,-7.183,-7.2498,-7.3492,-7.483,-7.551,-7.633,-7.7304,-7.7304,-7.6423,-7.4918,-7.4918,-7.4001,0.0,-7.3172,-7.3747,-7.4336,-7.4905,-7.5523,-7.613,-7.6245,-7.6399,-7.6583,-7.6813,-7.6968,-7.7026,-7.7165,-7.7151,-7.71,-7.71,-7.7099,-7.7121,-7.7237,-7.763,-7.8246,-7.8977,-7.9746,-8.0477,-8.117,-8.1504,-8.1757,-8.1906,-8.212,-8.2304,-8.2304,-8.2304,-8.2304,-8.2304,-8.2304,-8.2256,-8.2201,-8.1895,-8.1679,-8.16,-8.1285,-8.0991,-8.075,-8.0125,-7.9513,-7.8914,-7.9978,-8.0,-7.8311,-7.8681,-7.8494,-7.7336,-7.6266,-7.5064,-7.3668,-7.2143,-7.0616,-6.9201,-6.903,-6.9248,-6.9781,-6.7918,-6.5949,0.0,-5.2929,-5.2929,-5.2929,-5.3067,-5.3067,-5.3092,-5.6319,0.0,-5.9256,-6.2927,-6.6011,-6.6071,-6.658,-6.6999,-6.6999,-6.6999,-6.7216,-6.7989,-6.8231,-6.82,-6.8243,-6.9514,-6.9942,-6.9283,-7.0482,-7.1312,-7.1312,-7.1312,-7.1312,-7.1312,-7.1312,-7.1312,-7.1312,-7.1312,-7.1742,-7.2797,-7.288,-7.385,-7.5787,-7.5891,-7.6396,-7.7304,-7.7268,-7.6387,-7.4918,-7.4845,-7.3927,-7.2573,-7.3224,-7.3794,-7.4422,-7.4943,-7.5633,-7.6313,-7.6303,-7.6573,-7.689,-7.6927,-7.7034,-7.7187,-7.7184,-7.7064,-7.689,-7.689,-7.6929,-7.7083,-7.763,-7.8292,-7.9015,-7.9631,-8.0439,-8.1208,-8.1593,-8.1693,-8.1813,-8.2176,-8.2303,-8.2304,-8.2304,-8.2304,-8.2304,-8.2304,-8.2303,-8.2201,-8.2024,-8.184,-8.162,-8.1415,-8.1177,-8.0783,-8.0163,-7.9513,-7.8865,-7.8272,-7.9596,-7.9781,-7.8205,-7.8604,-7.8411,-7.7248,-7.6173,-7.4835,-7.3464,-7.1929,-7.0424,-6.9178,-6.906,-6.8673,-6.8025,-6.6062,-6.421,-5.2929,0.0,-5.2929,-5.2929,-5.3784,-5.4913,0.0,-5.8392,-6.1222,-6.2193,-6.4341,-6.6161,-6.667,-6.6879,-6.6999,-6.6999,-6.6999,-6.7216,-6.7989,-6.8977,-6.9542,-6.9059,-7.0215,-7.0556,-6.9313,-7.0482,-7.1312,-7.1312,-7.1312,-7.1312,-7.1312,-7.1312,-7.1312,-7.1312,-7.1312,-7.1742,-7.2797,-7.3571,-7.4535,-7.5787,-7.6563,-7.7082,-7.7304,-7.668,-7.5836,-7.4882,-7.4258,-7.3683,-7.3224,-7.3841,-7.4384,-7.498,-7.5551,-7.6002,-7.6332,-7.6475,-7.6676,-7.6943,-7.7065,-7.7169,-7.7178,-7.6998,-7.6932,-7.689,-7.6736,-7.7015,-7.7476,-7.763,-7.8592,-7.9592,-7.9785,-8.0439,-8.117,-8.14,-8.1581,-8.1757,-8.2011,-8.2179,-8.2304,-8.2304,-8.2304,-8.2304,-8.2304,-8.2156,-8.2058,-8.2032,-8.1697,-8.1456,-8.1393,-8.0758,-8.0277,-8.0125,-7.9152,-7.8106,-7.7223,-7.8163,-7.8273,-7.6996,-7.7451,-7.7248,-7.6114,-7.4835,-7.3361,-7.1961,-6.9317,-6.8122,-6.8303,-6.8835,-6.8436,-6.7363,-6.5838,-6.421,-5.2929,-5.2929,-5.2929,-5.2929,-5.437,-5.5894,-5.6345,-5.9561,-6.2649,-6.3342,-6.5058,-6.658,-6.6939,-6.6759,-6.664,-6.6939,-6.7034,-6.7372,-6.8419,-6.9029,-6.9349,-6.9647,-7.0054,-7.0263,-7.0136,-7.0882,-7.1312,-7.1312,-7.1312,-7.1312,-7.1312,-7.1312,-7.1312,-7.1312,-7.1776,-7.2414,-7.3492,-7.4005,-7.5084,-7.6498,-7.7019,-7.7304,-7.7304,-7.646,-7.5652,-7.4882,-7.431,-7.3808,-7.3492,-7.4299,-7.4866,-7.5201,-7.5864,-7.6245,-7.6457,-7.6653,-7.6846,-7.7064,-7.7169,-7.714,-7.7034,-7.6945,-7.6775,-7.6698,-7.6976,-7.7515,-7.8015,-7.813,-7.8938,-7.99,-8.0285,-8.0746,-8.117,-8.1477,-8.1624,-8.1797,-8.2059,-8.2226,-8.2304,-8.2304,-8.2226,-8.2153,-8.2153,-8.2009,-8.1826,-8.1732,-8.1516,-8.126,-8.0869,-8.0391,-7.9888,-7.9335,-7.8704,-7.7755,-7.6464,-7.7018,-7.6956,-7.5895,-7.6729,-7.6531,-7.4835,-7.4005,-7.2632,-7.0392,-6.8206,-6.7298,-6.7956,-6.7826,-6.7057,-6.5718,-6.4511,-6.2951,-5.2929,-5.3042,-5.3179,-5.303,-5.4925,-5.6851,-5.7037,-6.0588,-6.3922,-6.4009,-6.566,-6.6969,-6.6849,-6.646,-6.6311,-6.6759,-6.7102,-6.7841,-6.9116,-6.8924,-6.9015,-6.9911,-6.9676,-6.9949,-7.0882,-7.1188,-7.1312,-7.1312,-7.1312,-7.1312,-7.1312,-7.1457,-7.1546,-7.1546,-7.2498,-7.3492,-7.4535,-7.4535,-7.544,-7.7304,-7.7304,-7.7268,-7.7121,-7.6276,-7.5529,-7.4801,-7.4545,-7.4126,-7.3709,-7.4711,-7.5165,-7.5383,-7.6048,-7.6438,-7.6698,-7.6852,-7.7032,-7.7187,-7.7172,-7.7019,-7.689,-7.6852,-7.6583,-7.6438,-7.7284,-7.8015,-7.8554,-7.89,-7.9477,-8.0169,-8.09,-8.1131,-8.1246,-8.1593,-8.1746,-8.1842,-8.2217,-8.2304,-8.2304,-8.2304,-8.2137,-8.2009,-8.2009,-8.1809,-8.1579,-8.1445,-8.1292,-8.0941,-8.0201,-7.9929,-7.9425,-7.8379,-7.8053,-7.7289,-7.5682,-7.5996,-7.5814,-7.4826,-7.6031,-7.5594,-7.2985,-7.2946,-7.1637,-6.8883,-6.7668,-6.7115,-6.7403,-6.6403,-6.5227,-6.3629,-6.2698,-6.1288,-5.2929,-5.392,-5.4779,-5.3847,-5.6103,-5.8906,-5.9924,-6.2934,-6.5766,-6.6332,-6.6786,-6.6819,-6.6251,-6.652,-6.67,-6.6221,-6.7652,-6.9052,-6.9908,-7.0486,-7.043,-6.9478,-7.033,-7.0574,-6.9633,-7.0574,-7.1312,-7.1312,-7.1312,-7.1312,-7.1312,-7.2142,-7.2582,-7.2582,-7.3571,-7.4535,-7.558,-7.558,-7.6197,-7.7304,-7.7304,-7.6937,-7.6276,-7.5469,-7.4937,-7.4614,-7.3899,-7.4056,-7.4828,-7.5054,-7.5489,-7.6117,-7.6245,-7.6544,-7.6852,-7.689,-7.7032,-7.7181,-7.7002,-7.6931,-7.6852,-7.6506,-7.6322,-7.6438,-7.713,-7.79,-7.8669,-7.9438,-8.0246,-8.0939,-8.1054,-8.1208,-8.14,-8.1662,-8.1831,-8.2026,-8.2242,-8.2304,-8.2304,-8.2304,-8.2137,-8.2009,-8.2009,-8.1677,-8.1436,-8.1393,-8.0761,-8.024,-8.0125,-7.9198,-7.8484,-7.8309,-7.7047,-7.5751,-7.461,-7.4973,-7.4826,-7.381,-7.3964,-7.2848,-6.9973,-6.9859,-6.9085,-6.7305,-6.7091,-6.6352,-6.4839,-6.5218,-6.3931,-6.1092,-6.1503,-6.0898,-5.4055,-5.5017,-5.608,-5.6371,-5.8372,-6.0454,-6.102,-6.3386,-6.5652,-6.6311,-6.646,-6.637,-6.6071,-6.5951,-6.6128,-6.6579,-6.8026,-6.9335,-7.0075,-6.9813,-6.9616,-6.968,-6.996,-7.017,-7.0356,-7.0882,-7.1312,-7.1312,-7.183,-7.2142,-7.2142,-7.3044,-7.365,-7.365,-7.461,-7.5369,-7.5787,-7.633,-7.6856,-7.7304,-7.6864,-7.646,-7.6056,-7.4808,-7.4366,-7.4583,-7.4121,-7.4341,-7.5127,-7.5446,-7.5864,-7.6303,-7.6436,-7.6635,-7.6893,-7.6912,-7.6942,-7.7026,-7.6787,-7.6673,-7.6544,-7.6361,-7.6207,-7.6361,-7.7592,-7.8207,-7.8784,-8.0131,-8.0785,-8.1093,-8.1093,-8.1246,-8.1445,-8.163,-8.1837,-8.2058,-8.2276,-8.2304,-8.225,-8.2153,-8.199,-8.1799,-8.1685,-8.1439,-8.1246,-8.1246,-8.0611,-7.9969,-7.9642,-7.8853,-7.7942,-7.7047,-7.6221,-7.5192,-7.365,-7.4434,-7.4611,-7.3666,-7.2864,-7.1497,-6.9317,-6.8413,-6.7638,-6.6999,-6.6044,-6.5105,-6.4281,-6.2878,-6.1732,-6.0553,-6.0127,-5.9845,-5.5206,-5.6583,-5.7879,-5.9339,-6.0778,-6.1862,-6.1718,-6.3495,-6.5353,-6.5712,-6.5772,-6.5772,-6.5772,-6.5592,-6.5971,-6.7419,-6.862,-6.9594,-7.0367,-6.955,-6.9351,-7.0364,-6.9964,-7.017,-7.1222,-7.1312,-7.1401,-7.16,-7.2364,-7.288,-7.309,-7.4082,-7.461,-7.461,-7.5649,-7.6088,-7.5907,-7.6664,-7.7047,-7.7011,-7.6387,-7.5909,-7.5506,-7.4396,-7.4162,-7.4537,-7.4513,-7.4789,-7.534,-7.5856,-7.6169,-7.638,-7.6591,-7.6807,-7.698,-7.6932,-7.689,-7.6861,-7.6612,-7.6421,-7.6284,-7.6245,-7.613,-7.6322,-7.7977,-7.8515,-7.89,-8.0669,-8.1208,-8.1208,-8.117,-8.1323,-8.1581,-8.1734,-8.1907,-8.2087,-8.2289,-8.2246,-8.2194,-8.2052,-8.1799,-8.1575,-8.1445,-8.1208,-8.1061,-8.0888,-8.0315,-7.9642,-7.9058,-7.8484,-7.7481,-7.5923,-7.558,-7.4642,-7.2622,-7.3494,-7.3628,-7.2679,-7.1497,-7.0199,-6.8766,-6.7668,-6.6846,-6.6322,-6.4978,-6.3894,-6.3084,-6.0696,-5.962,-5.9789,-5.8981,-5.8805,-5.6079,-5.8705,-6.1356,-6.2054,-6.2784,-6.3198,-6.2467,-6.4141,-6.5772,-6.5203,-6.5114,-6.5114,-6.5114,-6.6138,-6.743,-6.8691,-6.9566,-7.0334,-7.1084,-7.1199,-7.1074,-7.1199,-7.1131,-7.1222,-7.1312,-7.1312,-7.1688,-7.2666,-7.2714,-7.3171,-7.4158,-7.5156,-7.5718,-7.5718,-7.6628,-7.6814,-7.6106,-7.6166,-7.6203,-7.6203,-7.613,-7.5322,-7.3912,-7.4364,-7.4473,-7.4325,-7.4828,-7.5379,-7.5947,-7.6169,-7.6399,-7.6621,-7.6794,-7.6998,-7.7148,-7.6958,-7.689,-7.6852,-7.6486,-7.6303,-7.6245,-7.6092,-7.6015,-7.6322,-7.7977,-7.8661,-7.9161,-8.0862,-8.1516,-8.1593,-8.1439,-8.1701,-8.1932,-8.1955,-8.2147,-8.2261,-8.2304,-8.2162,-8.2015,-8.2001,-8.1693,-8.1415,-8.1393,-8.1208,-8.0888,-8.0277,-7.9642,-7.9058,-7.8432,-7.7768,-7.6983,-7.5959,-7.4976,-7.3624,-7.1552,-7.149,-7.1005,-6.9537,-6.9432,-6.8649,-6.7213,-6.7121,-6.6168,-6.4567,-6.441,-6.2661,-5.9322,-5.9096,-5.833,-5.7246,-5.7675,-5.8252,-5.8851,-6.0563,-6.1877,-6.3675,-6.4597,-6.4803,-6.359,-6.407,-6.4814,-6.4994,-6.4695,-6.4395,-6.4395,-6.5942,-6.7335,-6.786,-6.9616,-7.1002,-7.1255,-7.1312,-7.1312,-7.1312,-7.1312,-7.1312,-7.1312,-7.183,-7.2364,-7.2797,-7.3928,-7.483,-7.5192,-7.6197,-7.6728,-7.6728,-7.6606,-7.6423,-7.6093,-7.5616,-7.5102,-7.4588,-7.4588,-7.4454,-7.4236,-7.3997,-7.4197,-7.4828,-7.5017,-7.5523,-7.6169,-7.6245,-7.6506,-7.6822,-7.7003,-7.7068,-7.7,-7.6769,-7.6645,-7.6506,-7.6207,-7.6092,-7.6092,-7.6015,-7.6015,-7.6322,-7.7977,-7.8661,-7.9161,-8.09,-8.1662,-8.1831,-8.1662,-8.1775,-8.2009,-8.2009,-8.2162,-8.2304,-8.2304,-8.2154,-8.197,-8.1855,-8.1593,-8.1362,-8.1208,-8.0788,-8.0389,-8.0163,-7.9244,-7.8357,-7.7435,-7.68,-7.5718,-7.4082,-7.2621,-7.1656,-7.1293,-7.0083,-6.9272,-6.9255,-6.9201,-6.8531,-6.7091,-6.5919,-6.4978,-6.4281,-6.2131,-6.0264,-5.8903,-5.7824,-5.7175,-5.7047,-5.7248,-5.7851,-6.0641,-6.2,-6.3051,-6.4636,-6.5533,-6.5652,-6.4306,-6.4156,-6.4336,-6.4395,-6.4186,-6.4006,-6.4006,-6.595,-6.7516,-6.7516,-6.9607,-7.1312,-7.1312,-7.1312,-7.1312,-7.1312,-7.1312,-7.1367,-7.1776,-7.2448,-7.3009,-7.3694,-7.5048,-7.5851,-7.5901,-7.6554,-7.6827,-7.657,-7.6019,-7.5616,-7.5322,-7.4808,-7.4191,-7.3572,-7.3572,-7.3811,-7.4211,-7.4019,-7.4346,-7.5127,-7.5306,-7.5731,-7.6313,-7.6379,-7.6637,-7.7019,-7.7067,-7.7015,-7.6871,-7.6588,-7.6436,-7.6245,-7.6053,-7.6015,-7.6015,-7.6015,-7.6015,-7.6322,-7.8054,-7.8738,-7.9315,-8.1085,-8.1855,-8.2053,-8.194,-8.1988,-8.2083,-8.2083,-8.2201,-8.2304,-8.2304,-8.2104,-8.1876,-8.1732,-8.1477,-8.1215,-8.0822,-8.0389,-7.9969,-7.9556,-7.8853,-7.7868,-7.6617,-7.6082,-7.5048,-7.3009,-7.1194,-7.0272,-7.0558,-6.9051,-6.8259,-6.85,-6.8531,-6.8087,-6.6999,-6.5232,-6.4024,-6.3476,-6.0401,-5.8648,-5.8108,-5.675,-5.642,-5.6771,-5.6947,-5.7449,-6.1315,-6.3231,-6.5024,-6.5024,-6.5533,-6.5652,-6.4306,-6.4515,-6.4635,-6.3348,-6.3558,-6.4006,-6.3977,-6.6354,-6.8147,-6.8252,-6.9938,-7.1312,-7.1312,-7.1312,-7.1312,-7.1312,-7.1312,-7.1688,-7.2714,-7.2797,-7.3615,-7.5649,-7.5787,-7.5901,-7.6069,-7.6093,-7.5726,-7.4955,-7.4918,-7.4515,-7.3707,-7.367,-7.3591,-7.3391,-7.3391,-7.3442,-7.3492,-7.4591,-7.5091,-7.5127,-7.5718,-7.613,-7.6303,-7.6516,-7.6847,-7.7183,-7.6975,-7.689,-7.6852,-7.6438,-7.6284,-7.6245,-7.6053,-7.6015,-7.6015,-7.6015,-7.6015,-7.6361,-7.8237,-7.8968,-7.9584,-8.147,-8.2124,-8.2309,-8.2309,-8.2303,-8.2304,-8.2304,-8.2304,-8.2304,-8.2304,-8.1984,-8.1698,-8.1697,-8.1362,-8.0888,-8.0201,-8.0125,-7.9685,-7.8484,-7.8309,-7.7678,-7.5991,-7.5718,-7.4976,-7.2962,-7.1228,-6.9873,-6.9212,-6.8531,-6.7825,-6.7061,-6.6999,-6.6999,-6.6999,-6.5232,-6.3476,-6.1595,-5.9851,-5.7966,-5.6219,-5.6219,-5.6219,-5.6219,-5.6771,-5.7022,-6.3384,-6.3832,0.0,-6.5383,-6.5144,-6.4485,-6.4096,-6.4156,-6.4066,-6.3258,-6.3558,-6.4176,-6.4657,-6.6255,-6.7824,-6.873,-7.0209,-7.1312,-7.1312,-7.1312,-7.1312,-7.1312,-7.1312,-7.1688,-7.2714,-7.3412,-7.4173,-7.4893,-7.5625,-7.5812,-7.5285,-7.5285,-7.5175,-7.4918,-7.4368,-7.3927,-7.3707,-7.3517,-7.3447,-7.3391,-7.4174,-7.4591,-7.4632,-7.498,-7.5306,-7.5718,-7.6071,-7.6322,-7.6553,-7.6894,-7.71,-7.7183,-7.6975,-7.6813,-7.6659,-7.6399,-7.6207,-7.6092,-7.6015,-7.6015,-7.6015,-7.6015,-7.6015,-7.6361,-7.8237,-7.8979,-7.958,-8.1466,-8.2164,-8.2309,-8.2309,-8.2315,-8.2304,-8.2304,-8.2304,-8.2304,-8.2304,-8.1984,-8.1698,-8.1697,-8.1362,-8.0888,-8.0201,-7.9765,-7.9198,-7.8432,-7.7289,-7.5851,-7.3928,-7.3125,-7.2245,-7.1077,-7.0041,-6.9138,-6.8482,-6.7739,-6.7216,-6.6969,-6.5764,-6.5105,-6.5105,-6.3346,-6.1595,-5.9712,-5.7966,-5.675,-5.6219,-5.6219,-5.6219,-5.6219,-5.6369,-5.6671,-6.3771,-6.3857,0.0,-6.4605,-6.4425,-6.3947,-6.3677,-6.3617,-6.3528,-6.3139,-6.3378,-6.393,-6.4875,-6.6259,-6.7673,-6.8991,-7.0356,-7.1312,-7.1312,-7.1312,-7.1312,-7.1312,-7.1688,-7.2176,-7.2833,-7.385,-7.451,-7.4667,-7.5274,-7.5285,-7.4478,-7.4441,-7.4294,-7.3964,-7.3487,-7.3366,-7.3573,-7.3447,-7.3651,-7.4079,-7.479,-7.5236,-7.5446,-7.5446,-7.5686,-7.6044,-7.6276,-7.6521,-7.6734,-7.7059,-7.7187,-7.7186,-7.7001,-7.6815,-7.6698,-7.6399,-7.6207,-7.613,-7.613,-7.613,-7.613,-7.6207,-7.6245,-7.6515,-7.8083,-7.8915,-7.9582,-8.1174,-8.1948,-8.2304,-8.2304,-8.2304,-8.2304,-8.2304,-8.2304,-8.2297,-8.2201,-8.1934,-8.1659,-8.162,-8.1118,-8.0499,-7.9847,-7.9244,-7.8513,-7.7467,-7.5747,-7.4158,-7.2962,-7.1464,-7.0437,-7.0206,-6.9037,-6.8265,-6.8148,-6.7395,-6.6723,-6.5919,-6.4949,-6.3606,-6.2264,-6.1056,-5.9989,-5.8903,-5.7159,-5.6219,-5.6219,-5.6219,-5.6219,-5.6219,-5.6219,-5.6394,-6.3139,-6.3528,0.0,-6.3288,-6.3528,-6.3767,-6.3199,-6.3079,-6.3079,-6.3079,-6.3079,-6.3592,-6.5032,-6.6365,-6.7673,-6.9121,-7.0482,-7.1312,-7.1312,-7.1312,-7.1278,-7.121,-7.209,-7.2753,-7.2957,-7.3938,-7.4566,-7.4785,-7.4808,-7.4441,-7.3634,-7.3597,-7.3288,-7.261,-7.261,-7.2871,-7.3492,-7.3504,-7.4079,-7.5091,-7.5163,-7.5446,-7.6015,-7.6015,-7.6015,-7.6111,-7.6419,-7.673,-7.6958,-7.7114,-7.7187,-7.7187,-7.6992,-7.6905,-7.6854,-7.6465,-7.6303,-7.6322,-7.6322,-7.6342,-7.636,-7.6553,-7.6591,-7.6784,-7.7872,-7.8758,-7.9636,-8.0704,-8.164,-8.2304,-8.2304,-8.2304,-8.2304,-8.2297,-8.2256,-8.2218,-8.203,-8.1833,-8.1601,-8.1377,-8.0652,-7.9888,-7.9244,-7.8653,-7.7678,-7.5887,-7.4005,-7.2714,-7.2548,-7.0623,-6.9483,-6.9878,-6.8318,-6.7415,-6.7981,-6.7275,-6.6044,-6.441,-6.4024,-6.2264,-5.9043,-5.8903,-5.8763,-5.8648,-5.7014,-5.6219,-5.6219,-5.6219,-5.6219,-5.6219,-5.6219,-5.6219,0.0,-6.3558,0.0,0.0,-6.3528,-6.3228,-6.3109,-6.3079,-6.3079,-6.3079,-6.3079,-6.3902,-6.6259,-6.6958,-6.8007,-7.0482,-7.1098,-7.1312,-7.1312,-7.1312,-7.1109,-7.05,-7.125,-7.1907,-7.218,-7.3114,-7.3732,-7.3942,-7.3964,-7.3597,-7.2789,-7.2753,-7.289,-7.3224,-7.3224,-7.3492,-7.4117,-7.4509,-7.4867,-7.5091,-7.5584,-7.5848,-7.6015,-7.6015,-7.6169,-7.6496,-7.6536,-7.6816,-7.714,-7.7183,-7.7187,-7.7187,-7.6992,-7.6905,-7.688,-7.6645,-7.6521,-7.6544,-7.6544,-7.6543,-7.6514,-7.6591,-7.6591,-7.6808,-7.7857,-7.8758,-7.9636,-8.0704,-8.164,-8.2304,-8.2304,-8.2304,-8.2242,-8.2125,-8.2056,-8.2058,-8.1993,-8.1706,-8.13,-8.0735,-8.0354,-7.9765,-7.8653,-7.8416,-7.743,-7.5012,-7.3536,-7.209,-7.0189,-6.9968,-6.9412,-6.7918,-6.7866,-6.7696,-6.7276,-6.5801,-6.4694,-6.4281,-6.1595,-5.9712,-5.8903,-5.8903,-5.8224,-5.675,-5.634,-5.6219,-5.6219,-5.6219,-5.6219,-5.6219,-5.6219,-5.6219,0.0,0.0,0.0,-6.3468,0.0,-6.3079,-6.3079,-6.3079,-6.3079,-6.3079,-6.3079,-6.3902,-6.6647,-6.7164,-6.8107,-7.0882,-7.1312,-7.1312,-7.1312,-7.1007,-7.0778,-7.0824,-7.1423,-7.188,-7.212,-7.2965,-7.341,-7.3135,-7.312,-7.3072,-7.2926,-7.2943,-7.3224,-7.3794,-7.3841,-7.4117,-7.471,-7.498,-7.5271,-7.5551,-7.5848,-7.6015,-7.6015,-7.6015,-7.6207,-7.6611,-7.6575,-7.6839,-7.7187,-7.7187,-7.7187,-7.7187,-7.707,-7.7031,-7.703,-7.6828,-7.6749,-7.6738,-7.6726,-7.6752,-7.6749,-7.6877,-7.6872,-7.7012,-7.7559,-7.8318,-7.9182,-8.0105,-8.1015,-8.1758,-8.2187,-8.2304,-8.2271,-8.2045,-8.2009,-8.197,-8.1778,-8.1554,-8.1195,-8.043,-7.992,-7.938,-7.8432,-7.7252,-7.5742,-7.3815,-7.2749,-7.1512,-6.9871,-6.9451,-6.8845,-6.7641,-6.7335,-6.7031,-6.7061,-6.5358,-6.3894,-6.3084,-6.0401,-5.8507,-5.7707,-5.7564,-5.7159,-5.6219,-5.6219,-5.6219,-5.6219,-5.6219,-5.6219,-5.6219,-5.6219,-5.6219,0.0,0.0,-6.3079,-6.3079,-6.3079,0.0,-6.3079,-6.3079,-6.3079,-6.3079,-6.3079,-6.3902,-6.6647,-6.7164,-6.8107,-7.0882,-7.1312,-7.1278,-7.1142,-7.0567,-7.0463,-7.1097,-7.1546,-7.1873,-7.2011,-7.2899,-7.323,-7.2569,-7.2496,-7.2761,-7.3391,-7.3391,-7.3699,-7.4422,-7.4464,-7.471,-7.5271,-7.5271,-7.5518,-7.6015,-7.6015,-7.6015,-7.6053,-7.6053,-7.6245,-7.6611,-7.6651,-7.6877,-7.7187,-7.7187,-7.7187,-7.7187,-7.7187,-7.7187,-7.7187,-7.6992,-7.6953,-7.6946,-7.6962,-7.693,-7.6996,-7.7151,-7.7187,-7.7187,-7.7187,-7.7812,-7.8672,-7.9453,-8.0312,-8.1211,-8.207,-8.2304,-8.2237,-8.2003,-8.1946,-8.1855,-8.1477,-8.126,-8.0941,-8.0086,-7.938,-7.8666,-7.7961,-7.5846,-7.3928,-7.2962,-7.1796,-7.0657,-7.001,-6.8763,-6.7995,-6.7742,-6.6761,-6.64,-6.6939,-6.5105,-6.3215,-6.173,-5.9574,-5.7681,-5.6219,-5.6219,-5.6219,-5.6219,-5.6219,-5.6219,-5.6219,-5.6219,-5.6219,-5.6219,-5.6219,-5.6219,0.0,0.0,-6.3079,0.0,-6.3079,-6.3079,-6.3079,-6.3079,-6.3079,-6.3079,-6.3079,-6.3902,-6.6647,-6.7164,-6.8107,-7.0882,-7.1312,-7.1075,-7.0432,-7.0263,-7.0089,-6.9727,-7.0424,-7.1054,-7.1247,-7.2097,-7.2606,-7.2496,-7.2496,-7.2761,-7.3391,-7.3391,-7.3897,-7.498,-7.5017,-7.5271,-7.5848,-7.5887,-7.5917,-7.6015,-7.6015,-7.6092,-7.6245,-7.6245,-7.6361,-7.6621,-7.6784,-7.6993,-7.7187,-7.7187,-7.7187,-7.7187,-7.7187,-7.7187,-7.7187,-7.7187,-7.7148,-7.7148,-7.7176,-7.7165,-7.7172,-7.7187,-7.7187,-7.7187,-7.7187,-7.7812,-7.8672,-7.9453,-8.0312,-8.1211,-8.207,-8.2304,-8.2214,-8.1827,-8.1722,-8.1701,-8.1439,-8.0796,-8.0086,-7.9425,-7.8341,-7.7255,-7.6323,-7.512,-7.3928,-7.2962,-7.0951,-6.9287,-6.857,-6.7729,-6.7002,-6.6372,-6.6642,-6.6879,-6.6969,-6.3894,-6.1864,-6.1595,-5.8366,-5.6485,-5.6219,-5.6219,-5.6219,-5.6219,-5.6219,-5.6219,-5.6219,-5.6219,-5.6219,-5.6219,-5.6219,-5.6219,-6.2817,-6.3079,-6.3079,0.0,-6.3079,-6.3079,-6.3079,-6.3079,-6.3079,-6.3079,-6.3079,-6.3706,-6.562,-6.6647,-6.7874,-6.9855,-7.0421,-7.0567,-7.0229,-6.9451,-6.9252,-7.0056,-7.0162,-7.0621,-7.1769,-7.2285,-7.2496,-7.2496,-7.2816,-7.3275,-7.3888,-7.4212,-7.4711,-7.5584,-7.5584,-7.5718,-7.6015,-7.6015,-7.6053,-7.6169,-7.6053,-7.6092,-7.6313,-7.6436,-7.6582,-7.6775,-7.6852,-7.7019,-7.7187,-7.7187,-7.7187,-7.7187,-7.7187,-7.7187,-7.7187,-7.7187,-7.7187,-7.7187,-7.7187,-7.7187,-7.7187,-7.7187,-7.7187,-7.7187,-7.7187,-7.7461,-7.7969,-7.8789,-7.9648,-8.0469,-8.1367,-8.1859,-8.2042,-8.1781,-8.16,-8.1375,-8.0835,-8.0353,-7.9847,-7.8902,-7.7503,-7.613,-7.512,-7.4158,-7.3125,-7.2142,-7.0716,-6.9451,-6.8837,-6.806,-6.7365,-6.6582,-6.6819,-6.657,-6.5639,-6.3084,-6.1191,-6.0127,-5.7707,-5.6219,-5.6219,-5.6219,-5.6219,-5.6219,-5.6219,-5.6219,-5.6219,-5.6219,-5.6219,-5.6219,-5.6219,-5.6219,-6.2672,0.0,-6.3079,-6.3079,-6.3079,-6.3079,-6.3079,-6.3079,-6.3079,-6.3079,-6.3079,-6.3394,-6.4401,-6.5728,-6.71,-6.8665,-6.931,-6.9637,-6.9654,-6.8639,-6.848,-6.9972,-6.9883,-7.0332,-7.2011,-7.2343,-7.2496,-7.2496,-7.3066,-7.3651,-7.4249,-7.4828,-7.5379,-7.5976,-7.6015,-7.6015,-7.6015,-7.6015,-7.6092,-7.6207,-7.613,-7.6169,-7.639,-7.6588,-7.6785,-7.6971,-7.6985,-7.7053,-7.7187,-7.7187,-7.7187,-7.7187,-7.7187,-7.7187,-7.7187,-7.7187,-7.7187,-7.7187,-7.7187,-7.7187,-7.7187,-7.7187,-7.7187,-7.7187,-7.7187,-7.7187,-7.7383,-7.8242,-7.9062,-7.9881,-8.0726,-8.1466,-8.1928,-8.1674,-8.1374,-8.0915,-8.0085,-7.9765,-7.9252,-7.7924,-7.6674,-7.544,-7.4158,-7.3332,-7.2329,-7.094,-7.0166,-6.9404,-6.8647,-6.7971,-6.7356,-6.7031,-6.657,-6.5764,-6.441,-6.2264,-6.0401,-5.9043,-5.7159,-5.6219,-5.6219,-5.6219,-5.6219,-5.6219,-5.6219,-5.6219,-5.6219,-5.6219,-5.6219,-5.6219,-5.6219,-5.6219,-6.2672,-6.3079,0.0,-6.3079,-6.3079,-6.3079,-6.3079,-6.3079,-6.3079,-6.3079,-6.3079,-6.3079,-6.3194,-6.432,-6.5827,-6.7816,-6.8163,-6.8135,-6.8027,-6.7963,-6.8012,-6.8284,-6.913,-7.0127,-7.1095,-7.2011,-7.2496,-7.2496,-7.3066,-7.3651,-7.4249,-7.4828,-7.5379,-7.5976,-7.6015,-7.6015,-7.6015,-7.6015,-7.6015,-7.6015,-7.6207,-7.6361,-7.6583,-7.6765,-7.6978,-7.7166,-7.7185,-7.7186,-7.7187,-7.7187,-7.7187,-7.7187,-7.7187,-7.7187,-7.7187,-7.7187,-7.7187,-7.7187,-7.7187,-7.7187,-7.7187,-7.7187,-7.7187,-7.7187,-7.7187,-7.7187,-7.7383,-7.8242,-7.9062,-7.9855,-8.0561,-8.1347,-8.1893,-8.1501,-8.0918,-8.0224,-7.9411,-7.8804,-7.7905,-7.6221,-7.5855,-7.5192,-7.3252,-7.2797,-7.2005,-6.9661,-6.8723,-6.8087,-6.7287,-6.6569,-6.6372,-6.6909,-6.5513,-6.441,-6.4281,-6.1056,-5.9043,-5.8903,-5.7159,-5.6219,-5.6219,-5.6219,-5.6219,-5.6219,-5.6219,-5.6219,-5.6219,-5.6219,-5.6219,-5.6219,-5.6219,-5.6219,-6.1019,-6.1377,0.0,-6.2817,-6.3079,-6.3079,-6.3079,-6.3079,-6.3079,-6.3079,-6.3079,-6.2959,-6.254,-6.3537,-6.4977,-6.6574,-6.6772,-6.704,-6.7791,-6.7489,-6.768,-6.8982,-6.9458,-7.0332,-7.1854,-7.2285,-7.2496,-7.2496,-7.3066,-7.3651,-7.4249,-7.4828,-7.5379,-7.5976,-7.6015,-7.6015,-7.6015,-7.6015,-7.613,-7.6361,-7.6322,-7.6482,-7.6788,-7.6862,-7.6955,-7.7001,-7.7121,-7.7187,-7.7187,-7.7187,-7.7187,-7.7187,-7.7187,-7.7187,-7.7187,-7.7187,-7.7187,-7.7187,-7.7187,-7.7187,-7.7187,-7.7187,-7.7187,-7.7187,-7.7187,-7.7187,-7.7265,-7.7578,-7.8174,-7.892,-7.9673,-8.0323,-8.0722,-8.0573,-7.9789,-7.8954,-7.869,-7.796,-7.7022,-7.6022,-7.4757,-7.3615,-7.2962,-7.1538,-7.0189,-6.928,-6.826,-6.7433,-6.7125,-6.6816,-6.6729,-6.6969,-6.5358,-6.3894,-6.2661,-6.0264,-5.8366,-5.7303,-5.6631,-5.6219,-5.6219,-5.6219,-5.6219,-5.6219,-5.6219,-5.6219,-5.6219,-5.6219,-5.6219,-5.6219,-5.6219,-5.6219,-5.9994,-6.087,-6.1644,-6.2817,-6.3079,-6.3079,-6.3079,-6.3079,-6.3079,-6.3079,-6.3079,-6.2869,-6.2211,-6.2607,-6.3471,-6.4587,-6.5029,-6.5706,-6.6799,-6.6828,-6.7243,-6.8531,-6.9276,-7.0196,-7.1448,-7.2167,-7.2496,-7.2496,-7.3275,-7.3888,-7.4293,-7.498,-7.5584,-7.6015,-7.6015,-7.6015,-7.6092,-7.6092,-7.6245,-7.6621,-7.6544,-7.666,-7.6887,-7.6962,-7.7006,-7.7015,-7.7129,-7.7187,-7.7187,-7.7187,-7.7187,-7.7187,-7.7187,-7.7187,-7.7187,-7.7187,-7.7187,-7.7187,-7.7187,-7.7187,-7.7187,-7.7187,-7.7187,-7.7187,-7.7187,-7.7187,-7.7184,-7.7098,-7.7623,-7.8344,-7.9023,-7.9659,-8.0033,-7.9814,-7.901,-7.8163,-7.7562,-7.6974,-7.6207,-7.5474,-7.3928,-7.2714,-7.2364,-7.0589,-6.8991,-6.8601,-6.7747,-6.693,-6.6422,-6.6702,-6.6723,-6.6168,-6.4438,-6.2661,-6.0784,-5.9043,-5.7421,-5.634,-5.6219,-5.6219,-5.6219,-5.6219,-5.6219,-5.6219,-5.6219,-5.6219,-5.6219,-5.6219,-5.6219,-5.6219,-5.6219,-5.6219,0.0,0.0,0.0,-6.3079,-6.3079,-6.3079,-6.3079,-6.3079,-6.3079,-6.3079,-6.3049,-6.2954,-6.2295,-6.1635,-6.1358,-6.1958,-6.3136,-6.4255,-6.4877,-6.6029,-6.6812,-6.6812,-6.8531,-6.9708,-6.9778,-7.1448,-7.2496,-7.2496,-7.359,-7.4293,-7.4293,-7.5383,-7.6015,-7.6015,-7.6015,-7.6092,-7.6284,-7.6313,-7.639,-7.6621,-7.6813,-7.6919,-7.691,-7.7102,-7.7207,-7.7186,-7.7215,-7.7187,-7.7187,-7.7187,-7.7187,-7.7187,-7.7187,-7.7187,-7.7187,-7.7187,-7.7187,-7.7187,-7.7187,-7.7187,-7.7187,-7.7187,-7.7187,-7.7187,-7.7187,-7.7187,-7.7156,-7.6954,-7.7497,-7.8267,-7.8639,-7.9424,-7.9929,-7.9335,-7.8704,-7.7829,-7.6191,-7.5787,-7.544,-7.446,-7.3412,-7.2414,-7.1457,-7.0043,-6.8699,-6.7368,-6.7103,-6.6506,-6.5143,-6.6191,-6.6322,-6.4438,-6.2689,-6.092,-5.9043,-5.7303,-5.6219,-5.6219,-5.6219,-5.6219,-5.6219,-5.6219,-5.6219,-5.6219,-5.6219,-5.6219,-5.6219,-5.6219,-5.6219,-5.6219,-5.6219,-5.6219,-5.9721,0.0,0.0,0.0,0.0,0.0,-6.3079,-6.3079,-6.3079,-6.3079,-6.3395,-6.3561,-6.2887,-6.3027,-6.3129,-6.2802,-6.3001,-6.3991,-6.5975,-6.661,-6.6995,-6.7708,-6.8947,-6.9989,-7.0668,-7.1794,-7.2496,-7.2496,-7.3224,-7.3841,-7.4293,-7.5383,-7.6015,-7.6015,-7.613,-7.6245,-7.6284,-7.6427,-7.6621,-7.6813,-7.689,-7.6975,-7.7137,-7.7176,-7.7215,-7.7184,-7.722,-7.7187,-7.7187,-7.7187,-7.7187,-7.7184,-7.7058,-7.6979,-7.6981,-7.6833,-7.676,-7.679,-7.6944,-7.6992,-7.6992,-7.7148,-7.7187,-7.7187,-7.7187,-7.7209,-7.7185,-7.6966,-7.6967,-7.7177,-7.7781,-7.8671,-7.929,-7.8704,-7.8035,-7.7255,-7.6094,-7.5227,-7.4385,-7.3412,-7.2448,-7.13,-7.001,-6.8601,-6.7266,-6.5835,-6.5647,-6.5467,-6.5024,-6.6191,-6.6322,-6.4438,-6.2689,-6.092,-5.9043,-5.7303,-5.6219,-5.6219,-5.6219,-5.6219,-5.6219,-5.6219,-5.6219,-5.6219,-5.6219,-5.6219,-5.6219,-5.6219,-5.6219,-5.6219,-5.6219,-5.6219,-5.9721,-6.099,-6.1792,-6.2817,0.0,0.0,-6.3789,-6.3902,-6.4097,-6.4734,-6.4907,-6.4717,-6.4026,-6.3911,-6.3901,-6.3768,-6.3732,-6.4322,-6.5767,-6.644,-6.7161,-6.8068,-6.9095,-7.0058,-7.0995,-7.1951,-7.2573,-7.2871,-7.3442,-7.4161,-7.4981,-7.5654,-7.6053,-7.613,-7.6245,-7.6361,-7.6544,-7.6668,-7.6827,-7.7032,-7.7032,-7.71,-7.7187,-7.7187,-7.7187,-7.7187,-7.7187,-7.7187,-7.7187,-7.7187,-7.7187,-7.7186,-7.7092,-7.703,-7.7025,-7.6908,-7.6845,-7.6885,-7.6986,-7.7043,-7.7031,-7.7148,-7.7185,-7.7182,-7.7104,-7.7059,-7.7006,-7.6736,-7.6586,-7.6662,-7.7415,-7.7993,-7.8216,-7.7775,-7.7145,-7.6264,-7.483,-7.4082,-7.3492,-7.288,-7.1552,-7.017,-6.9313,-6.7572,-6.6048,-6.5219,-6.5025,-6.5024,-6.5024,-6.5522,-6.5232,-6.3346,-6.1595,-5.9712,-5.7966,-5.675,-5.6219,-5.6219,-5.6219,-5.6219,-5.6219,-5.6219,-5.6219,-5.6219,-5.6219,-5.6219,-5.6219,-5.6219,-5.6219,-5.6219,-5.6219,-5.6219,-6.0237,-6.191,-6.3079,-6.3079,-6.3164,0.0,-6.4813,-6.5219,-6.562,-6.6862,-6.6625,-6.602,-6.5314,-6.4706,-6.4477,-6.5,-6.5081,-6.5081,-6.5081,-6.6148,-6.7161,-6.8068,-6.9095,-7.0058,-7.0995,-7.1951,-7.2761,-7.3341,-7.4026,-7.4828,-7.5947,-7.6015,-7.613,-7.6284,-7.6322,-7.6544,-7.689,-7.6943,-7.7026,-7.7172,-7.7172,-7.7139,-7.7145,-7.7145,-7.7145,-7.7145,-7.7145,-7.7145,-7.7145,-7.7145,-7.7147,-7.7187,-7.7187,-7.715,-7.7151,-7.7136,-7.712,-7.712,-7.715,-7.7127,-7.7148,-7.7178,-7.7142,-7.7081,-7.6927,-7.6871,-7.6746,-7.634,-7.6284,-7.6541,-7.7226,-7.7258,-7.703,-7.6764,-7.6243,-7.5263,-7.3252,-7.2797,-7.2714,-7.2429,-7.0647,-6.9121,-6.8991,-6.6855,-6.5001,-6.4923,-6.491,-6.5024,-6.5024,-6.4568,-6.3606,-6.173,-5.9989,-5.825,-5.634,-5.6219,-5.6219,-5.6219,-5.6219,-5.6219,-5.6219,-5.6219,-5.6219,-5.6219,-5.6219,-5.6219,-5.6219,-5.6219,-5.6219,-5.6219,-5.6219,-5.6219,-6.1792,-6.2817,-6.3079,-6.3079,-6.3902,0.0,-6.5032,-6.5941,-6.6695,-6.6358,-6.6582,-6.6573,-6.5853,-6.5989,-6.6316,-6.644,-6.644,-6.644,-6.644,-6.661,-6.7161,-6.8068,-6.9095,-7.0058,-7.0995,-7.1951,-7.2761,-7.3341,-7.4384,-7.5236,-7.5947,-7.613,-7.6245,-7.6284,-7.6621,-7.6813,-7.689,-7.7053,-7.7087,-7.6939,-7.6939,-7.6866,-7.6727,-7.6727,-7.6727,-7.6727,-7.6727,-7.6727,-7.6727,-7.6727,-7.6926,-7.7187,-7.7031,-7.6946,-7.6933,-7.6777,-7.6726,-7.6749,-7.6893,-7.6855,-7.6749,-7.6923,-7.6824,-7.6687,-7.6648,-7.6653,-7.6532,-7.5771,-7.5968,-7.635,-7.6197,-7.6616,-7.6903,-7.6199,-7.5923,-7.5263,-7.3252,-7.2797,-7.226,-7.0281,-6.9471,-6.8894,-6.7774,-6.6259,-6.4703,-6.3706,-6.439,-6.5024,-6.5024,-6.4568,-6.3606,-6.173,-5.9989,-5.825,-5.634,-5.6219,-5.6219,-5.6219,-5.6219,-5.6219,-5.6219,-5.6219,-5.6219,-5.6219,-5.6219,-5.6219,-5.6219,-5.6219,-5.6219,-5.6219,-5.6219,-5.6219,-6.2175,-6.3079,-6.3279,-6.3902,-6.4623,0.0,0.0,-6.7673,-6.8209,-6.8104,-6.8102,-6.7825,-6.709,-6.6825,-6.6812,-6.6812,-6.6812,-6.6812,-6.6812,-6.6812,-6.7291,-6.8798,-6.9386,-7.0264,-7.1635,-7.2226,-7.2871,-7.3794,-7.4905,-7.5724,-7.613,-7.6245,-7.6361,-7.6583,-7.6813,-7.6944,-7.7049,-7.7039,-7.6982,-7.689,-7.6813,-7.67,-7.6604,-7.6604,-7.6604,-7.6604,-7.6604,-7.6604,-7.6604,-7.6604,-7.673,-7.6883,-7.68,-7.6763,-7.6737,-7.6636,-7.6601,-7.6601,-7.6717,-7.6678,-7.6625,-7.6712,-7.6675,-7.6566,-7.6488,-7.6145,-7.5719,-7.5055,-7.488,-7.4899,-7.5011,-7.5174,-7.5077,-7.4437,-7.431,-7.3928,-7.2364,-7.1518,-7.0647,-6.9471,-6.8074,-6.6958,-6.6259,-6.5032,-6.3902,-6.3164,-6.4186,-6.5024,-6.5024,-6.3786,-6.2661,-6.173,-5.9183,-5.7159,-5.634,-5.6219,-5.6219,-5.6219,-5.6219,-5.6219,-5.6219,-5.6219,-5.6219,-5.6219,-5.6219,-5.6219,-5.6219,-5.6219,-5.6219,-5.6219,-5.6219,-5.6219,-6.2612,-6.3478,-6.3789,-6.5111,-6.5728,-6.6438,0.0,0.0,0.0,-6.995,-6.9519,-6.8808,-6.7861,-6.7218,-6.6677,-6.6237,-6.6542,-6.6727,-6.6452,-6.684,-6.7662,-6.9241,-6.9743,-7.0535,-7.2071,-7.2516,-7.3119,-7.4206,-7.5274,-7.5964,-7.6284,-7.6349,-7.6531,-7.689,-7.6932,-7.7025,-7.7146,-7.6996,-7.6852,-7.6775,-7.6621,-7.6544,-7.6476,-7.6476,-7.6476,-7.6476,-7.6476,-7.6476,-7.6476,-7.6476,-7.6476,-7.6486,-7.6573,-7.6609,-7.6609,-7.6609,-7.6609,-7.6609,-7.6609,-7.657,-7.6555,-7.6519,-7.6447,-7.624,-7.5993,-7.5459,-7.4828,-7.4293,-7.3661,-7.3289,-7.3978,-7.3623,-7.3047,-7.2823,-7.2797,-7.2498,-7.112,-7.0043,-6.8991,-6.8503,-6.6647,-6.5111,-6.5111,-6.4015,-6.3079,-6.3079,-6.4186,-6.5024,-6.5024,-6.2993,-6.1595,-6.1595,-5.8366,-5.6219,-5.6219,-5.6219,-5.6219,-5.6219,-5.6219,-5.6219,-5.6219,-5.6219,-5.6219,-5.6219,-5.6219,-5.6219,-5.6219,-5.6219,-5.6219,-5.6219,-5.6219,-5.6219,-6.3975,-6.4923,-6.5219,-6.6647,-6.7874,-6.8797,-6.9121,0.0,-7.0693,-6.9519,0.0,-6.8673,-6.7218,0.0,0.0,-6.4208,-6.5527,-6.6398,-6.5296,-6.6789,-6.8146,-6.8343,-6.9848,-7.0995,-7.1223,-7.2502,-7.359,-7.4249,-7.4866,-7.5523,-7.6284,-7.6475,-7.6671,-7.6881,-7.7053,-7.7095,-7.6945,-7.6899,-7.6736,-7.6361,-7.6322,-7.6245,-7.6053,-7.6053,-7.6053,-7.6053,-7.6053,-7.6053,-7.6053,-7.6053,-7.6053,-7.6092,-7.6475,-7.658,-7.658,-7.658,-7.658,-7.658,-7.658,-7.6465,-7.6321,-7.6313,-7.5846,-7.5167,-7.4667,-7.4464,-7.4293,-7.3651,-7.2844,-7.2365,-7.3261,-7.2827,-7.225,-7.2661,-7.2797,-7.2176,-6.9976,-6.9313,-6.8503,-6.6048,-6.5328,-6.5111,-6.5111,-6.4015,-6.3079,-6.3079,-6.4186,-6.5024,-6.5024,-6.2993,-6.1595,-6.1595,-5.8366,-5.6219,-5.6219,-5.6219,-5.6219,-5.6219,-5.6219,-5.6219,-5.6219,-5.6219,-5.6219,-5.6219,-5.6219,-5.6219,-5.6219,-5.6219,-5.6219,-5.6219,-5.6219,-5.6219,-6.4531,-6.5728,-6.6679,-6.7974,-6.9244,-7.033,-7.1063,-7.2176,-7.2731,-7.1733,0.0,0.0,0.0,0.0,0.0,0.0,-6.7863,-6.8293,-6.7723,-6.8965,-6.9848,-6.9848,-7.0566,-7.1438,-7.2353,-7.3367,-7.4161,-7.4711,-7.5386,-7.5986,-7.6438,-7.6662,-7.6885,-7.7053,-7.705,-7.6979,-7.689,-7.6698,-7.6438,-7.6284,-7.6169,-7.6092,-7.6015,-7.6015,-7.6015,-7.6015,-7.6015,-7.5818,-7.548,-7.548,-7.531,-7.5018,-7.5209,-7.5681,-7.6245,-7.6245,-7.6245,-7.6245,-7.6245,-7.5979,-7.5527,-7.5243,-7.4904,-7.4509,-7.398,-7.3794,-7.3516,-7.2372,-7.2121,-7.2083,-7.18,-7.1728,-7.1768,-7.1868,-7.1287,-7.0464,-6.9376,-6.7974,-6.6438,-6.5328,-6.4512,-6.3902,-6.3902,-6.3478,-6.3079,-6.3079,-6.4186,-6.4636,-6.3579,-6.2321,-6.1191,-6.0127,-5.7707,-5.6219,-5.6219,-5.6219,-5.6219,-5.6219,-5.6219,-5.6219,-5.6219,-5.6219,-5.6219,-5.6219,-5.6219,-5.6219,-5.6219,-5.6219,-5.6219,-5.6219,-5.6219,-5.6219,-6.5772,-6.7202,-6.8471,-6.9876,-7.0927,-7.1985,-7.2974,-7.3807,-7.4098,-7.3393,-7.254,0.0,0.0,0.0,-6.9495,-6.8858,0.0,-6.953,-6.9237,-7.0273,-7.0995,-7.0734,-7.1087,-7.1911,-7.3252,-7.3934,-7.4544,-7.5132,-7.5714,-7.6209,-7.663,-7.6813,-7.6959,-7.7114,-7.6975,-7.6852,-7.6736,-7.6438,-7.6245,-7.6207,-7.6053,-7.6015,-7.6015,-7.6015,-7.5917,-7.5749,-7.5749,-7.5413,-7.4905,-7.4905,-7.467,-7.4293,-7.4293,-7.4827,-7.5518,-7.5518,-7.5518,-7.5518,-7.5518,-7.5274,-7.4789,-7.4212,-7.4072,-7.385,-7.3008,-7.2741,-7.2465,-7.1087,-7.1108,-7.1304,-7.0619,-7.089,-7.1097,-7.0771,-6.9949,-6.8991,-6.8273,-6.6543,-6.5032,-6.4623,-6.3789,-6.3079,-6.3079,-6.3079,-6.3079,-6.3079,-6.3654,-6.3646,-6.238,-6.137,-6.0212,-5.9017,-5.7303,-5.6219,-5.6219,-5.6219,-5.6219,-5.6219,-5.6219,-5.6219,-5.6219,-5.6219,-5.6219,-5.6219,-5.6219,-5.6219,-5.6219,-5.6219,-5.6219,-5.6219,-5.6219,-5.6219,-6.8699,-6.9776,-7.0914,-7.231,-7.3457,-7.4234,-7.4234,-7.4234,-7.4098,-7.3393,-7.254,-7.1761,-7.1054,-7.0203,-6.8964,-6.6798,-6.829,0.0,0.0,-6.9678,-7.0734,-6.9849,-7.1096,-7.2337,-7.3303,-7.3934,-7.4615,-7.5361,-7.5399,-7.5886,-7.6823,-7.689,-7.6882,-7.6905,-7.6919,-7.6736,-7.6322,-7.6284,-7.6207,-7.6015,-7.6015,-7.6015,-7.6015,-7.6015,-7.5686,-7.5127,-7.5127,-7.4828,-7.4336,-7.4336,-7.4293,-7.4293,-7.4293,-7.4336,-7.4336,-7.4336,-7.4336,-7.4336,-7.4336,-7.4336,-7.4249,-7.3602,-7.3442,-7.3149,-7.1648,-7.1187,-7.0995,-7.0022,-6.9617,-6.9688,-7.0337,-7.0378,-7.0063,-6.9434,-6.9217,-6.8503,-6.5835,-6.5111,-6.4703,-6.3394,-6.3079,-6.3079,-6.3079,-6.3079,-6.3079,-6.3079,-6.223,-6.1718,-6.2198,-5.9956,-5.8435,-5.885,-5.7303,-5.6219,-5.6219,-5.6219,-5.6219,-5.6219,-5.6219,-5.6219,-5.6219,-5.6219,-5.6219,-5.6219,-5.6219,-5.6219,-5.6219,-5.6219,-5.6219,-5.6219,-5.6219,-5.6219,-7.008,-7.1559,-7.3158,-7.3694,-7.4535,-7.5299,-7.5299,-7.5823,-7.6191,-7.6003,-7.5277,-7.4478,-7.3715,-7.2917,-7.1936,-7.0593,-7.1399,-7.1985,0.0,-7.2466,-7.3104,-7.2785,-7.3181,-7.3784,-7.443,-7.4819,-7.5323,-7.5934,-7.6229,-7.6555,-7.689,-7.6883,-7.6902,-7.6881,-7.6659,-7.6438,-7.6284,-7.6169,-7.6053,-7.6015,-7.6015,-7.5787,-7.5413,-7.5413,-7.5129,-7.4588,-7.4588,-7.4212,-7.3699,-7.3699,-7.3492,-7.3066,-7.3066,-7.3066,-7.3224,-7.4026,-7.4293,-7.4249,-7.3841,-7.3699,-7.3504,-7.2259,-7.1888,-7.1648,-7.0499,-7.0196,-7.0095,-6.9613,-6.981,-7.0096,-7.0293,-6.9962,-6.9523,-6.9247,-6.7774,-6.6259,-6.5328,-6.4401,-6.3706,-6.3194,-6.3079,-6.3079,-6.3079,-6.3079,-6.3079,-6.3079,-6.223,-6.1318,-6.065,-5.9129,-5.7878,-5.7226,-5.6631,-5.6219,-5.6219,-5.6219,-5.6219,-5.6219,-5.6219,-5.6219,-5.6219,-5.6219,-5.6219,-5.6219,-5.6219,-5.6219,-5.6219,-5.6219,-5.6219,-5.6219,-5.6219,-5.6219,-7.1901,-7.3361,-7.4868,-7.5119,-7.5949,-7.6737,-7.6937,-7.7525,-7.7979,-7.7979,-7.7311,-7.6495,-7.5679,-7.4863,-7.4047,-7.3268,-7.3492,-7.3699,0.0,-7.4212,-7.4588,-7.4588,-7.4588,-7.4748,-7.5171,-7.5432,-7.5867,-7.6476,-7.6688,-7.6853,-7.7002,-7.6921,-7.689,-7.6813,-7.6438,-7.6245,-7.6169,-7.6053,-7.6015,-7.6015,-7.5787,-7.548,-7.5091,-7.4905,-7.4509,-7.398,-7.398,-7.3639,-7.3066,-7.3066,-7.2871,-7.2496,-7.2496,-7.2285,-7.2153,-7.3252,-7.3467,-7.3141,-7.2704,-7.2372,-7.1933,-7.0959,-7.0601,-7.0468,-6.9458,-6.9379,-6.9437,-6.867,-6.9028,-6.9542,-6.9178,-6.881,-6.8405,-6.7874,-6.6365,-6.5032,-6.4512,-6.3706,-6.3079,-6.3079,-6.3079,-6.3079,-6.3079,-6.3079,-6.3079,-6.3079,-6.1517,-6.0159,-5.969,-5.805,-5.6714,-5.6264,-5.6219,-5.6219,-5.6219,-5.6219,-5.6219,-5.6219,-5.6219,-5.6219,-5.6219,-5.6219,-5.6118,-5.5917,-5.6118,-5.6118,-5.5917,-5.6118,-5.6219,-5.6219,-5.6219,-5.6219]}]]